ftp/pub/palmer/observations_modified/2019/July/AR190724_BASE.txt

Download

Sample DateTime	Unit Id	WS Avg 2min	WD Avg 2min	WGS 10min	WGD 10min	Air Temp	Rel Humidity	Dew Point	Pyranometer	Quantum	Air Pressure	Snow Level	Rainfall	PW Current	Visibility	CBase 1	CBase 2	CBase 3	Vert Vis
2019/07/24  00:00:01  BASE  4.704    226  5.3214   230  -11.4 100   -11.4 0     0     999.9    NA       0.0000   -SN      9999  850   0    
2019/07/24  00:01:00  BASE  4.36884  231  5.3214   230  -11.4 100   -11.4 0     0     999.9    NA       0.0000   -SN      9999  300   920  
2019/07/24  00:02:00  BASE  3.62796  233  5.3214   230  -11.5 100   -11.5 0     0     999.9    NA       0.0000   -SN      8000  0     0    
2019/07/24  00:03:00  BASE  3.7044   238  5.3214   230  -11.5 100   -11.5 0     0     999.9    NA       0.0000   -SN      9000  390   0    
2019/07/24  00:04:00  BASE  4.01604  246  5.3214   230  -11.5 100   -11.5 0     0     1000.0   NA       0.0000   -SN      9999  300   0    
2019/07/24  00:05:00  BASE  3.49272  250  5.3214   230  -11.5 100   -11.5 0     0     1000.0   NA       0.0000   -SN      8000  360   0    
2019/07/24  00:06:01  BASE  3.05172  256  5.145    228  -11.6 100   -11.6 0     0     1000.1   NA       0.0000   -SN      9000  950   0    
2019/07/24  00:07:00  BASE  3.39276  253  5.145    228  -11.6 100   -11.6 0     0     1000.1   NA       0.0000   -SN      9999  950   0    
2019/07/24  00:08:00  BASE  4.03956  245  5.145    228  -11.6 100   -11.6 0     0     1000.1   NA       0.0000   -SN      9999  1020  0    
2019/07/24  00:09:00  BASE  4.1748   247  4.99212  227  -11.6 100   -11.6 0     0     1000.1   NA       0.0000   -SN      9999  1020  0    
2019/07/24  00:10:01  BASE  4.07484  251  4.99212  253  -11.7 100   -11.7 0     0     1000.1   NA       0.0000   -SN      9999  1080  0    
2019/07/24  00:11:01  BASE  3.9984   243  4.99212  253  -11.7 100   -11.7 0     0     1000.1   NA       0.0000   -SN      9999  980   0    
2019/07/24  00:12:00  BASE  4.16892  229  4.99212  253  -11.7 100   -11.7 0     0     1000.2   NA       0.0000   -SN      9999  890   0    
2019/07/24  00:13:00  BASE  4.51584  222  5.2332   225  -11.7 100   -11.7 0     0     1000.2   NA       0.0000   -SN      9999  950   0    
2019/07/24  00:14:00  BASE  4.40412  220  5.2332   225  -11.6 100   -11.6 0     0     1000.2   NA       0.0000   -SN      9999  890   0    
2019/07/24  00:15:01  BASE  3.92196  218  5.2332   225  -11.6 100   -11.6 0     0     1000.2   NA       0.0000   -SN      9999  980   0    
2019/07/24  00:16:00  BASE  3.32808  224  5.2332   225  -11.6 100   -11.6 0     0     1000.2   NA       0.0000   -SN      9999  920   0    
2019/07/24  00:17:00  BASE  2.87532  236  5.2332   225  -11.7 100   -11.7 0     0     1000.3   NA       0.0000   -SN      9999  790   0    
2019/07/24  00:18:00  BASE  2.19912  242  5.2332   225  -11.7 100   -11.7 0     0     1000.3   NA       0.0000   -SN      9999  920   0    
2019/07/24  00:19:00  BASE  1.4406   236  5.2332   225  -11.7 100   -11.7 0     0     1000.3   NA       0.0000   -SN      9999  920   0    
2019/07/24  00:20:00  BASE  1.47     237  5.2332   225  -11.7 100   -11.7 0     0     1000.3   NA       0.0000   -SN      9999  750   0    
2019/07/24  00:21:00  BASE  1.65228  230  5.2332   225  -11.7 100   -11.7 0     0     1000.3   NA       0.0000   -SN      9000  430   0    
2019/07/24  00:22:00  BASE  1.65228  216  5.2332   225  -11.7 100   -11.7 0     0     1000.3   NA       0.0000   -SN      4700  330   0    
2019/07/24  00:23:00  BASE  1.48764  220  4.65696  213  -11.7 100   -11.7 0     0     1000.3   NA       0.0000   -SN      BR    3300  300  
2019/07/24  00:24:00  BASE  2.16972  221  4.1454   219  -11.6 100   -11.6 0     0     1000.2   NA       0.0000   -SN      BR    3500  950  
2019/07/24  00:25:00  BASE  3.234    218  3.96312  219  -11.6 100   -11.6 0     0     1000.2   NA       0.0000   -SN      BR    5000  950  
2019/07/24  00:26:00  BASE  3.43392  216  3.96312  219  -11.6 100   -11.6 0     0     1000.2   NA       0.0000   -SN      BR    9999  850  
2019/07/24  00:27:00  BASE  3.25752  209  3.96312  219  -11.6 100   -11.6 0     0     1000.2   NA       0.0000   -SN      BR    9999  820  
2019/07/24  00:28:00  BASE  3.234    206  3.96312  204  -11.7 100   -11.7 0     0     1000.2   NA       0.0000   -SN      BR    9999  820  
2019/07/24  00:29:01  BASE  2.83416  206  3.96312  204  -11.7 100   -11.7 0     0     1000.2   NA       0.0000   -SN      BR    9999  920  
2019/07/24  00:30:01  BASE  2.64012  216  3.96312  204  -11.7 100   -11.7 0     0     1000.2   NA       0.0000   -SN      BR    9999  950  
2019/07/24  00:31:00  BASE  3.2046   214  4.59816  203  -11.7 100   -11.7 0     0     1000.2   NA       0.0000   -SN      BR    9999  1020 
2019/07/24  00:32:00  BASE  3.53388  199  4.59816  203  -11.7 100   -11.7 0     0     1000.2   NA       0.0000   -SN      BR    9999  920  
2019/07/24  00:33:00  BASE  2.97528  191  4.59816  203  -11.7 100   -11.7 0     0     1000.2   NA       0.0000   -SN      BR    9999  790  
2019/07/24  00:34:01  BASE  2.45784  180  4.59816  203  -11.7 100   -11.7 0     0     1000.2   NA       0.0000   -SN      9999  850   0    
2019/07/24  00:35:00  BASE  2.30496  178  4.59816  203  -11.7 100   -11.7 0     0     1000.2   NA       0.0000   9999     920   0     0    
2019/07/24  00:36:00  BASE  2.1168   198  4.59816  203  -11.7 100   -11.7 0     0     1000.2   NA       0.0000   9999     980   0     0    
2019/07/24  00:37:00  BASE  2.34024  206  4.59816  203  -11.7 100   -11.7 0     0     1000.2   NA       0.0000   9999     950   0     0    
2019/07/24  00:38:00  BASE  2.16972  207  4.59816  203  -11.7 100   -11.7 0     0     1000.2   NA       0.0000   9999     920   0     0    
2019/07/24  00:39:00  BASE  1.911    201  4.59816  203  -11.7 100   -11.7 0     0     1000.2   NA       0.0000   -SN      9999  890   0    
2019/07/24  00:40:00  BASE  1.71108  187  4.59816  203  -11.7 100   -11.7 0     0     1000.2   NA       0.0000   -SN      9999  920   0    
2019/07/24  00:41:00  BASE  1.323    185  4.02192  199  -11.7 100   -11.7 0     0     1000.2   NA       0.0000   -SN      9999  1050  0    
2019/07/24  00:42:01  BASE  1.1466   179  3.1458   210  -11.7 100   -11.7 0     0     1000.2   NA       0.0000   -SN      9999  920   0    
2019/07/24  00:43:00  BASE  1.07604  177  3.1458   210  -11.7 100   -11.7 0     0     1000.2   NA       0.0000   -SN      9999  720   0    
2019/07/24  00:44:00  BASE  1.35828  177  3.1458   210  -11.7 100   -11.7 0     0     1000.2   NA       0.0000   -SN      9999  520   0    
2019/07/24  00:45:00  BASE  1.7052   176  3.1458   210  -11.7 100   -11.7 0     0     1000.2   NA       0.0000   -SN      9999  460   0    
2019/07/24  00:46:01  BASE  1.68168  189  3.1458   210  -11.7 100   -11.7 0     0     1000.2   NA       0.0000   -SN      9999  430   0    
2019/07/24  00:47:00  BASE  1.45824  204  2.45196  165  -11.7 100   -11.7 0     0     1000.2   NA       0.0000   -SN      9999  1080  0    
2019/07/24  00:48:01  BASE  1.42884  198  2.45196  165  -11.7 100   -11.7 0     0     1000.2   NA       0.0000   -SN      9999  1120  0    
2019/07/24  00:49:01  BASE  1.74636  171  2.29908  159  -11.7 100   -11.7 0     0     1000.3   NA       0.0000   -SN      9999  1080  0    
2019/07/24  00:50:00  BASE  2.03448  152  2.54016  155  -11.7 100   -11.7 0     0     1000.3   NA       0.0000   -SN      9999  1180  0    
2019/07/24  00:51:00  BASE  2.15796  154  2.54016  155  -11.7 100   -11.7 0     0     1000.3   NA       0.0000   -SN      9999  1080  0    
2019/07/24  00:52:00  BASE  2.205    158  2.54016  168  -11.8 100   -11.8 0     0     1000.3   NA       0.0000   -SN      9999  1050  0    
2019/07/24  00:53:01  BASE  2.16972  163  2.54016  168  -11.8 100   -11.8 0     0     1000.3   NA       0.0000   -SN      9999  1050  0    
2019/07/24  00:54:00  BASE  1.97568  167  2.54016  168  -11.8 100   -11.8 0     0     1000.3   NA       0.0000   -SN      9999  890   0    
2019/07/24  00:55:00  BASE  1.89924  165  2.54016  168  -11.8 100   -11.8 0     0     1000.3   NA       0.0000   -SN      9999  850   0    
2019/07/24  00:56:00  BASE  1.74048  169  2.54016  168  -11.8 100   -11.8 0     0     1000.3   NA       0.0000   -SN      9999  980   0    
2019/07/24  00:57:00  BASE  1.77576  184  2.54016  168  -11.8 100   -11.8 0     0     1000.3   NA       0.0000   -SN      8000  920   0    
2019/07/24  00:58:00  BASE  2.38728  203  2.87532  212  -11.8 100   -11.8 0     0     1000.3   NA       0.0000   -SN      8000  850   0    
2019/07/24  00:59:00  BASE  2.54016  214  2.87532  212  -11.8 100   -11.8 0     0     1000.3   NA       0.0000   -SN      9999  750   0    
2019/07/24  01:00:00  BASE  2.19324  207  2.87532  212  -11.7 100   -11.8 0     0     1000.3   NA       0.0000   -SN      9999  790   0    
2019/07/24  01:01:00  BASE  1.86984  196  2.87532  212  -11.7 99    -11.8 0     0     1000.3   NA       0.0000   -SN      9999  820   0    
2019/07/24  01:02:00  BASE  1.63464  193  2.87532  212  -11.7 99    -11.8 0     0     1000.3   NA       0.0000   -SN      9999  950   0    
2019/07/24  01:03:00  BASE  1.45236  192  2.87532  212  -11.7 99    -11.8 0     0     1000.3   NA       0.0000   -SN      9999  660   0    
2019/07/24  01:04:00  BASE  1.17012  189  2.87532  212  -11.7 99    -11.8 0     0     1000.3   NA       0.0000   -SN      9999  660   0    
2019/07/24  01:05:00  BASE  1.02312  177  2.87532  212  -11.7 99    -11.8 0     0     1000.3   NA       0.0000   -SN      9999  1020  0    
2019/07/24  01:06:00  BASE  0.97608  151  2.87532  212  -11.7 99    -11.8 0     0     1000.3   NA       0.0000   -SN      9999  1020  0    
2019/07/24  01:07:00  BASE  0.61152  137  2.87532  212  -11.7 99    -11.8 0     0     1000.3   NA       0.0000   -SN      9999  430   0    
2019/07/24  01:08:01  BASE  0.68208  136  2.56956  217  -11.7 99    -11.8 0     0     1000.4   NA       0.0000   -SN      9999  360   0    
2019/07/24  01:09:00  BASE  1.1172   135  2.29908  196  -11.7 99    -11.8 0     0     1000.4   NA       0.0000   -SN      8000  330   0    
2019/07/24  01:10:01  BASE  1.10544  142  1.90512  183  -11.7 99    -11.8 0     0     1000.4   NA       0.0000   -SN      5000  360   0    
2019/07/24  01:11:01  BASE  1.029    146  1.90512  183  -11.7 99    -11.8 0     0     1000.4   NA       0.0000   -SN      BR    5000  330  
2019/07/24  01:12:01  BASE  1.0584   146  1.54056  189  -11.7 99    -11.8 0     0     1000.4   NA       0.0000   -SN      BR    4900  360  
2019/07/24  01:13:01  BASE  1.2936   155  1.66404  161  -11.7 99    -11.9 0     0     1000.4   NA       0.0000   -SN      BR    3900  260  
2019/07/24  01:14:01  BASE  1.98156  163  3.38688  169  -11.7 99    -11.8 0     0     1000.4   NA       0.0000   -SN      BR    3700  330  
2019/07/24  01:15:01  BASE  2.68128  168  3.38688  169  -11.7 99    -11.8 0     0     1000.4   NA       0.0000   -SN      BR    4100  390  
2019/07/24  01:16:01  BASE  2.74008  174  3.38688  169  -11.7 99    -11.8 0     0     1000.5   NA       0.0000   -SN      BR    5000  360  
2019/07/24  01:17:01  BASE  2.48136  179  3.38688  169  -11.7 99    -11.7 0     0     1000.5   NA       0.0000   -SN      BR    9000  360  
2019/07/24  01:18:01  BASE  2.7636   186  3.38688  169  -11.6 100   -11.7 0     0     1000.5   NA       0.0000   -SN      BR    9999  920  
2019/07/24  01:19:01  BASE  2.96352  193  3.38688  169  -11.6 100   -11.7 0     0     1000.5   NA       0.0000   -SN      BR    7000  390  
2019/07/24  01:20:01  BASE  2.54016  197  3.38688  169  -11.6 100   -11.6 0     0     1000.5   NA       0.0000   -SN      BR    4100  390  
2019/07/24  01:21:01  BASE  2.49312  196  3.38688  169  -11.6 100   -11.6 0     0     1000.5   NA       0.0000   -SN      BR    3700  430  
2019/07/24  01:22:01  BASE  2.79888  195  3.62796  196  -11.6 100   -11.6 0     0     1000.5   NA       0.0000   -SN      BR    5000  430  
2019/07/24  01:23:01  BASE  3.04584  198  3.62796  201  -11.6 100   -11.6 0     0     1000.6   NA       0.0000   -SN      BR    9999  590  
2019/07/24  01:24:01  BASE  2.53428  203  3.62796  201  -11.6 100   -11.6 0     0     1000.7   NA       0.0000   -SN      BR    9000  360  
2019/07/24  01:25:01  BASE  1.74048  203  3.62796  201  -11.6 100   -11.6 0     0     1000.7   NA       0.0000   -SN      BR    4100  0    
2019/07/24  01:26:01  BASE  1.53468  198  3.62796  201  -11.6 100   -11.6 0     0     1000.7   NA       0.0000   -SN      BR    2400  0    
2019/07/24  01:27:00  BASE  1.28772  205  3.62796  201  -11.6 100   -11.6 0     0     1000.7   NA       0.0000   -SN      BR    2300  300  
2019/07/24  01:28:01  BASE  1.9992   205  3.86904  167  -11.6 100   -11.6 0     0     1000.6   NA       0.0000   -SN      BR    4100  750  
2019/07/24  01:29:01  BASE  2.68128  182  3.86904  167  -11.6 100   -11.6 0     0     1000.6   NA       0.0000   -SN      BR    9999  1020 
2019/07/24  01:30:01  BASE  2.35788  162  3.86904  167  -11.6 100   -11.6 0     0     1000.7   NA       0.0000   -SN      BR    9999  490  
2019/07/24  01:31:01  BASE  2.10504  159  3.86904  167  -11.6 100   -11.6 0     0     1000.7   NA       0.0000   -SN      BR    9999  620  
2019/07/24  01:32:01  BASE  1.89336  160  3.86904  167  -11.6 100   -11.6 0     0     1000.7   NA       0.0000   -SN      BR    9999  980  
2019/07/24  01:33:00  BASE  1.93452  157  3.86904  167  -11.6 100   -11.6 0     0     1000.7   NA       0.0000   -SN      BR    9999  390  
2019/07/24  01:34:00  BASE  1.90512  156  3.86904  167  -11.6 100   -11.6 0     0     1000.7   NA       0.0000   -SN      BR    9999  1020 
2019/07/24  01:35:00  BASE  1.7346   162  3.86904  167  -11.6 100   -11.6 0     0     1000.8   NA       0.0000   -SN      BR    9999  950  
2019/07/24  01:36:00  BASE  2.01684  173  3.86904  167  -11.6 100   -11.6 0     0     1000.8   NA       0.0000   -SN      BR    9999  920  
2019/07/24  01:37:00  BASE  2.19912  183  3.86904  167  -11.6 100   -11.6 0     0     1000.8   NA       0.0000   -SN      9999  390   0    
2019/07/24  01:38:00  BASE  2.16384  190  3.35748  151  -11.7 100   -11.7 0     0     1000.9   NA       0.0000   -SN      9999  390   0    
2019/07/24  01:39:00  BASE  2.29908  187  2.81064  185  -11.7 100   -11.7 0     0     1000.9   NA       0.0000   -SN      8000  390   0    
2019/07/24  01:40:00  BASE  2.08152  175  2.81064  185  -11.7 100   -11.7 0     0     1000.9   NA       0.0000   -SN      6000  360   0    
2019/07/24  01:41:00  BASE  1.9992   161  2.81064  185  -11.7 100   -11.7 0     0     1000.9   NA       0.0000   -SN      7000  360   0    
2019/07/24  01:42:00  BASE  2.48136  162  3.69264  179  -11.7 100   -11.7 0     0     1000.9   NA       0.0000   -SN      6000  390   1310 
2019/07/24  01:43:00  BASE  2.69892  168  3.69264  179  -11.7 100   -11.7 0     0     1000.9   NA       0.0000   -SN      BR    5000  300  
2019/07/24  01:44:00  BASE  2.68716  172  3.69264  179  -11.7 100   -11.7 0     0     1000.9   NA       0.0000   -SN      BR    5000  200  
2019/07/24  01:45:01  BASE  2.42844  177  3.69264  179  -11.7 100   -11.7 0     0     1000.9   NA       0.0000   -SN      BR    2700  0    
2019/07/24  01:46:00  BASE  2.16384  176  3.69264  179  -11.7 100   -11.7 0     0     1000.9   NA       0.0000   -SN      BR    2000  0    
2019/07/24  01:47:00  BASE  1.82868  178  3.69264  179  -11.7 100   -11.7 0     0     1000.9   NA       0.0000   -SN      BR    1400  0    
2019/07/24  01:48:00  BASE  1.54644  185  3.69264  179  -11.7 100   -11.7 0     0     1000.9   NA       0.0000   -SN      BR    1000  0    
2019/07/24  01:49:00  BASE  1.81692  191  3.69264  179  -11.7 100   -11.7 0     0     1000.9   NA       0.0000   -SN      BR    1500  0    
2019/07/24  01:50:00  BASE  2.36964  190  3.69264  179  -11.7 100   -11.7 0     0     1000.9   NA       0.0000   -SN      BR    2300  0    
2019/07/24  01:51:00  BASE  2.95764  194  3.81024  208  -11.7 100   -11.7 0     0     1000.9   NA       0.0000   -SN      BR    2700  0    
2019/07/24  01:52:00  BASE  3.46332  204  4.1454   207  -11.7 100   -11.7 0     0     1000.9   NA       0.0000   -SN      BR    7000  460  
2019/07/24  01:53:00  BASE  3.55152  208  4.1454   207  -11.7 100   -11.7 0     0     1000.9   NA       0.0000   -SN      BR    9999  390  
2019/07/24  01:54:00  BASE  3.34572  216  4.1454   207  -11.7 100   -11.7 0     0     1000.9   NA       0.0000   -SN      BR    9999  390  
2019/07/24  01:55:00  BASE  3.56328  224  4.41588  230  -11.7 100   -11.7 0     0     1000.9   NA       0.0000   -SN      BR    8000  360  
2019/07/24  01:56:00  BASE  3.19872  229  4.41588  230  -11.7 100   -11.7 0     0     1000.9   NA       0.0000   -SN      BR    9999  790  
2019/07/24  01:57:00  BASE  2.4696   239  4.41588  230  -11.7 100   -11.7 0     0     1000.9   NA       0.0000   -SN      BR    6000  390  
2019/07/24  01:58:00  BASE  2.72244  243  4.41588  230  -11.7 100   -11.7 0     0     1000.9   NA       0.0000   -SN      BR    4900  0    
2019/07/24  01:59:00  BASE  3.08112  233  4.41588  230  -11.7 100   -11.7 0     0     1000.9   NA       0.0000   -SN      BR    3700  300  
2019/07/24  02:00:00  BASE  3.11052  216  4.41588  230  -11.8 100   -11.8 0     0     1000.9   NA       0.0000   -SN      BR    4300  300  
2019/07/24  02:01:00  BASE  2.83416  207  4.41588  230  -11.8 100   -11.8 0     0     1000.9   NA       0.0000   -SN      BR    5000  260  
2019/07/24  02:02:00  BASE  2.31084  205  4.41588  230  -11.8 100   -11.8 0     0     1000.9   NA       0.0000   -SN      BR    3700  0    
2019/07/24  02:03:00  BASE  2.37552  214  4.41588  230  -11.8 100   -11.8 0     0     1000.9   NA       0.0000   -SN      BR    2900  260  
2019/07/24  02:04:01  BASE  2.86356  226  4.41588  230  -11.8 100   -11.8 0     0     1000.9   NA       0.0000   -SN      BR    3600  300  
2019/07/24  02:05:00  BASE  2.98704  229  3.96312  234  -11.8 100   -11.8 0     0     1000.9   NA       0.0000   -SN      BR    5000  300  
2019/07/24  02:06:00  BASE  2.7636   232  3.96312  234  -11.8 100   -11.8 0     0     1001.0   NA       0.0000   -SN      BR    6000  330  
2019/07/24  02:07:00  BASE  2.4402   234  3.96312  234  -11.7 100   -11.7 0     0     1001.0   NA       0.0000   -SN      BR    4500  920  
2019/07/24  02:08:00  BASE  2.4696   240  3.96312  234  -11.7 100   -11.7 0     0     1001.0   NA       0.0000   -SN      BR    4400  430  
2019/07/24  02:09:00  BASE  2.87532  235  3.96312  234  -11.7 100   -11.7 0     0     1001.0   NA       0.0000   -SN      BR    7000  300  
2019/07/24  02:10:00  BASE  2.8518   223  3.96312  234  -11.7 100   -11.7 0     0     1001.0   NA       0.0000   -SN      BR    7000  300  
2019/07/24  02:11:00  BASE  2.61072  240  3.96312  234  -11.7 100   -11.7 0     0     1001.0   NA       0.0000   -SN      BR    6000  300  
2019/07/24  02:12:00  BASE  2.60484  257  3.96312  234  -11.7 100   -11.7 0     0     1001.0   NA       0.0000   -SN      BR    6000  330  
2019/07/24  02:13:00  BASE  2.31084  261  3.96312  234  -11.8 100   -11.8 0     0     1001.0   NA       0.0000   -SN      BR    9000  360  
2019/07/24  02:14:00  BASE  1.98156  263  3.41628  211  -11.8 100   -11.8 0     0     1001.0   NA       0.0000   -SN      BR    6000  330  
2019/07/24  02:15:00  BASE  2.04624  247  3.41628  211  -11.8 100   -11.8 0     0     1001.0   NA       0.0000   -SN      BR    4000  300  
2019/07/24  02:16:00  BASE  1.9698   230  3.41628  211  -11.8 100   -11.8 0     0     1001.0   NA       0.0000   -SN      BR    3400  360  
2019/07/24  02:17:00  BASE  2.16972  210  3.41628  211  -11.8 100   -11.8 0     0     1001.0   NA       0.0000   -SN      BR    3400  230  
2019/07/24  02:18:00  BASE  2.39316  181  3.41628  211  -11.8 100   -11.8 0     0     1001.0   NA       0.0000   -SN      BR    3000  0    
2019/07/24  02:19:00  BASE  2.2638   182  3.26928  251  -11.8 100   -11.8 0     0     1001.0   NA       0.0000   -SN      BR    2800  330  
2019/07/24  02:20:00  BASE  2.19912  193  3.26928  251  -11.8 100   -11.8 0     0     1001.0   NA       0.0000   -SN      BR    4100  430  
2019/07/24  02:21:00  BASE  1.97568  195  3.1752   262  -11.7 100   -11.7 0     0     1001.0   NA       0.0000   -SN      BR    9999  950  
2019/07/24  02:22:00  BASE  1.95804  190  2.81064  161  -11.7 100   -11.7 0     0     1001.0   NA       0.0000   -SN      BR    9999  980  
2019/07/24  02:23:00  BASE  2.4402   190  3.2046   209  -11.7 100   -11.7 0     0     1001.0   NA       0.0000   -SN      BR    6000  1020 
2019/07/24  02:24:00  BASE  2.8812   198  3.32808  206  -11.7 100   -11.7 0     0     1001.0   NA       0.0000   -SN      BR    4600  360  
2019/07/24  02:25:00  BASE  3.69852  199  4.96272  188  -11.7 100   -11.7 0     0     1001.0   NA       0.0000   -SN      BR    5000  720  
2019/07/24  02:26:00  BASE  4.44528  196  5.3214   196  -11.7 100   -11.7 0     0     1001.0   NA       0.0000   -SN      BR    6000  390  
2019/07/24  02:27:00  BASE  4.2336   193  5.3214   196  -11.7 100   -11.7 0     0     1001.0   NA       0.0000   -SN      BR    5000  460  
2019/07/24  02:28:00  BASE  3.46332  194  5.3214   196  -11.7 100   -11.7 0     0     1001.1   NA       0.0000   -SN      BR    5000  750  
2019/07/24  02:29:00  BASE  3.12228  197  5.3214   196  -11.7 100   -11.7 0     0     1001.1   NA       0.0000   -SN      BR    9000  660  
2019/07/24  02:30:00  BASE  4.07484  204  6.321    213  -11.7 100   -11.7 0     0     1001.1   NA       0.0000   -SN      BR    9999  620  
2019/07/24  02:31:00  BASE  4.34532  206  6.321    213  -11.7 100   -11.7 0     0     1001.1   NA       0.0000   -SN      BR    9999  920  
2019/07/24  02:32:00  BASE  3.42804  200  6.321    213  -11.7 100   -11.7 0     0     1001.1   NA       0.0000   -SN      BR    9999  890  
2019/07/24  02:33:00  BASE  2.8224   209  6.321    213  -11.7 100   -11.7 0     0     1001.1   NA       0.0000   -SN      BR    9999  1050 
2019/07/24  02:34:00  BASE  2.646    220  6.321    213  -11.7 100   -11.7 0     0     1001.1   NA       0.0000   -SN      BR    9999  1050 
2019/07/24  02:35:00  BASE  2.68716  213  6.321    213  -11.7 100   -11.7 0     0     1001.2   NA       0.0000   -SN      BR    9999  1050 
2019/07/24  02:36:00  BASE  2.12856  210  6.321    213  -11.7 100   -11.7 0     0     1001.3   NA       0.0000   -SN      9999  1080  0    
2019/07/24  02:37:00  BASE  1.16424  224  6.321    213  -11.7 100   -11.7 0     0     1001.3   NA       0.0000   -SN      9999  850   0    
2019/07/24  02:38:00  BASE  0.89964  224  6.321    213  -11.7 100   -11.7 0     0     1001.3   NA       0.0000   -SN      9999  920   0    
2019/07/24  02:39:00  BASE  1.42296  232  6.321    213  -11.7 100   -11.7 0     0     1001.3   NA       0.0000   -SN      9999  620   0    
2019/07/24  02:40:00  BASE  1.47588  245  4.93332  206  -11.7 100   -11.7 0     0     1001.3   NA       0.0000   9999     360   0     0    
2019/07/24  02:41:00  BASE  0.9702   242  3.48096  197  -11.7 99    -11.8 0     0     1001.3   NA       0.0000   9999     300   0     0    
2019/07/24  02:42:00  BASE  0.8526   245  3.44568  212  -11.7 99    -11.8 0     0     1001.3   NA       0.0000   -SN      9999  300   0    
2019/07/24  02:43:00  BASE  0.54684  260  3.44568  212  -11.7 99    -11.8 0     0     1001.3   NA       0.0000   -SN      6000  360   0    
2019/07/24  02:44:00  BASE  0.59388  277  3.44568  212  -11.7 99    -11.8 0     0     1001.4   NA       0.0000   -SN      6000  430   0    
2019/07/24  02:45:00  BASE  1.01136  263  2.058    206  -11.7 99    -11.8 0     0     1001.4   NA       0.0000   -SN      9999  620   0    
2019/07/24  02:46:00  BASE  1.52292  237  2.35788  229  -11.7 99    -11.8 0     0     1001.3   NA       0.0000   -SN      9999  430   0    
2019/07/24  02:47:00  BASE  2.00508  232  2.35788  229  -11.7 99    -11.8 0     0     1001.3   NA       0.0000   -SN      9999  360   1180 
2019/07/24  02:48:00  BASE  2.07564  237  2.63424  245  -11.6 99    -11.8 0     0     1001.3   NA       0.0000   -SN      9999  390   0    
2019/07/24  02:49:00  BASE  2.38728  240  3.48096  235  -11.6 99    -11.7 0     0     1001.3   NA       0.0000   -SN      9999  390   0    
2019/07/24  02:50:00  BASE  2.72832  231  3.48096  235  -11.6 99    -11.7 0     0     1001.3   NA       0.0000   -SN      9999  360   0    
2019/07/24  02:51:00  BASE  2.56956  215  3.48096  235  -11.6 99    -11.7 0     0     1001.4   NA       0.0000   -SN      9999  390   0    
2019/07/24  02:52:00  BASE  1.764    213  3.48096  235  -11.6 99    -11.7 0     0     1001.4   NA       0.0000   -SN      9999  920   0    
2019/07/24  02:53:00  BASE  0.80556  199  3.48096  235  -11.6 99    -11.7 0     0     1001.4   NA       0.0000   -SN      9999  490   0    
2019/07/24  02:54:00  BASE  0.50568  135  3.48096  235  -11.6 99    -11.7 0     0     1001.4   NA       0.0000   -SN      9999  300   980  
2019/07/24  02:55:00  BASE  0.31752  116  3.48096  235  -11.5 99    -11.7 0     0     1001.4   NA       0.0000   -SN      9999  260   0    
2019/07/24  02:56:00  BASE  0        181  3.48096  235  -11.5 99    -11.7 0     0     1001.4   NA       0.0000   -SN      9999  0     0    
2019/07/24  02:57:00  BASE  0.4704   253  3.48096  235  -11.5 99    -11.7 0     0     1001.4   NA       0.0000   -SN      5000  0     0    
2019/07/24  02:58:00  BASE  1.15836  269  3.48096  235  -11.6 99    -11.7 0     0     1001.4   NA       0.0000   -SN      4700  0     0    
2019/07/24  02:59:00  BASE  1.62876  266  3.1164   202  -11.6 99    -11.7 0     0     1001.4   NA       0.0000   -SN      BR    4800  0    
2019/07/24  03:00:00  BASE  1.65816  268  2.99292  207  -11.6 99    -11.7 0     0     1001.4   NA       0.0000   -SN      BR    3500  0    
2019/07/24  03:01:00  BASE  1.51704  262  2.21088  267  -11.6 99    -11.7 0     0     1001.4   NA       0.0000   -SN      BR    3600  0    
2019/07/24  03:02:00  BASE  1.50528  252  2.21088  267  -11.6 99    -11.7 0     0     1001.4   NA       0.0000   -SN      BR    5000  0    
2019/07/24  03:03:00  BASE  1.44648  246  2.21088  267  -11.6 99    -11.7 0     0     1001.4   NA       0.0000   -SN      BR    4300  0    
2019/07/24  03:04:00  BASE  1.39944  245  2.21088  267  -11.6 99    -11.7 0     0     1001.4   NA       0.0000   -SN      BR    3500  0    
2019/07/24  03:05:00  BASE  1.28772  253  2.21088  267  -11.6 99    -11.7 0     0     1001.5   NA       0.0000   -SN      BR    3400  0    
2019/07/24  03:06:00  BASE  1.06428  259  2.21088  267  -11.6 99    -11.7 0     0     1001.5   NA       0.0000   -SN      BR    3400  0    
2019/07/24  03:07:00  BASE  0.81732  259  2.21088  267  -11.6 99    -11.7 0     0     1001.5   NA       0.0000   -SN      BR    3800  360  
2019/07/24  03:08:00  BASE  1.15836  250  2.26968  247  -11.6 99    -11.7 0     0     1001.5   NA       0.0000   -SN      BR    3900  330  
2019/07/24  03:09:00  BASE  1.94628  235  2.56956  221  -11.6 99    -11.7 0     0     1001.4   NA       0.0000   -SN      BR    4700  360  
2019/07/24  03:10:00  BASE  2.13444  217  2.56956  221  -11.5 99    -11.7 0     0     1001.4   NA       0.0000   -SN      BR    6000  330  
2019/07/24  03:11:00  BASE  2.24616  202  2.87532  195  -11.5 99    -11.6 0     0     1001.4   NA       0.0000   -SN      BR    4800  360  
2019/07/24  03:12:00  BASE  2.51076  196  3.087    201  -11.5 99    -11.6 0     0     1001.4   NA       0.0000   -SN      BR    3800  300  
2019/07/24  03:13:00  BASE  2.39316  202  3.087    201  -11.5 99    -11.6 0     0     1001.5   NA       0.0000   -SN      BR    3200  300  
2019/07/24  03:14:00  BASE  2.46372  208  3.087    201  -11.5 99    -11.6 0     0     1001.5   NA       0.0000   -SN      BR    3300  300  
2019/07/24  03:15:00  BASE  2.19324  208  3.087    201  -11.5 99    -11.6 0     0     1001.5   NA       0.0000   -SN      BR    3400  260  
2019/07/24  03:16:00  BASE  1.76988  210  3.087    201  -11.5 99    -11.6 0     0     1001.6   NA       0.0000   -SN      BR    3400  260  
2019/07/24  03:17:00  BASE  1.86984  216  3.087    201  -11.5 99    -11.6 0     0     1001.6   NA       0.0000   -SN      BR    3900  390  
2019/07/24  03:18:00  BASE  1.96392  216  3.087    201  -11.5 99    -11.6 0     0     1001.5   NA       0.0000   -SN      BR    6000  430  
2019/07/24  03:19:00  BASE  2.02272  208  3.087    201  -11.5 99    -11.6 0     0     1001.5   NA       0.0000   -SN      BR    9999  360  
2019/07/24  03:20:00  BASE  2.19324  205  3.087    201  -11.5 99    -11.6 0     0     1001.5   NA       0.0000   -SN      BR    9999  360  
2019/07/24  03:21:00  BASE  2.40492  204  3.087    201  -11.5 99    -11.6 0     0     1001.5   NA       0.0000   -SN      BR    8000  360  
2019/07/24  03:22:00  BASE  2.42844  200  2.93412  203  -11.5 99    -11.6 0     0     1001.5   NA       0.0000   -SN      BR    9999  1020 
2019/07/24  03:23:00  BASE  1.71108  204  2.93412  203  -11.5 99    -11.7 0     0     1001.5   NA       0.0000   -SN      BR    9999  950  
2019/07/24  03:24:00  BASE  0.61152  185  2.93412  203  -11.5 99    -11.7 0     0     1001.5   NA       0.0000   -SN      BR    9999  890  
2019/07/24  03:25:00  BASE  1.09956  173  2.96352  192  -11.5 99    -11.7 0     0     1001.4   NA       0.0000   -SN      BR    9999  750  
2019/07/24  03:26:00  BASE  2.5872   190  3.29868  196  -11.6 99    -11.7 0     0     1001.4   NA       0.0000   -SN      BR    9999  660  
2019/07/24  03:27:00  BASE  3.087    199  3.41628  208  -11.6 99    -11.7 0     0     1001.4   NA       0.0000   -SN      9999  920   0    
2019/07/24  03:28:00  BASE  2.5872   203  3.41628  208  -11.6 98    -11.8 0     0     1001.5   NA       0.0000   -SN      9999  920   0    
2019/07/24  03:29:00  BASE  1.8228   203  3.41628  208  -11.6 98    -11.8 0     0     1001.5   NA       0.0000   -SN      9999  920   0    
2019/07/24  03:30:00  BASE  1.6464   199  3.41628  208  -11.6 98    -11.9 0     0     1001.5   NA       0.0000   -SN      9999  1020  0    
2019/07/24  03:31:00  BASE  1.57584  197  3.41628  208  -11.6 98    -11.9 0     0     1001.5   NA       0.0000   9999     1050  0     0    
2019/07/24  03:32:00  BASE  0.735    168  3.41628  208  -11.6 98    -11.8 0     0     1001.5   NA       0.0000   9999     1120  0     0    
2019/07/24  03:33:00  BASE  0.0294   150  3.41628  208  -11.6 98    -11.8 0     0     1001.5   NA       0.0000   9999     1080  0     0    
2019/07/24  03:34:00  BASE  0        192  3.41628  208  -11.6 98    -11.8 0     0     1001.5   NA       0.0000   9999     1150  0     0    
2019/07/24  03:35:00  BASE  0        217  3.41628  208  -11.6 98    -11.8 0     0     1001.5   NA       0.0000   9999     1120  0     0    
2019/07/24  03:36:00  BASE  0.07056  202  3.41628  208  -11.6 98    -11.8 0     0     1001.5   NA       0.0000   9999     1150  0     0    
2019/07/24  03:37:00  BASE  0.69384  176  2.29908  197  -11.6 98    -11.8 0     0     1001.5   NA       0.0000   9999     1180  0     0    
2019/07/24  03:38:00  BASE  1.52292  167  2.29908  197  -11.6 98    -11.9 0     0     1001.5   NA       0.0000   9999     1150  0     0    
2019/07/24  03:39:00  BASE  1.97568  165  2.38728  171  -11.6 98    -11.9 0     0     1001.5   NA       0.0000   9999     1150  0     0    
2019/07/24  03:40:00  BASE  2.04624  173  2.38728  171  -11.6 98    -11.9 0     0     1001.5   NA       0.0000   9999     1180  0     0    
2019/07/24  03:41:00  BASE  1.76988  175  2.38728  171  -11.6 98    -11.9 0     0     1001.5   NA       0.0000   9999     1250  0     0    
2019/07/24  03:42:00  BASE  1.81692  186  2.42256  193  -11.6 98    -11.9 0     0     1001.5   NA       0.0000   9999     1210  0     0    
2019/07/24  03:43:00  BASE  1.7052   188  2.42256  193  -11.6 98    -11.9 0     0     1001.5   NA       0.0000   9999     1120  0     0    
2019/07/24  03:44:00  BASE  1.11132  167  2.42256  193  -11.6 98    -11.9 0     0     1001.5   NA       0.0000   9999     980   0     0    
2019/07/24  03:45:00  BASE  0.7938   156  2.42256  193  -11.6 98    -11.9 0     0     1001.5   NA       0.0000   9999     920   0     0    
2019/07/24  03:46:00  BASE  0.47628  154  2.42256  193  -11.6 98    -11.9 0     0     1001.5   NA       0.0000   9999     920   0     0    
2019/07/24  03:47:00  BASE  0.10584  162  2.42256  193  -11.6 98    -11.9 0     0     1001.6   NA       0.0000   9999     950   0     0    
2019/07/24  03:48:01  BASE  0        176  2.42256  193  -11.6 98    -11.9 0     0     1001.5   NA       0.0000   9999     950   0     0    
2019/07/24  03:49:00  BASE  0        178  2.42256  193  -11.6 97    -11.9 0     0     1001.6   NA       0.0000   9999     920   0     0    
2019/07/24  03:50:00  BASE  0        173  2.42256  193  -11.6 97    -12.0 0     0     1001.6   NA       0.0000   9999     950   0     0    
2019/07/24  03:51:00  BASE  0.29988  336  2.42256  193  -11.6 97    -12.0 0     0     1001.5   NA       0.0000   9999     1020  0     0    
2019/07/24  03:52:00  BASE  0.84084  332  1.72284  179  -11.6 97    -12.0 0     0     1001.6   NA       0.0000   9999     1020  0     0    
2019/07/24  03:53:00  BASE  0.71736  329  1.39356  317  -11.6 97    -12.0 0     0     1001.6   NA       0.0000   9999     1120  0     0    
2019/07/24  03:54:00  BASE  0.63504  322  1.39356  317  -11.6 97    -12.0 0     0     1001.6   NA       0.0000   9999     1080  0     0    
2019/07/24  03:55:00  BASE  0.78792  323  1.39356  317  -11.6 97    -12.0 0     0     1001.6   NA       0.0000   9999     1050  0     0    
2019/07/24  03:56:00  BASE  0.34104  297  1.39356  317  -11.6 97    -12.0 0     0     1001.6   NA       0.0000   9999     1080  0     0    
2019/07/24  03:57:00  BASE  0        247  1.39356  317  -11.6 97    -12.0 0     0     1001.6   NA       0.0000   9999     1180  0     0    
2019/07/24  03:58:00  BASE  0.05292  269  1.39356  317  -11.6 97    -12.0 0     0     1001.6   NA       0.0000   9999     1210  0     0    
2019/07/24  03:59:00  BASE  0.05292  295  1.39356  317  -11.6 97    -12.0 0     0     1001.6   NA       0.0000   9999     1180  0     0    
2019/07/24  04:00:00  BASE  0.18228  316  1.39356  317  -11.6 97    -12.0 0     0     1001.6   NA       0.0000   9999     1210  0     0    
2019/07/24  04:01:00  BASE  0.441    327  1.39356  317  -11.6 97    -12.0 0     0     1001.6   NA       0.0000   9999     1250  0     0    
2019/07/24  04:02:00  BASE  0.441    330  1.24068  324  -11.6 97    -12.0 0     0     M        NA       0.0000   M        1210  0     0    
2019/07/24  04:03:00  BASE  0.12936  313  1.0878   331  -11.6 97    -12.0 0     0     1001.7   NA       0.0000   9999     1210  0     0    
2019/07/24  04:04:00  BASE  0        295  1.0878   331  -11.6 97    -12.0 0     0     1001.7   NA       0.0000   9999     1180  0     0    
2019/07/24  04:05:00  BASE  0        286  1.0878   331  -11.6 97    -12.0 0     0     1001.7   NA       0.0000   9999     1150  0     0    
2019/07/24  04:06:00  BASE  0        281  1.0878   331  -11.6 97    -12.0 0     0     1001.7   NA       0.0000   9999     1120  0     0    
2019/07/24  04:07:00  BASE  0        278  1.0878   331  -11.6 97    -12.0 0     0     1001.7   NA       0.0000   9999     1120  0     0    
2019/07/24  04:08:00  BASE  0        267  1.0878   331  -11.6 97    -12.0 0     0     1001.7   NA       0.0000   9999     1120  0     0    
2019/07/24  04:09:00  BASE  0        270  1.0878   331  -11.6 97    -12.0 0     0     1001.7   NA       0.0000   9999     1180  0     0    
2019/07/24  04:10:00  BASE  0.10584  285  1.0878   331  -11.6 97    -12.0 0     0     1001.7   NA       0.0000   9999     1120  0     0    
2019/07/24  04:11:00  BASE  0.39396  287  0.84672  327  -11.6 97    -12.0 0     0     1001.7   NA       0.0000   9999     1120  0     0    
2019/07/24  04:12:00  BASE  0.42336  287  0.69384  298  -11.6 97    -12.0 0     0     1001.7   NA       0.0000   -SN      9999  1150  0    
2019/07/24  04:13:00  BASE  0.32928  277  1.1466   250  -11.6 97    -12.0 0     0     1001.7   NA       0.0000   -SN      9999  1150  0    
2019/07/24  04:14:00  BASE  0.89964  248  2.058    248  -11.6 97    -12.0 0     0     1001.7   NA       0.0000   -SN      9999  1120  0    
2019/07/24  04:15:00  BASE  1.2348   239  2.058    248  -11.6 97    -12.0 0     0     1001.7   NA       0.0000   -SN      9999  1020  0    
2019/07/24  04:16:00  BASE  1.06428  240  2.058    248  -11.6 97    -12.0 0     0     1001.8   NA       0.0000   -SN      9999  1020  0    
2019/07/24  04:17:00  BASE  0.588    231  2.058    248  -11.6 97    -11.9 0     0     1001.8   NA       0.0000   -SN      9999  1050  0    
2019/07/24  04:18:00  BASE  0.0588   206  2.058    248  -11.5 97    -11.9 0     0     1001.9   NA       0.0000   -SN      9999  1150  0    
2019/07/24  04:19:00  BASE  0.1176   181  2.058    248  -11.5 97    -11.9 0     0     1002.0   NA       0.0000   -SN      9999  1120  0    
2019/07/24  04:20:00  BASE  0.28224  155  2.058    248  -11.5 97    -11.9 0     0     1002.0   NA       0.0000   -SN      7000  1120  0    
2019/07/24  04:21:00  BASE  0.7938   121  2.058    248  -11.5 97    -11.9 0     0     1002.0   NA       0.0000   -SN      9999  1080  0    
2019/07/24  04:22:00  BASE  1.5582   108  2.1756   100  -11.5 97    -11.9 0     0     1002.0   NA       0.0000   -SN      9999  1120  0    
2019/07/24  04:23:00  BASE  1.71108  106  2.1756   100  -11.5 97    -11.9 0     0     1002.0   NA       0.0000   -SN      9999  950   0    
2019/07/24  04:24:00  BASE  1.71696  97   2.24028  72   -11.6 97    -11.9 0     0     1002.0   NA       0.0000   -SN      9999  980   0    
2019/07/24  04:25:00  BASE  2.2344   74   3.44568  56   -11.6 97    -12.0 0     0     1002.0   NA       0.0000   -SN      6000  1080  0    
2019/07/24  04:26:00  BASE  3.18696  64   4.116    64   -11.7 97    -12.1 0     0     1002.0   NA       0.0000   -SN      BR    7000  980  
2019/07/24  04:27:00  BASE  3.6162   61   4.116    64   -11.7 97    -12.1 0     0     1002.0   NA       0.0000   -SN      BR    9999  1020 
2019/07/24  04:28:00  BASE  3.31632  59   4.116    64   -11.8 97    -12.2 0     0     1002.0   NA       0.0000   -SN      BR    9999  1050 
2019/07/24  04:29:01  BASE  2.95764  68   4.116    64   -11.8 97    -12.2 0     0     1002.0   NA       0.0000   -SN      9999  1050  0    
2019/07/24  04:30:00  BASE  2.68128  71   4.116    64   -11.9 97    -12.3 0     0     1002.0   NA       0.0000   -SN      9999  950   0    
2019/07/24  04:31:00  BASE  2.7636   65   4.116    64   -11.9 97    -12.2 0     0     1002.0   NA       0.0000   -SN      9999  950   0    
2019/07/24  04:32:00  BASE  2.36376  64   4.116    64   -11.8 97    -12.2 0     0     1002.0   NA       0.0000   -SN      9999  920   0    
2019/07/24  04:33:00  BASE  1.62288  59   4.116    64   -11.8 98    -12.1 0     0     1002.0   NA       0.0000   -SN      9999  920   0    
2019/07/24  04:34:00  BASE  1.5288   53   4.116    64   -11.8 98    -12.0 0     0     1002.0   NA       0.0000   -SN      9999  1050  0    
2019/07/24  04:35:00  BASE  1.82868  51   4.116    64   -11.7 98    -11.9 0     0     1002.0   NA       0.0000   -SN      9999  1020  0    
2019/07/24  04:36:00  BASE  1.95216  62   3.69264  52   -11.7 98    -11.9 0     0     1002.0   NA       0.0000   -SN      9999  980   0    
2019/07/24  04:37:00  BASE  1.86396  66   3.62796  70   -11.6 98    -11.9 0     0     1002.1   NA       0.0000   -SN      9999  1020  0    
2019/07/24  04:38:00  BASE  1.89924  58   3.26928  59   -11.6 98    -11.9 0     0     1002.1   NA       0.0000   -SN      9999  950   0    
2019/07/24  04:39:00  BASE  2.03448  57   3.26928  59   -11.7 98    -11.9 0     0     1002.1   NA       0.0000   -SN      9999  1020  0    
2019/07/24  04:40:00  BASE  2.15796  62   3.26928  59   -11.7 99    -11.8 0     0     1002.1   NA       0.0000   -SN      9999  980   0    
2019/07/24  04:41:00  BASE  2.09916  72   2.54016  54   -11.7 99    -11.8 0     0     1002.1   NA       0.0000   -SN      9999  660   0    
2019/07/24  04:42:00  BASE  1.95216  82   2.54016  54   -11.7 99    -11.8 0     0     1002.1   NA       0.0000   -SN      9999  950   0    
2019/07/24  04:43:00  BASE  1.77576  94   2.54016  54   -11.7 99    -11.8 0     0     1002.1   NA       0.0000   -SN      9999  890   0    
2019/07/24  04:44:00  BASE  1.34064  98   2.54016  54   -11.7 99    -11.8 0     0     1002.1   NA       0.0000   9999     890   0     0    
2019/07/24  04:45:00  BASE  0.72324  99   2.54016  54   -11.7 99    -11.8 0     0     1002.0   NA       0.0000   9999     980   0     0    
2019/07/24  04:46:00  BASE  0.882    101  2.54016  54   -11.7 99    -11.9 0     0     1002.0   NA       0.0000   9999     1020  0     0    
2019/07/24  04:47:00  BASE  1.7934   96   2.54016  54   -11.7 99    -11.9 0     0     1002.0   NA       0.0000   9999     1020  0     0    
2019/07/24  04:48:00  BASE  2.43432  90   2.96352  86   -11.8 99    -11.9 0     0     1002.1   NA       0.0000   -SN      9999  920   0    
2019/07/24  04:49:00  BASE  2.63424  84   2.96352  86   -11.8 99    -11.9 0     0     1002.1   NA       0.0000   -SN      9999  890   0    
2019/07/24  04:50:00  BASE  2.74008  83   3.0576   82   -11.9 99    -12.0 0     0     1002.1   NA       0.0000   -SN      9000  950   0    
2019/07/24  04:51:00  BASE  2.79888  85   3.0576   82   -11.9 99    -12.0 0     0     1002.1   NA       0.0000   -SN      9999  1020  0    
2019/07/24  04:52:00  BASE  2.59896  79   3.0576   82   -11.9 99    -12.0 0     0     1002.2   NA       0.0000   -SN      9999  1020  0    
2019/07/24  04:53:00  BASE  2.42844  68   3.0576   82   -11.9 99    -12.0 0     0     1002.2   NA       0.0000   -SN      9999  1080  0    
2019/07/24  04:54:00  BASE  2.16972  63   3.0576   82   -11.9 99    -12.0 0     0     1002.2   NA       0.0000   -SN      9999  1080  0    
2019/07/24  04:55:00  BASE  2.19912  60   3.0576   82   -11.9 99    -12.0 0     0     1002.2   NA       0.0000   -SN      9999  1150  0    
2019/07/24  04:56:00  BASE  2.4108   56   3.0576   82   -11.8 99    -12.0 0     0     1002.1   NA       0.0000   -SN      9999  980   0    
2019/07/24  04:57:00  BASE  2.42256  51   3.0576   82   -11.8 99    -11.9 0     0     1002.1   NA       0.0000   -SN      9999  850   0    
2019/07/24  04:58:00  BASE  2.2932   41   3.0576   82   -11.8 99    -11.9 0     0     1002.1   NA       0.0000   -SN      9999  820   0    
2019/07/24  04:59:00  BASE  1.98156  39   3.0576   82   -11.8 99    -11.9 0     0     1002.1   NA       0.0000   -SN      9999  980   0    
2019/07/24  05:00:00  BASE  1.71108  55   2.99292  83   -11.8 99    -11.9 0     0     1002.1   NA       0.0000   -SN      9999  1150  0    
2019/07/24  05:01:00  BASE  1.66992  59   2.90472  40   -11.7 99    -11.9 0     0     1002.1   NA       0.0000   -SN      9999  1150  0    
2019/07/24  05:02:00  BASE  2.04036  53   2.90472  40   -11.7 99    -11.9 0     0     1002.1   NA       0.0000   -SN      9999  1050  0    
2019/07/24  05:03:00  BASE  2.34612  57   2.90472  40   -11.7 99    -11.9 0     0     1002.1   NA       0.0000   -SN      9999  1050  0    
2019/07/24  05:04:00  BASE  2.76948  61   3.75144  57   -11.7 99    -11.9 0     0     1002.1   NA       0.0000   -SN      9999  1120  0    
2019/07/24  05:05:00  BASE  3.31632  60   3.75144  57   -11.8 99    -11.9 0     0     1002.1   NA       0.0000   -SN      9999  1080  0    
2019/07/24  05:06:00  BASE  3.31044  58   3.75144  57   -11.8 99    -11.9 0     0     1002.1   NA       0.0000   9999     1080  0     0    
2019/07/24  05:07:00  BASE  3.27516  58   3.75144  57   -11.8 99    -11.9 0     0     1002.1   NA       0.0000   9999     1080  0     0    
2019/07/24  05:08:00  BASE  3.4104   57   3.75144  57   -11.8 99    -11.9 0     0     1002.1   NA       0.0000   9999     1120  0     0    
2019/07/24  05:09:00  BASE  3.33984  52   3.75144  57   -11.8 99    -11.9 0     0     1002.2   NA       0.0000   9999     1080  0     0    
2019/07/24  05:10:00  BASE  2.98704  42   3.75144  57   -11.9 99    -11.9 0     0     1002.1   NA       0.0000   9999     1150  0     0    
2019/07/24  05:11:00  BASE  2.74596  37   3.75144  57   -11.9 100   -11.9 0     0     1002.1   NA       0.0000   9999     1080  0     0    
2019/07/24  05:12:00  BASE  2.7048   40   3.75144  57   -11.9 100   -11.9 0     0     1002.1   NA       0.0000   9999     980   0     0    
2019/07/24  05:13:00  BASE  2.53428  50   3.75144  57   -11.9 100   -11.9 0     0     1002.1   NA       0.0000   9999     1080  0     0    
2019/07/24  05:14:00  BASE  2.48724  62   3.69264  58   -11.9 100   -11.9 0     0     1002.1   NA       0.0000   9999     1080  0     0    
2019/07/24  05:15:00  BASE  2.50488  63   3.56916  56   -11.9 100   -11.9 0     0     1002.1   NA       0.0000   9999     1210  0     0    
2019/07/24  05:16:00  BASE  2.84004  52   3.65736  39   -11.9 100   -11.9 0     0     1002.2   NA       0.0000   9999     1280  0     0    
2019/07/24  05:17:00  BASE  3.25752  46   3.65736  39   -11.9 100   -11.9 0     0     1002.2   NA       0.0000   9999     1280  0     0    
2019/07/24  05:18:00  BASE  3.42804  42   4.1748   39   -11.9 100   -11.9 0     0     1002.2   NA       0.0000   9999     1080  0     0    
2019/07/24  05:19:00  BASE  3.89844  36   4.65696  31   -12.0 100   -12.0 0     0     1002.2   NA       0.0000   9999     1080  0     0    
2019/07/24  05:20:00  BASE  4.01604  34   4.65696  31   -12.0 100   -12.0 0     0     1002.2   NA       0.0000   9999     980   0     0    
2019/07/24  05:21:00  BASE  4.10424  37   5.08032  41   -12.1 100   -12.1 0     0     1002.2   NA       0.0000   9999     1080  0     0    
2019/07/24  05:22:00  BASE  4.57464  39   5.2038   38   -12.1 100   -12.2 0     0     1002.2   NA       0.0000   9999     1120  0     0    
2019/07/24  05:23:00  BASE  4.63344  40   5.2038   38   -12.3 100   -12.3 0     0     1002.2   NA       0.0000   9999     1180  0     0    
2019/07/24  05:24:00  BASE  4.73928  40   5.53308  41   -12.4 100   -12.4 0     0     1002.2   NA       0.0000   9999     1210  0     0    
2019/07/24  05:25:00  BASE  4.86864  37   5.53308  41   -12.5 100   -12.5 0     0     1002.2   NA       0.0000   9999     1210  0     0    
2019/07/24  05:26:00  BASE  4.55112  36   5.53308  41   -12.6 100   -12.6 0     0     1002.2   NA       0.0000   9999     1250  0     0    
2019/07/24  05:27:00  BASE  4.13364  36   5.53308  41   -12.7 100   -12.7 0     0     1002.2   NA       0.0000   9999     1210  0     0    
2019/07/24  05:28:00  BASE  3.68088  41   5.53308  41   -12.7 100   -12.7 0     0     1002.2   NA       0.0000   9999     1080  0     0    
2019/07/24  05:29:00  BASE  3.63384  43   5.53308  41   -12.7 100   -12.7 0     0     1002.2   NA       0.0000   9999     1180  0     0    
2019/07/24  05:30:00  BASE  3.29868  46   5.53308  41   -12.7 100   -12.7 0     0     1002.2   NA       0.0000   9999     1150  0     0    
2019/07/24  05:31:00  BASE  2.93412  48   5.53308  41   -12.6 100   -12.6 0     0     1002.2   NA       0.0000   9999     980   0     0    
2019/07/24  05:32:00  BASE  2.96352  47   5.53308  41   -12.6 100   -12.6 0     0     1002.2   NA       0.0000   9999     1080  0     0    
2019/07/24  05:33:00  BASE  3.01644  47   5.53308  41   -12.5 100   -12.5 0     0     1002.2   NA       0.0000   9999     1180  0     0    
2019/07/24  05:34:00  BASE  3.51624  47   5.05092  39   -12.5 100   -12.5 0     0     1002.1   NA       0.0000   9999     1180  0     0    
2019/07/24  05:35:00  BASE  3.51036  46   4.72164  37   -12.5 100   -12.5 0     0     1002.2   NA       0.0000   9999     1080  0     0    
2019/07/24  05:36:00  BASE  2.80476  45   4.263    42   -12.5 100   -12.5 0     0     1002.2   NA       0.0000   9999     1050  0     0    
2019/07/24  05:37:00  BASE  2.56956  41   4.263    42   -12.5 100   -12.5 0     0     1002.2   NA       0.0000   9999     1120  0     0    
2019/07/24  05:38:00  BASE  2.68716  40   4.263    42   -12.5 100   -12.5 0     0     1002.2   NA       0.0000   9999     920   0     0    
2019/07/24  05:39:00  BASE  2.53428  41   4.263    42   -12.5 100   -12.5 0     0     1002.2   NA       0.0000   9999     1020  0     0    
2019/07/24  05:40:00  BASE  2.10504  41   4.263    42   -12.4 100   -12.4 0     0     1002.2   NA       0.0000   9999     1020  0     0    
2019/07/24  05:41:00  BASE  1.89336  41   4.263    42   -12.3 100   -12.3 0     0     1002.2   NA       0.0000   9999     980   0     0    
2019/07/24  05:42:00  BASE  2.00508  39   4.263    42   -12.3 100   -12.3 0     0     1002.2   NA       0.0000   9999     1120  0     0    
2019/07/24  05:43:00  BASE  2.22852  45   4.263    42   -12.2 100   -12.2 0     0     1002.2   NA       0.0000   9999     1120  0     0    
2019/07/24  05:44:00  BASE  2.22264  48   3.62796  50   -12.2 100   -12.2 0     0     1002.2   NA       0.0000   9999     1120  0     0    
2019/07/24  05:45:00  BASE  1.87572  41   2.99292  33   -12.1 100   -12.1 0     0     1002.2   NA       0.0000   9999     1020  0     0    
2019/07/24  05:46:00  BASE  1.74636  51   2.99292  33   -12.1 100   -12.1 0     0     1002.2   NA       0.0000   9999     1050  0     0    
2019/07/24  05:47:00  BASE  1.90512  67   2.96352  35   -12.2 100   -12.2 0     0     1002.2   NA       0.0000   9999     1020  0     0    
2019/07/24  05:48:00  BASE  1.94628  69   2.87532  51   -12.1 100   -12.1 0     0     1002.2   NA       0.0000   9999     1180  0     0    
2019/07/24  05:49:00  BASE  1.96392  75   2.87532  51   -12.1 100   -12.1 0     0     1002.2   NA       0.0000   9999     1150  0     0    
2019/07/24  05:50:00  BASE  2.18736  83   2.87532  51   -12.1 100   -12.1 0     0     1002.2   NA       0.0000   9999     1120  0     0    
2019/07/24  05:51:00  BASE  2.25204  84   2.87532  51   -12.2 100   -12.2 0     0     1002.2   NA       0.0000   9999     1180  0     0    
2019/07/24  05:52:00  BASE  2.09916  83   2.87532  51   -12.2 100   -12.2 0     0     1002.2   NA       0.0000   9999     1150  0     0    
2019/07/24  05:53:00  BASE  1.7934   79   2.42256  82   -12.2 100   -12.2 0     0     1002.2   NA       0.0000   9999     1120  0     0    
2019/07/24  05:54:00  BASE  1.56408  74   2.42256  82   -12.2 100   -12.2 0     0     1002.2   NA       0.0000   9999     1080  0     0    
2019/07/24  05:55:00  BASE  1.50528  86   2.42256  82   -12.1 100   -12.1 0     0     1002.2   NA       0.0000   9999     1150  0     0    
2019/07/24  05:56:00  BASE  1.94628  111  2.84592  124  -12.0 100   -12.0 0     0     1002.2   NA       0.0000   9999     1120  0     0    
2019/07/24  05:57:00  BASE  2.2344   112  2.84592  124  -12.0 100   -12.0 0     0     1002.3   NA       0.0000   9999     1150  0     0    
2019/07/24  05:58:00  BASE  1.97568  99   2.84592  124  -11.9 100   -11.9 0     0     1002.3   NA       0.0000   9999     1120  0     0    
2019/07/24  05:59:00  BASE  1.82868  96   2.84592  124  -11.9 100   -11.9 0     0     1002.3   NA       0.0000   9999     1180  0     0    
2019/07/24  06:00:00  BASE  1.71696  94   2.84592  124  -12.0 100   -12.0 0     0     1002.3   NA       0.0000   9999     1120  0     0    
2019/07/24  06:01:00  BASE  1.65228  90   2.84592  124  -12.0 100   -12.0 0     0     1002.3   NA       0.0000   9999     1150  0     0    
2019/07/24  06:02:00  BASE  1.63464  89   2.84592  124  -12.1 100   -12.1 0     0     1002.3   NA       0.0000   9999     1150  0     0    
2019/07/24  06:03:00  BASE  1.5876   88   2.84592  124  -12.0 100   -12.0 0     0     1002.3   NA       0.0000   9999     1150  0     0    
2019/07/24  06:04:00  BASE  1.33476  91   2.84592  124  -11.9 100   -11.9 0     0     1002.3   NA       0.0000   9999     1120  0     0    
2019/07/24  06:05:00  BASE  1.13484  99   2.84592  124  -11.8 100   -11.8 0     0     1002.3   NA       0.0000   9999     1150  0     0    
2019/07/24  06:06:00  BASE  1.12896  88   2.24028  110  -11.8 100   -11.8 0     0     1002.3   NA       0.0000   9999     1150  0     0    
2019/07/24  06:07:00  BASE  1.24656  71   2.0874   98   -11.7 100   -11.7 0     0     1002.3   NA       0.0000   9999     1020  0     0    
2019/07/24  06:08:00  BASE  1.35828  66   2.0286   95   -11.7 100   -11.7 0     0     1002.3   NA       0.0000   9999     1120  0     0    
2019/07/24  06:09:00  BASE  1.27596  66   1.93452  98   -11.7 100   -11.7 0     0     1002.4   NA       0.0000   9999     890   0     0    
2019/07/24  06:10:00  BASE  1.029    68   1.78752  89   -11.7 100   -11.7 0     0     1002.4   NA       0.0000   9999     1020  0     0    
2019/07/24  06:11:00  BASE  0.882    70   1.75224  82   -11.7 100   -11.7 0     0     1002.4   NA       0.0000   9999     1120  0     0    
2019/07/24  06:12:00  BASE  0.95844  72   1.75224  82   -11.7 100   -11.7 0     0     1002.3   NA       0.0000   9999     1020  0     0    
2019/07/24  06:13:00  BASE  1.05252  77   1.57584  64   -11.7 100   -11.7 0     0     1002.3   NA       0.0000   9999     1150  0     0    
2019/07/24  06:14:00  BASE  0.8232   84   1.57584  64   -11.6 100   -11.6 0     0     1002.4   NA       0.0000   9999     980   0     0    
2019/07/24  06:15:00  BASE  0.53508  84   1.57584  64   -11.6 100   -11.6 0     0     1002.5   NA       0.0000   9999     1210  0     0    
2019/07/24  06:16:00  BASE  0.24696  92   1.57584  64   -11.6 100   -11.6 0     0     1002.5   NA       0.0000   9999     1080  0     0    
2019/07/24  06:17:04  BASE  0.4116   96   1.45236  86   -11.7 100   -11.7 0     0     1002.5   NA       0.0000   9999     1020  0     0    
2019/07/24  06:18:01  BASE  1.22304  78   1.75224  66   -11.7 100   -11.7 0     0     1002.5   NA       0.0000   9999     1180  0     0    
2019/07/24  06:19:00  BASE  1.48764  67   1.75224  66   -11.8 100   -11.8 0     0     1002.5   NA       0.0000   9999     1180  0     0    
2019/07/24  06:20:00  BASE  1.39944  63   1.75224  66   -11.8 100   -11.8 0     0     1002.5   NA       0.0000   9999     1080  0     0    
2019/07/24  06:21:00  BASE  1.4994   58   1.75224  66   -11.8 100   -11.8 0     0     1002.6   NA       0.0000   9999     1080  0     0    
2019/07/24  06:22:00  BASE  1.5288   52   1.75224  47   -11.7 100   -11.7 0     0     1002.6   NA       0.0000   9999     1210  0     0    
2019/07/24  06:23:00  BASE  1.69932  52   2.1168   60   -11.7 100   -11.7 0     0     1002.6   NA       0.0000   9999     1150  0     0    
2019/07/24  06:24:00  BASE  2.05212  57   2.69304  54   -11.7 100   -11.7 0     0     1002.6   NA       0.0000   9999     1150  0     0    
2019/07/24  06:25:00  BASE  2.16972  62   2.69304  54   -11.8 100   -11.8 0     0     1002.6   NA       0.0000   9999     1150  0     0    
2019/07/24  06:26:00  BASE  2.3226   70   2.75184  65   -11.9 100   -11.9 0     0     1002.6   NA       0.0000   9999     1120  0     0    
2019/07/24  06:27:00  BASE  2.59308  70   2.90472  66   -12.0 100   -12.0 0     0     1002.7   NA       0.0000   9999     1080  0     0    
2019/07/24  06:28:01  BASE  2.66364  67   2.99292  58   -12.0 100   -12.0 0     0     1002.7   NA       0.0000   9999     1080  0     0    
2019/07/24  06:29:00  BASE  2.4696   65   2.99292  58   -12.1 100   -12.1 0     0     1002.7   NA       0.0000   9999     1120  0     0    
2019/07/24  06:30:00  BASE  2.34024  68   2.99292  58   -12.2 100   -12.2 0     0     1002.7   NA       0.0000   9999     1120  0     0    
2019/07/24  06:31:00  BASE  2.49312  71   3.087    65   -12.3 100   -12.3 0     0     1002.7   NA       0.0000   9999     1120  0     0    
2019/07/24  06:32:00  BASE  2.793    66   3.1752   70   -12.3 100   -12.3 0     0     1002.7   NA       0.0000   9999     1050  0     0    
2019/07/24  06:33:00  BASE  2.9106   66   3.1752   70   -12.4 100   -12.4 0     0     1002.8   NA       0.0000   9999     1050  0     0    
2019/07/24  06:34:00  BASE  2.81064  70   3.1752   70   -12.4 100   -12.4 0     0     1002.8   NA       0.0000   9999     1050  0     0    
2019/07/24  06:35:00  BASE  2.93412  72   3.29868  77   -12.4 100   -12.4 0     0     1002.8   NA       0.0000   9999     1080  0     0    
2019/07/24  06:36:00  BASE  3.04584  70   3.29868  77   -12.4 100   -12.4 0     0     1002.8   NA       0.0000   9999     1080  2100  0    
2019/07/24  06:37:00  BASE  2.9106   68   3.29868  68   -12.4 100   -12.4 0     0     1002.8   NA       0.0000   9999     1050  2070  0    
2019/07/24  06:38:00  BASE  2.6754   67   3.29868  68   -12.4 100   -12.4 0     0     1002.8   NA       0.0000   9999     2030  0     0    
2019/07/24  06:39:00  BASE  2.38728  68   3.29868  68   -12.4 100   -12.4 0     0     1002.8   NA       0.0000   9999     1940  0     0    
2019/07/24  06:40:00  BASE  2.06976  74   3.29868  68   -12.3 100   -12.3 0     0     1002.8   NA       0.0000   9999     1740  0     0    
2019/07/24  06:41:00  BASE  1.78752  84   3.29868  68   -12.4 100   -12.4 0     0     1002.8   NA       0.0000   9999     1740  0     0    
2019/07/24  06:42:00  BASE  1.65816  89   3.29868  68   -12.4 100   -12.4 0     0     1002.8   NA       0.0000   9999     1670  0     0    
2019/07/24  06:43:00  BASE  1.65228  88   3.29868  68   -12.4 100   -12.4 0     0     1002.8   NA       0.0000   9999     1670  0     0    
2019/07/24  06:44:01  BASE  1.76988  82   3.29868  68   -12.4 100   -12.4 0     0     1002.8   NA       0.0000   9999     1570  0     0    
2019/07/24  06:45:01  BASE  2.01684  77   3.29868  68   -12.4 100   -12.4 0     0     1002.8   NA       0.0000   9999     1670  0     0    
2019/07/24  06:46:01  BASE  2.35788  79   3.29868  68   -12.3 100   -12.3 0     0     1002.8   NA       0.0000   9999     1540  0     0    
2019/07/24  06:47:01  BASE  2.68128  79   2.87532  80   -12.4 100   -12.4 0     0     1002.7   NA       0.0000   9999     1440  0     0    
2019/07/24  06:48:01  BASE  2.68716  81   2.87532  82   -12.5 100   -12.5 0     0     1002.7   NA       0.0000   9999     1410  0     0    
2019/07/24  06:49:01  BASE  2.60484  84   2.87532  82   -12.5 100   -12.5 0     0     1002.7   NA       0.0000   9999     1310  0     0    
2019/07/24  06:50:00  BASE  2.6754   82   2.87532  82   -12.6 100   -12.6 0     0     1002.7   NA       0.0000   9999     1440  0     0    
2019/07/24  06:51:01  BASE  2.71656  78   2.90472  85   -12.6 100   -12.6 0     0     1002.7   NA       0.0000   9999     1480  0     0    
2019/07/24  06:52:01  BASE  2.80476  74   3.1164   73   -12.6 100   -12.6 0     0     1002.7   NA       0.0000   9999     1440  0     0    
2019/07/24  06:53:00  BASE  3.00468  71   3.26928  71   -12.5 100   -12.5 0     0     1002.7   NA       0.0000   9999     1350  0     0    
2019/07/24  06:54:00  BASE  2.88708  70   3.26928  71   -12.4 100   -12.4 0     0     1002.7   NA       0.0000   9999     1310  0     0    
2019/07/24  06:55:00  BASE  2.64012  72   3.26928  71   -12.3 100   -12.3 0     0     1002.7   NA       0.0000   9999     1440  0     0    
2019/07/24  06:56:00  BASE  2.64012  75   3.26928  71   -12.2 100   -12.2 0     0     1002.7   NA       0.0000   9999     1480  0     0    
2019/07/24  06:57:00  BASE  2.7636   77   3.26928  71   -12.1 100   -12.1 0     0     1002.8   NA       0.0000   9999     920   0     0    
2019/07/24  06:58:00  BASE  2.8518   80   3.26928  71   -12.0 100   -12.0 0     0     1002.8   NA       0.0000   9999     820   0     0    
2019/07/24  06:59:00  BASE  2.81064  81   3.26928  71   -12.0 100   -12.0 0     0     1002.8   NA       0.0000   9999     660   0     0    
2019/07/24  07:00:00  BASE  2.89884  79   3.26928  71   -12.0 100   -12.0 0     0     1002.8   NA       0.0000   9999     620   0     0    
2019/07/24  07:01:00  BASE  2.96352  80   3.26928  71   -12.0 100   -12.0 0     0     1002.8   NA       0.0000   9999     590   1250  0    
2019/07/24  07:02:00  BASE  2.87532  81   3.26928  71   -12.0 100   -12.0 0     0     1002.8   NA       0.0000   9999     560   1350  0    
2019/07/24  07:03:00  BASE  2.646    81   3.2046   67   -12.1 100   -12.1 0     0     1002.8   NA       0.0000   9999     490   0     0    
2019/07/24  07:04:00  BASE  2.50488  83   3.1458   81   -12.2 100   -12.2 0     0     1002.8   NA       0.0000   9999     460   1210  0    
2019/07/24  07:05:00  BASE  2.76948  90   3.1458   81   -12.2 100   -12.2 0     0     1002.8   NA       0.0000   9999     490   0     0    
2019/07/24  07:06:00  BASE  2.99292  100  3.35748  105  -12.3 100   -12.3 0     0     1002.8   NA       0.0000   9999     430   1120  0    
2019/07/24  07:07:00  BASE  2.81652  106  3.35748  105  -12.4 100   -12.4 0     0     1002.8   NA       0.0000   9000     360   0     0    
2019/07/24  07:08:00  BASE  2.71656  102  3.35748  105  -12.6 100   -12.6 0     0     1002.8   NA       0.0000   -SN      5000  360   0    
2019/07/24  07:09:00  BASE  3.0282   91   3.62796  85   -12.6 99    -12.7 0     0     1002.8   NA       0.0000   -SN      BR    4100  330  
2019/07/24  07:10:00  BASE  3.16344  84   3.62796  85   -12.7 99    -12.8 0     0     1002.8   NA       0.0000   -SN      BR    4200  260  
2019/07/24  07:11:00  BASE  2.83416  82   3.62796  85   -12.7 99    -12.9 0     0     1002.8   NA       0.0000   -SN      BR    3500  0    
2019/07/24  07:12:00  BASE  2.22852  87   3.62796  85   -12.6 99    -12.7 0     0     1002.8   NA       0.0000   -SN      BR    3000  0    
2019/07/24  07:13:00  BASE  1.69932  91   3.62796  85   -12.4 99    -12.5 0     0     1002.7   NA       0.0000   -SN      BR    2800  300  
2019/07/24  07:14:00  BASE  1.56408  97   3.62796  85   -12.2 99    -12.4 0     0     1002.7   NA       0.0000   -SN      BR    2700  330  
2019/07/24  07:15:00  BASE  1.66404  97   3.62796  85   -12.1 99    -12.3 0     0     1002.7   NA       0.0000   -SN      BR    2000  330  
2019/07/24  07:16:01  BASE  2.24028  93   3.62796  85   -12.1 98    -12.4 0     0     1002.8   NA       0.0000   -SN      BR    1800  0    
2019/07/24  07:17:00  BASE  2.95176  94   3.62796  85   -12.2 98    -12.4 0     0     1002.7   NA       0.0000   -SN      BR    2100  300  
2019/07/24  07:18:00  BASE  3.12816  98   3.62796  85   -12.2 98    -12.4 0     0     1002.7   NA       0.0000   -SN      BR    1600  330  
2019/07/24  07:19:00  BASE  2.793    104  3.59856  96   -12.1 98    -12.4 0     0     1002.7   NA       0.0000   -SN      BR    1800  390  
2019/07/24  07:20:00  BASE  2.16384  110  3.59856  96   -12.0 98    -12.3 0     0     1002.7   NA       0.0000   -SN      BR    3200  360  
2019/07/24  07:21:00  BASE  1.75812  114  3.59856  96   -11.9 98    -12.1 0     0     1002.7   NA       0.0000   -SN      BR    2700  260  
2019/07/24  07:22:00  BASE  1.62876  117  3.59856  96   -11.8 98    -12.0 0     0     1002.7   NA       0.0000   -SN      BR    1800  0    
2019/07/24  07:23:00  BASE  1.66404  114  3.59856  96   -11.7 98    -11.9 0     0     1002.8   NA       0.0000   -SN      BR    1500  0    
2019/07/24  07:24:00  BASE  1.69344  113  3.59856  96   -11.6 98    -11.9 0     0     1002.7   NA       0.0000   -SN      BR    1800  300  
2019/07/24  07:25:00  BASE  1.48764  120  3.59856  96   -11.5 98    -11.8 0     0     1002.7   NA       0.0000   -SN      BR    2200  0    
2019/07/24  07:26:00  BASE  1.28772  124  3.59856  96   -11.5 98    -11.7 0     0     1002.7   NA       0.0000   -SN      BR    2300  330  
2019/07/24  07:27:00  BASE  1.18776  127  3.53976  98   -11.4 98    -11.7 0     0     1002.7   NA       0.0000   -SN      BR    2500  330  
2019/07/24  07:28:00  BASE  1.06428  133  2.78124  107  -11.3 98    -11.6 0     0     1002.7   NA       0.0000   -SN      BR    3100  360  
2019/07/24  07:29:00  BASE  1.00548  143  2.21088  108  -11.2 98    -11.5 0     0     1002.7   NA       0.0000   -SN      BR    3700  360  
2019/07/24  07:30:00  BASE  0.92904  154  1.96392  104  -11.1 98    -11.4 0     0     1002.7   NA       0.0000   -SN      BR    3300  330  
2019/07/24  07:31:00  BASE  0.81732  160  1.96392  104  -11.1 98    -11.3 0     0     1002.7   NA       0.0000   -SN      BR    2900  330  
2019/07/24  07:32:00  BASE  0.66444  164  1.96392  104  -11.0 98    -11.3 0     0     1002.7   NA       0.0000   -SN      BR    3000  330  
2019/07/24  07:33:00  BASE  0.48216  162  1.93452  104  -11.0 98    -11.2 0     0     1002.7   NA       0.0000   -SN      BR    3300  330  
2019/07/24  07:34:00  BASE  0.30576  158  1.57584  121  -10.9 98    -11.2 0     0     1002.7   NA       0.0000   -SN      BR    3400  300  
2019/07/24  07:35:00  BASE  0.12936  147  1.32888  123  -10.9 98    -11.2 0     0     1002.7   NA       0.0000   -SN      BR    2800  230  
2019/07/24  07:36:00  BASE  0.02352  134  1.21128  129  -10.9 98    -11.2 0     0     1002.8   NA       0.0000   -SN      BR    2500  230  
2019/07/24  07:37:00  BASE  0        124  1.0584   159  -10.9 98    -11.2 0     0     1002.8   NA       0.0000   -SN      BR    1900  0    
2019/07/24  07:38:00  BASE  0        116  1.0584   159  -10.9 98    -11.1 0     0     1002.8   NA       0.0000   -SN      BR    1700  0    
2019/07/24  07:39:00  BASE  0        113  0.9702   156  -10.9 98    -11.1 0     0     1002.8   NA       0.0000   -SN      BR    2200  330  
2019/07/24  07:40:00  BASE  0        114  0.87612  163  -10.8 98    -11.1 0     0     1002.8   NA       0.0000   -SN      BR    2500  260  
2019/07/24  07:41:00  BASE  0        114  0.84672  161  -10.8 98    -11.1 0     0     1002.8   NA       0.0000   -SN      BR    2100  260  
2019/07/24  07:42:00  BASE  0        113  0.63504  160  -10.8 98    -11.0 0     0     1002.9   NA       0.0000   -SN      BR    2000  300  
2019/07/24  07:43:00  BASE  0.10584  112  0.63504  111  -10.8 98    -11.0 0     0     1002.9   NA       0.0000   -SN      BR    2400  260  
2019/07/24  07:44:00  BASE  0.35868  107  0.72324  103  -10.8 99    -11.0 0     0     1002.9   NA       0.0000   -SN      BR    2600  300  
2019/07/24  07:45:00  BASE  0.49392  88   0.75852  81   -10.8 99    -11.0 0     0     1002.9   NA       0.0000   -SN      BR    2900  300  
2019/07/24  07:46:00  BASE  0.4998   66   0.81732  53   -10.8 99    -10.9 0     0     1002.9   NA       0.0000   -SN      BR    2600  300  
2019/07/24  07:47:00  BASE  0.69384  52   1.18188  43   -10.8 99    -10.9 0     0     1002.9   NA       0.0000   -SN      BR    2800  300  
2019/07/24  07:48:01  BASE  0.88788  40   1.18188  43   -10.8 99    -10.9 0     0     1003.0   NA       0.0000   -SN      BR    2300  260  
2019/07/24  07:49:00  BASE  1.03488  41   1.29948  50   -10.8 99    -10.9 0     0     1003.0   NA       0.0000   -SN      BR    2200  230  
2019/07/24  07:50:00  BASE  1.17012  49   1.45236  56   -10.8 99    -11.0 0     0     1003.0   NA       0.0000   -SN      BR    2800  0    
2019/07/24  07:51:00  BASE  1.27008  53   1.48176  53   -10.9 99    -11.0 0     0     1003.0   NA       0.0000   -SN      BR    2500  0    
2019/07/24  07:52:01  BASE  1.32888  59   1.48176  53   -10.9 99    -11.0 0     0     1003.0   NA       0.0000   -SN      BR    1600  0    
2019/07/24  07:53:01  BASE  1.16424  74   1.48176  53   -10.9 100   -10.9 0     0     1003.0   NA       0.0000   -SN      BR    1200  0    
2019/07/24  07:54:00  BASE  1.15836  94   1.48176  53   -10.9 100   -10.9 0     0     1003.1   NA       0.0000   -SN      BR    1200  0    
2019/07/24  07:55:00  BASE  1.43472  111  1.66404  118  -10.9 100   -10.9 0     0     1003.1   NA       0.0000   -SN      BR    1100  0    
2019/07/24  07:56:00  BASE  1.60524  116  1.75224  117  -11.0 100   -11.0 0     0     1003.2   NA       0.0000   -SN      BR    1100  0    
2019/07/24  07:57:00  BASE  1.57584  108  1.75224  117  -11.0 100   -11.0 0     0     1003.2   NA       0.0000   -SN      BR    1500  0    
2019/07/24  07:58:00  BASE  1.54056  103  1.75224  117  -11.0 100   -11.0 0     0     1003.2   NA       0.0000   -SN      BR    2300  260  
2019/07/24  07:59:00  BASE  1.52292  105  1.75224  117  -11.0 100   -11.0 0     0     1003.2   NA       0.0000   -SN      BR    1900  0    
2019/07/24  08:00:00  BASE  1.54056  108  1.84632  119  -11.0 100   -11.0 0     0     1003.2   NA       0.0000   -SN      BR    1800  260  
2019/07/24  08:01:00  BASE  1.54644  112  1.84632  119  -10.9 100   -10.9 0     0     1003.2   NA       0.0000   -SN      BR    2000  300  
2019/07/24  08:02:00  BASE  1.54644  107  1.84632  119  -10.9 100   -10.9 0     0     1003.3   NA       0.0000   -SN      BR    2100  330  
2019/07/24  08:03:00  BASE  1.61112  99   2.1462   95   -10.8 100   -10.8 0     0     1003.3   NA       0.0000   -SN      BR    2200  300  
2019/07/24  08:04:00  BASE  1.9698   89   2.48136  70   -10.8 100   -10.8 0     0     1003.3   NA       0.0000   -SN      BR    2200  0    
2019/07/24  08:05:00  BASE  2.4402   82   3.02232  83   -10.9 100   -10.9 0     0     1003.3   NA       0.0000   -SN      BR    1900  0    
2019/07/24  08:06:00  BASE  3.1164   88   3.86904  96   -10.9 100   -10.9 0     0     1003.3   NA       0.0000   -SN      BR    2000  330  
2019/07/24  08:07:00  BASE  3.55152  96   3.86904  96   -10.9 100   -10.9 0     0     1003.3   NA       0.0000   -SN      BR    2200  300  
2019/07/24  08:08:00  BASE  3.55152  96   4.263    93   -10.9 100   -10.9 0     0     1003.3   NA       0.0000   -SN      BR    2100  300  
2019/07/24  08:09:00  BASE  3.8808   94   4.32768  99   -11.0 100   -11.0 0     0     1003.3   NA       0.0000   -SN      BR    2900  330  
2019/07/24  08:10:00  BASE  3.969    101  4.56876  102  -11.0 100   -11.0 0     0     1003.3   NA       0.0000   -SN      BR    3200  330  
2019/07/24  08:11:00  BASE  3.69264  107  4.56876  102  -11.0 100   -11.0 0     0     1003.3   NA       0.0000   -SN      BR    3700  360  
2019/07/24  08:12:01  BASE  3.56328  108  4.56876  102  -11.0 100   -11.0 0     0     1003.3   NA       0.0000   -SN      BR    7000  360  
2019/07/24  08:13:00  BASE  3.59268  109  4.56876  102  -11.0 100   -11.0 0     0     1003.2   NA       0.0000   -SN      BR    7000  330  
2019/07/24  08:14:00  BASE  3.6456   105  4.56876  102  -11.0 100   -11.0 0     0     1003.2   NA       0.0000   -SN      BR    5000  360  
2019/07/24  08:15:00  BASE  4.10424  102  4.93332  106  -11.0 100   -11.0 0     0     1003.2   NA       0.0000   -SN      BR    5000  390  
2019/07/24  08:16:00  BASE  4.53348  106  4.93332  106  -11.0 99    -11.1 0     0     1003.2   NA       0.0000   -SN      BR    4600  390  
2019/07/24  08:17:00  BASE  4.94508  109  6.02112  106  -11.0 99    -11.2 0     0     1003.1   NA       0.0000   -SN      BR    4200  360  
2019/07/24  08:18:00  BASE  5.3802   109  6.02112  106  -11.0 98    -11.2 0     0     1003.0   NA       0.0000   -SN      BR    3500  330  
2019/07/24  08:19:00  BASE  5.33316  110  6.02112  106  -11.0 97    -11.3 0     0     1003.0   NA       0.0000   -SN      BR    3300  720  
2019/07/24  08:20:00  BASE  5.12736  112  6.02112  106  -11.0 97    -11.5 0     0     1003.0   NA       0.0000   -SN      BR    3500  390  
2019/07/24  08:21:00  BASE  4.851    114  6.02112  106  -11.0 96    -11.5 0     0     1003.0   NA       0.0000   -SN      BR    4100  790  
2019/07/24  08:22:00  BASE  4.7922   110  6.02112  106  -11.0 95    -11.6 0     0     1003.0   NA       0.0000   -SN      BR    4400  590  
2019/07/24  08:23:00  BASE  4.55112  110  6.02112  106  -11.0 95    -11.7 0     0     1003.1   NA       0.0000   -SN      BR    3600  620  
2019/07/24  08:24:00  BASE  4.16892  110  6.02112  106  -11.0 94    -11.8 0     0     1003.0   NA       0.0000   -SN      BR    3100  1120 
2019/07/24  08:25:00  BASE  4.63932  105  6.02112  106  -11.0 93    -11.9 0     0     1003.0   NA       0.0000   -SN      BR    3500  920  
2019/07/24  08:26:00  BASE  4.89216  102  6.02112  106  -11.1 93    -12.0 0     0     1003.0   NA       0.0000   -SN      BR    6000  790  
2019/07/24  08:27:00  BASE  4.66872  104  5.59776  110  -11.2 92    -12.2 0     0     1003.0   NA       0.0000   -SN      BR    9000  890  
2019/07/24  08:28:00  BASE  4.97448  103  5.53308  111  -11.2 92    -12.3 0     0     1003.1   NA       0.0000   -SN      BR    6000  390  
2019/07/24  08:29:00  BASE  4.80396  103  5.41548  100  -11.3 91    -12.4 0     0     1003.2   NA       0.0000   -SN      BR    6000  360  
2019/07/24  08:30:00  BASE  4.36884  107  5.41548  100  -11.3 91    -12.5 0     0     1003.2   NA       0.0000   -SN      BR    9000  430  
2019/07/24  08:31:00  BASE  4.41588  108  5.41548  100  -11.4 91    -12.6 0     0     1003.2   NA       0.0000   -SN      BR    9999  520  
2019/07/24  08:32:00  BASE  4.3512   107  5.41548  100  -11.4 90    -12.7 0     0     1003.3   NA       0.0000   -SN      BR    9999  590  
2019/07/24  08:33:00  BASE  4.12776  110  5.41548  100  -11.4 90    -12.7 0     0     1003.3   NA       0.0000   -SN      BR    9999  950  
2019/07/24  08:34:00  BASE  3.8808   113  5.41548  100  -11.4 90    -12.8 0     0     1003.3   NA       0.0000   -SN      BR    9999  690  
2019/07/24  08:35:00  BASE  3.675    112  5.41548  100  -11.4 89    -12.8 0     0     1003.4   NA       0.0000   -SN      BR    9999  890  
2019/07/24  08:36:00  BASE  3.6162   112  5.41548  100  -11.3 89    -12.8 0     0     1003.4   NA       0.0000   -SN      BR    9999  920  
2019/07/24  08:37:00  BASE  3.675    109  5.41548  100  -11.2 88    -12.8 0     0     1003.3   NA       0.0000   -SN      9999  750   0    
2019/07/24  08:38:00  BASE  3.75144  106  4.96272  101  -11.2 88    -12.9 0     0     1003.3   NA       0.0000   -SN      9999  720   0    
2019/07/24  08:39:00  BASE  3.93372  107  4.96272  101  -11.2 87    -13.0 0     0     1003.3   NA       0.0000   -SN      9999  660   0    
2019/07/24  08:40:00  BASE  3.7338   111  4.96272  101  -11.2 87    -13.0 0     0     1003.3   NA       0.0000   -SN      9999  620   0    
2019/07/24  08:41:00  BASE  3.4398   112  4.65696  100  -11.3 86    -13.1 0     0     1003.4   NA       0.0000   -SN      9999  690   0    
2019/07/24  08:42:00  BASE  3.675    101  4.62756  102  -11.3 85    -13.3 0     0     1003.4   NA       0.0000   -SN      9999  750   0    
2019/07/24  08:43:00  BASE  3.675    98   4.62756  102  -11.3 85    -13.4 0     0     1003.4   NA       0.0000   -SN      9999  690   0    
2019/07/24  08:44:00  BASE  3.57504  101  4.62756  102  -11.4 84    -13.5 0     0     1003.3   NA       0.0000   -SN      9999  750   0    
2019/07/24  08:45:00  BASE  3.68088  99   4.62756  102  -11.4 84    -13.7 0     0     1003.3   NA       0.0000   -SN      9999  950   0    
2019/07/24  08:46:00  BASE  3.80436  97   4.62756  102  -11.5 83    -13.8 0     0     1003.3   NA       0.0000   -SN      9999  1150  1640 
2019/07/24  08:47:00  BASE  3.7044   92   4.62756  102  -11.4 83    -13.8 0     0     1003.3   NA       0.0000   -SN      9999  0     0    
2019/07/24  08:48:00  BASE  3.55152  88   4.62756  102  -11.4 82    -13.9 0     0     1003.3   NA       0.0000   -SN      9999  1540  0    
2019/07/24  08:49:00  BASE  3.75732  92   4.62756  107  -11.5 82    -13.9 0     0     1003.4   NA       0.0000   -SN      9999  1210  0    
2019/07/24  08:50:00  BASE  3.84552  99   4.65696  104  -11.4 82    -13.9 0     0     1003.4   NA       0.0000   -SN      9999  1210  1740 
2019/07/24  08:51:00  BASE  3.77496  100  4.65696  104  -11.3 81    -13.9 0     0     1003.4   NA       0.0000   9999     1800  0     0    
2019/07/24  08:52:00  BASE  3.51624  97   4.65696  104  -11.2 81    -13.9 0     0     1003.4   NA       0.0000   9999     2000  0     0    
2019/07/24  08:53:00  BASE  3.19284  93   4.65696  104  -11.1 81    -13.8 0     0     1003.4   NA       0.0000   9999     1870  0     0    
2019/07/24  08:54:00  BASE  3.45744  89   4.65696  104  -11.1 80    -13.8 0     0     1003.4   NA       0.0000   9999     1800  0     0    
2019/07/24  08:55:00  BASE  3.95136  92   4.65696  104  -11.1 80    -13.9 0     0     1003.4   NA       0.0000   9999     1510  0     0    
2019/07/24  08:56:00  BASE  4.21008  97   4.65696  104  -11.0 80    -13.8 0     0     1003.4   NA       0.0000   9999     1280  0     0    
2019/07/24  08:57:00  BASE  4.3806   99   4.68636  100  -11.0 79    -13.9 0     0     1003.4   NA       0.0000   9999     1310  0     0    
2019/07/24  08:58:00  BASE  4.5276   100  4.68636  100  -11.0 79    -13.9 0     0     1003.4   NA       0.0000   9999     1350  0     0    
2019/07/24  08:59:00  BASE  4.5864   101  4.75104  102  -11.0 79    -13.9 0     0     1003.4   NA       0.0000   9999     1350  0     0    
2019/07/24  09:00:00  BASE  4.60404  100  4.75104  102  -11.0 79    -13.9 0     0     1003.4   NA       0.0000   9999     1210  0     0    
2019/07/24  09:01:00  BASE  4.70988  98   4.99212  98   -11.1 79    -14.1 0     0     1003.4   NA       0.0000   9999     1080  0     0    
2019/07/24  09:02:00  BASE  4.94508  98   5.292    99   -11.3 79    -14.2 0     0     1003.3   NA       0.0000   9999     1250  0     0    
2019/07/24  09:03:00  BASE  5.0862   99   5.292    99   -11.4 79    -14.3 0     0     1003.4   NA       0.0000   9999     1280  0     0    
2019/07/24  09:04:00  BASE  5.00976  98   5.292    99   -11.5 79    -14.4 0     0     1003.4   NA       0.0000   9999     1250  0     0    
2019/07/24  09:05:00  BASE  4.93332  100  5.292    99   -11.6 80    -14.4 0     0     1003.4   NA       0.0000   9999     1480  0     0    
2019/07/24  09:06:00  BASE  5.00976  98   5.38608  93   -11.7 80    -14.4 0     0     1003.4   NA       0.0000   9999     2100  0     0    
2019/07/24  09:07:00  BASE  5.02152  95   5.38608  93   -11.6 80    -14.3 0     0     1003.4   NA       0.0000   9999     0     0     0    
2019/07/24  09:08:00  BASE  5.06856  98   5.38608  93   -11.6 81    -14.3 0     0     1003.4   NA       0.0000   9999     0     0     0    
2019/07/24  09:09:00  BASE  5.24496  102  5.38608  103  -11.6 81    -14.2 0     0     1003.4   NA       0.0000   9999     0     0     0    
2019/07/24  09:10:00  BASE  5.25672  104  5.41548  105  -11.5 81    -14.1 0     0     1003.4   NA       0.0000   9999     1610  0     0    
2019/07/24  09:11:00  BASE  5.0862   103  5.41548  105  -11.4 81    -14.0 0     0     1003.4   NA       0.0000   9999     1800  2490  0    
2019/07/24  09:12:00  BASE  4.92744  101  5.41548  105  -11.4 81    -13.9 0     0     1003.4   NA       0.0000   9999     1710  0     0    
2019/07/24  09:13:00  BASE  4.92744  102  5.41548  105  -11.4 81    -14.0 0     0     1003.4   NA       0.0000   9999     1610  0     0    
2019/07/24  09:14:00  BASE  4.90392  104  5.41548  105  -11.4 81    -14.0 0     0     1003.4   NA       0.0000   9999     1410  0     0    
2019/07/24  09:15:00  BASE  4.65108  107  5.41548  105  -11.4 81    -14.0 0     0     1003.4   NA       0.0000   9999     1640  0     0    
2019/07/24  09:16:00  BASE  4.42764  109  5.41548  105  -11.5 81    -14.0 0     0     1003.4   NA       0.0000   9999     1510  2200  0    
2019/07/24  09:17:00  BASE  4.2924   109  5.41548  105  -11.4 82    -14.0 0     0     1003.4   NA       0.0000   9999     1440  2990  0    
2019/07/24  09:18:00  BASE  4.23948  111  5.41548  105  -11.4 82    -13.9 0     0     1003.5   NA       0.0000   9999     1440  0     0    
2019/07/24  09:19:00  BASE  4.22184  114  5.41548  105  -11.3 82    -13.7 0     0     1003.5   NA       0.0000   9999     1380  0     0    
2019/07/24  09:20:00  BASE  4.22772  116  5.145    102  -11.2 82    -13.6 0     0     1003.4   NA       0.0000   9999     1380  2300  0    
2019/07/24  09:21:00  BASE  4.16892  117  5.08032  106  -11.1 82    -13.5 0     0     1003.4   NA       0.0000   9999     1380  0     0    
2019/07/24  09:22:00  BASE  4.10424  116  5.08032  106  -11.1 83    -13.4 0     0     1003.4   NA       0.0000   9999     1350  0     0    
2019/07/24  09:23:00  BASE  4.19244  118  4.93332  105  -10.9 83    -13.3 0     0     1003.4   NA       0.0000   9999     1440  0     0    
2019/07/24  09:24:00  BASE  4.04544  118  4.62756  108  -10.8 84    -13.0 0     0     1003.4   NA       0.0000   9999     1280  0     0    
2019/07/24  09:25:00  BASE  3.93372  116  4.53936  114  -10.7 84    -12.9 0     0     1003.4   NA       0.0000   9999     1280  2300  0    
2019/07/24  09:26:00  BASE  4.18068  115  4.50996  113  -10.6 84    -12.7 0     0     1003.4   NA       0.0000   9999     1350  0     0    
2019/07/24  09:27:00  BASE  4.2042   115  4.50996  113  -10.5 85    -12.6 0     0     1003.4   NA       0.0000   9999     1310  0     0    
2019/07/24  09:28:00  BASE  4.03368  117  4.50996  113  -10.5 85    -12.5 0     0     1003.4   NA       0.0000   9999     1250  0     0    
2019/07/24  09:29:00  BASE  4.116    118  4.59816  116  -10.5 86    -12.4 0     0     1003.4   NA       0.0000   9999     1280  0     0    
2019/07/24  09:30:00  BASE  4.27476  118  4.62756  117  -10.4 86    -12.3 0     0     1003.4   NA       0.0000   9999     1250  0     0    
2019/07/24  09:31:00  BASE  4.21596  120  4.62756  117  -10.3 86    -12.2 0     0     1003.4   NA       0.0000   9999     1150  0     0    
2019/07/24  09:32:00  BASE  4.0278   121  4.62756  117  -10.2 86    -12.0 0     0     1003.4   NA       0.0000   9999     1020  0     0    
2019/07/24  09:33:00  BASE  3.86904  120  4.62756  117  -10.1 86    -11.9 0     0     1003.4   NA       0.0000   9999     1380  0     0    
2019/07/24  09:34:00  BASE  3.71616  118  4.62756  117  -10.0 86    -11.9 0     0     1003.4   NA       0.0000   9999     1350  0     0    
2019/07/24  09:35:00  BASE  3.77496  118  4.62756  117  -10.0 86    -11.9 0     0     1003.4   NA       0.0000   9999     1310  2130  0    
2019/07/24  09:36:00  BASE  3.97488  121  4.62756  117  -9.9  85    -11.9 0     0     1003.4   NA       0.0000   9999     1210  0     0    
2019/07/24  09:37:00  BASE  3.95136  121  4.62756  117  -9.9  85    -12.0 0     0     1003.4   NA       0.0000   9999     1020  0     0    
2019/07/24  09:38:00  BASE  3.87492  116  4.62756  117  -9.9  85    -12.0 0     0     1003.4   NA       0.0000   9999     1050  0     0    
2019/07/24  09:39:00  BASE  3.79848  110  4.62756  117  -9.9  84    -12.1 0     0     1003.5   NA       0.0000   9999     1310  2490  0    
2019/07/24  09:40:00  BASE  3.83964  108  4.38648  125  -10.0 84    -12.2 0     0     1003.5   NA       0.0000   9999     1350  0     0    
2019/07/24  09:41:00  BASE  4.0278   108  4.38648  125  -10.1 83    -12.5 0     0     1003.5   NA       0.0000   9999     1150  0     0    
2019/07/24  09:42:00  BASE  4.0572   109  4.38648  125  -10.3 83    -12.7 0     0     1003.5   NA       0.0000   9999     850   2070  0    
2019/07/24  09:43:00  BASE  3.82788  113  4.38648  125  -10.4 82    -12.8 0     0     1003.5   NA       0.0000   9999     750   0     0    
2019/07/24  09:44:00  BASE  3.36924  118  4.38648  125  -10.4 83    -12.8 0     0     1003.5   NA       0.0000   9999     620   0     0    
2019/07/24  09:45:00  BASE  3.05172  116  4.29828  108  -10.3 83    -12.6 0     0     1003.5   NA       0.0000   9999     1120  1970  0    
2019/07/24  09:46:00  BASE  3.4692   118  4.29828  108  -10.1 83    -12.4 0     0     1003.5   NA       0.0000   9999     820   0     0    
2019/07/24  09:47:00  BASE  3.81612  124  4.29828  108  -9.9  83    -12.2 0     0     1003.5   NA       0.0000   9999     890   0     0    
2019/07/24  09:48:00  BASE  3.2634   114  4.29828  108  -9.7  83    -12.1 0     0     1003.6   NA       0.0000   9999     1120  0     0    
2019/07/24  09:49:00  BASE  2.77536  104  4.29828  108  -9.7  83    -12.1 0     0     1003.6   NA       0.0000   9999     1210  0     0    
2019/07/24  09:50:00  BASE  2.98116  105  4.29828  108  -9.7  82    -12.2 0     0     1003.6   NA       0.0000   9999     1210  2170  0    
2019/07/24  09:51:00  BASE  3.49272  103  4.1454   122  -9.8  82    -12.3 0     0     1003.6   NA       0.0000   9999     1120  2170  0    
2019/07/24  09:52:00  BASE  3.83964  94   4.1454   122  -9.8  82    -12.4 0     0     1003.6   NA       0.0000   9999     1180  0     0    
2019/07/24  09:53:00  BASE  3.9396   93   4.1454   122  -10.0 81    -12.6 0     0     1003.6   NA       0.0000   9999     1250  0     0    
2019/07/24  09:54:00  BASE  3.68676  104  4.1454   122  -10.1 81    -12.7 0     0     1003.6   NA       0.0000   9999     980   0     0    
2019/07/24  09:55:00  BASE  3.2928   110  4.1454   122  -10.0 81    -12.6 0     0     1003.6   NA       0.0000   9999     920   0     0    
2019/07/24  09:56:00  BASE  3.1164   101  4.116    89   -10.0 81    -12.6 0     0     1003.6   NA       0.0000   9999     950   0     0    
2019/07/24  09:57:00  BASE  3.3222   94   4.116    89   -10.0 81    -12.6 0     0     1003.5   NA       0.0000   9999     1020  0     0    
2019/07/24  09:58:00  BASE  3.42216  97   4.116    89   -9.9  81    -12.5 0     0     1003.5   NA       0.0000   9999     1050  0     0    
2019/07/24  09:59:00  BASE  3.33396  104  4.116    89   -9.8  81    -12.5 0     0     1003.5   NA       0.0000   9999     890   0     0    
2019/07/24  10:00:01  BASE  3.33396  111  4.116    89   -9.9  81    -12.6 0     0     1003.5   NA       0.0000   9999     1180  0     0    
2019/07/24  10:01:00  BASE  3.05172  114  4.116    89   -9.9  80    -12.6 0     0     1003.5   NA       0.0000   9999     1050  0     0    
2019/07/24  10:02:00  BASE  2.94     116  4.05132  94   -9.9  80    -12.7 0     0     1003.5   NA       0.0000   9999     1080  0     0    
2019/07/24  10:03:00  BASE  3.06348  118  3.93372  105  -9.9  80    -12.7 0     0     1003.5   NA       0.0000   9999     1640  0     0    
2019/07/24  10:04:00  BASE  3.21636  120  3.65736  98   -9.9  80    -12.6 0     0     1003.5   NA       0.0000   9999     1280  0     0    
2019/07/24  10:05:00  BASE  3.16344  119  3.65736  98   -9.8  81    -12.5 0     0     1003.5   NA       0.0000   9999     1210  0     0    
2019/07/24  10:06:00  BASE  2.96352  120  3.65736  98   -9.8  81    -12.5 0     0     1003.5   NA       0.0000   -SN      9999  1350  0    
2019/07/24  10:07:00  BASE  3.12228  118  3.62796  121  -9.7  81    -12.3 0     0     1003.5   NA       0.0000   -SN      9999  1310  0    
2019/07/24  10:08:00  BASE  3.2928   116  3.62796  121  -9.6  81    -12.3 0     0     1003.5   NA       0.0000   -SN      9999  1080  0    
2019/07/24  10:09:00  BASE  3.43392  114  3.75144  111  -9.6  81    -12.4 0     0     1003.5   NA       0.0000   -SN      9999  980   0    
2019/07/24  10:10:00  BASE  3.40452  112  3.75144  111  -9.7  80    -12.4 0     0     1003.5   NA       0.0000   -SN      9999  790   0    
2019/07/24  10:11:00  BASE  3.381    115  3.81024  113  -9.8  80    -12.5 0     0     1003.5   NA       0.0000   -SN      9999  1250  0    
2019/07/24  10:12:00  BASE  3.58092  117  3.81024  113  -9.8  80    -12.6 0     0     1003.5   NA       0.0000   -SN      9999  1120  0    
2019/07/24  10:13:00  BASE  3.61032  117  3.81024  120  -9.9  81    -12.5 0     0     1003.5   NA       0.0000   -SN      9999  1180  0    
2019/07/24  10:14:00  BASE  3.54564  120  3.81024  120  -9.9  81    -12.5 0     0     1003.5   NA       0.0000   -SN      9999  1310  0    
2019/07/24  10:15:00  BASE  3.46332  118  3.81024  120  -9.8  81    -12.4 0     0     1003.5   NA       0.0000   -SN      9999  1280  0    
2019/07/24  10:16:00  BASE  2.97528  99   3.81024  120  -9.8  81    -12.4 0     0     1003.6   NA       0.0000   -SN      9999  1180  2920 
2019/07/24  10:17:00  BASE  2.24028  87   3.81024  120  -9.9  81    -12.5 0     0     1003.6   NA       0.0000   -SN      9999  1310  0    
2019/07/24  10:18:00  BASE  2.54016  97   3.96312  101  -10.0 81    -12.7 0     0     1003.6   NA       0.0000   -SN      9999  1310  0    
2019/07/24  10:19:00  BASE  3.3222   97   3.96312  101  -10.1 80    -12.8 0     0     1003.6   NA       0.0000   -SN      9999  1150  0    
2019/07/24  10:20:00  BASE  3.44568  87   3.96312  101  -10.3 80    -13.0 0     0     1003.6   NA       0.0000   -SN      9999  1380  0    
2019/07/24  10:21:00  BASE  3.4104   78   3.96312  101  -10.4 81    -13.1 0     0     1003.6   NA       0.0000   -SN      9999  1050  0    
2019/07/24  10:22:00  BASE  3.78084  76   4.53936  78   -10.5 81    -13.1 0     0     1003.6   NA       0.0000   -SN      9999  1180  0    
2019/07/24  10:23:00  BASE  4.08072  74   4.75104  70   -10.6 81    -13.2 0     0     1003.7   NA       0.0000   -SN      9999  1210  0    
2019/07/24  10:24:00  BASE  4.19832  72   4.75104  73   -10.7 81    -13.3 0     0     1003.8   NA       0.0000   -SN      9999  1180  2530 
2019/07/24  10:25:00  BASE  4.3806   77   4.75104  77   -10.7 81    -13.3 0     0     1003.8   NA       0.0000   -SN      9999  1180  2530 
2019/07/24  10:26:00  BASE  4.25712  82   4.75104  77   -10.8 81    -13.4 0     0     1003.8   NA       0.0000   -SN      9999  1250  0    
2019/07/24  10:27:00  BASE  4.02192  83   4.75104  77   -10.8 81    -13.4 0     0     1003.8   NA       0.0000   -SN      9999  820   0    
2019/07/24  10:28:00  BASE  3.78672  82   4.75104  77   -10.7 82    -13.2 0     0     1003.8   NA       0.0000   -SN      9999  920   0    
2019/07/24  10:29:00  BASE  3.65736  77   4.75104  77   -10.6 82    -13.1 0     0     1003.8   NA       0.0000   -SN      9999  1250  0    
2019/07/24  10:30:00  BASE  3.3222   71   4.75104  77   -10.5 82    -13.0 0     0     1003.8   NA       0.0000   -SN      9999  1410  0    
2019/07/24  10:31:00  BASE  3.59856  63   4.86864  62   -10.4 82    -13.0 0     0     1003.8   NA       0.0000   -SN      9999  1410  0    
2019/07/24  10:32:00  BASE  4.54524  51   5.2038   53   -10.3 82    -12.8 0     0     1003.8   NA       0.0000   -SN      9999  1380  0    
2019/07/24  10:33:00  BASE  4.7334   46   5.2038   53   -10.2 82    -12.7 0     0     1003.7   NA       0.0000   -SN      9999  1310  2100 
2019/07/24  10:34:00  BASE  4.42764  47   5.2038   53   -10.0 82    -12.5 0     0     1003.7   NA       0.0000   -SN      9999  1180  2230 
2019/07/24  10:35:00  BASE  4.29828  48   5.2038   53   -9.8  83    -12.2 0     0     1003.7   NA       0.0000   -SN      9999  1120  2560 
2019/07/24  10:36:00  BASE  4.31592  50   5.2038   53   -9.7  83    -12.0 0     0     1003.7   NA       0.0000   9999     1180  2070  0    
2019/07/24  10:37:00  BASE  4.35708  52   5.2038   53   -9.5  83    -11.9 0     0     1003.6   NA       0.0000   9999     1120  0     0    
2019/07/24  10:38:00  BASE  4.42764  55   5.2038   53   -9.4  83    -11.8 0     0     1003.6   NA       0.0000   9999     1080  2560  0    
2019/07/24  10:39:00  BASE  4.01604  72   5.2038   53   -9.5  83    -11.8 0     0     1003.6   NA       0.0000   9999     1280  2490  0    
2019/07/24  10:40:00  BASE  3.62208  69   5.2038   53   -9.5  83    -12.0 0     0     1003.6   NA       0.0000   9999     1350  0     0    
2019/07/24  10:41:00  BASE  3.44568  66   5.2038   53   -9.6  82    -12.0 0     0     1003.6   NA       0.0000   9999     1350  0     0    
2019/07/24  10:42:00  BASE  3.36924  77   5.02152  41   -9.7  82    -12.1 0     0     1003.6   NA       0.0000   9999     1540  0     0    
2019/07/24  10:43:00  BASE  3.7338   83   4.68636  61   -9.9  82    -12.4 0     0     1003.6   NA       0.0000   9999     1480  0     0    
2019/07/24  10:44:00  BASE  3.92196  83   4.68636  61   -10.1 81    -12.7 0     0     1003.7   NA       0.0000   9999     1480  2130  2660 
2019/07/24  10:45:00  BASE  3.63972  83   4.68636  61   -10.3 81    -13.0 0     0     1003.7   NA       0.0000   9999     1380  2790  0    
2019/07/24  10:46:00  BASE  3.56328  86   4.68636  61   -10.6 81    -13.2 0     0     1003.7   NA       0.0000   9999     1350  0     0    
2019/07/24  10:47:00  BASE  4.0866   83   4.99212  82   -10.8 81    -13.4 0     0     1003.7   NA       0.0000   9999     1310  0     0    
2019/07/24  10:48:00  BASE  4.80984  85   5.62716  87   -10.8 81    -13.5 0     0     1003.8   NA       0.0000   9999     1310  0     0    
2019/07/24  10:49:00  BASE  4.95096  91   5.62716  87   -10.8 81    -13.5 0     0     1003.8   NA       0.0000   9999     1310  0     0    
2019/07/24  10:50:00  BASE  4.66284  88   5.62716  87   -10.8 81    -13.5 0     0     1003.8   NA       0.0000   9999     1510  0     0    
2019/07/24  10:51:00  BASE  4.68048  95   5.62716  87   -10.8 81    -13.5 0     0     1003.7   NA       0.0000   9999     1510  0     0    
2019/07/24  10:52:00  BASE  4.85688  109  5.62716  87   -10.8 81    -13.4 0     0     1003.8   NA       0.0000   9999     1480  0     0    
2019/07/24  10:53:00  BASE  4.66872  114  5.62716  87   -10.7 81    -13.3 0     0     1003.7   NA       0.0000   9999     1480  0     0    
2019/07/24  10:54:00  BASE  4.72752  115  5.62716  87   -10.6 81    -13.2 0     0     1003.8   NA       0.0000   9999     1480  0     0    
2019/07/24  10:55:00  BASE  4.94508  115  5.62716  87   -10.4 81    -13.1 0     0     1003.7   NA       0.0000   9999     1280  1870  0    
2019/07/24  10:56:00  BASE  4.91568  119  5.62716  87   -10.3 81    -12.9 0     0     1003.8   NA       0.0000   9999     1610  0     0    
2019/07/24  10:57:00  BASE  5.03328  117  5.62716  87   -10.1 81    -12.8 0     0     1003.8   NA       0.0000   9999     2100  2620  0    
2019/07/24  10:58:00  BASE  4.72752  115  5.41548  113  -10.1 80    -12.8 0     0     1003.8   NA       0.0000   9999     1840  0     0    
2019/07/24  10:59:00  BASE  4.40412  114  5.41548  113  -10.0 80    -12.8 0     0     1003.8   NA       0.0000   9999     1800  0     0    
2019/07/24  11:00:00  BASE  4.28064  112  5.41548  113  -9.9  80    -12.7 0     0     1003.8   NA       0.0000   9999     1640  0     0    
2019/07/24  11:01:00  BASE  3.62208  92   5.41548  113  -9.9  79    -12.8 0     0     1003.8   NA       0.0000   9999     1870  0     0    
2019/07/24  11:02:00  BASE  3.00468  82   5.41548  113  -9.9  79    -12.9 0     0     1003.8   NA       0.0000   9999     1480  0     0    
2019/07/24  11:03:00  BASE  3.675    100  5.41548  113  -9.9  78    -13.0 0     0     1003.8   NA       0.0000   9999     1510  2620  0    
2019/07/24  11:04:00  BASE  4.54524  99   5.41548  113  -9.9  78    -13.0 0     0     1003.7   NA       0.0000   9999     1480  1940  2560 
2019/07/24  11:05:05  BASE  3.95724  85   5.41548  113  -9.9  78    -13.0 0     0     1003.7   NA       0.0000   9999     1610  0     0    
2019/07/24  11:06:00  BASE  3.27516  87   5.41548  113  -9.9  78    -13.0 0     0     1003.7   NA       0.0000   9999     1900  2790  0    
2019/07/24  11:07:00  BASE  3.39276  84   4.99212  99   -9.9  78    -13.0 0     0     1003.6   NA       0.0000   9999     1710  2230  2920 
2019/07/24  11:08:00  BASE  3.83964  75   4.99212  99   -10.0 78    -13.1 0     0     1003.6   NA       0.0000   9999     2100  2690  0    
2019/07/24  11:09:00  BASE  4.13952  73   4.99212  99   -10.0 77    -13.2 0     0     1003.6   NA       0.0000   9999     2260  0     0    
2019/07/24  11:10:00  BASE  4.1454   72   4.99212  99   -10.1 77    -13.3 0     0     1003.7   NA       0.0000   9999     2760  0     0    
2019/07/24  11:11:00  BASE  3.66912  71   4.99212  99   -10.0 78    -13.2 0     0     1003.8   NA       0.0000   9999     2890  0     0    
2019/07/24  11:12:00  BASE  3.29868  70   4.99212  99   -10.0 78    -13.2 0     0     1003.8   NA       0.0000   9999     0     0     0    
2019/07/24  11:13:00  BASE  3.6456   66   4.99212  99   -10.1 78    -13.3 0     0     1003.8   NA       0.0000   9999     0     0     0    
2019/07/24  11:14:00  BASE  3.29868  74   4.86864  70   -10.2 78    -13.3 0     0     1003.8   NA       0.0000   9999     0     0     0    
2019/07/24  11:15:00  BASE  2.74596  90   4.86864  70   -10.3 78    -13.5 0     0     1003.7   NA       0.0000   9999     0     0     0    
2019/07/24  11:16:00  BASE  2.3814   97   4.86864  70   -10.5 78    -13.6 0     0     1003.6   NA       0.0000   9999     0     0     0    
2019/07/24  11:17:00  BASE  2.52252  88   4.86864  70   -10.5 78    -13.6 0     0     1003.7   NA       0.0000   9999     0     0     0    
2019/07/24  11:18:00  BASE  2.58132  72   4.86864  70   -10.4 79    -13.3 0     0     1003.6   NA       0.0000   9999     0     0     0    
2019/07/24  11:19:00  BASE  2.41668  74   4.65696  65   -10.2 79    -13.1 0     0     1003.7   NA       0.0000   9999     0     0     0    
2019/07/24  11:20:00  BASE  2.97528  76   4.47468  56   -10.0 80    -12.8 0     0     1003.6   NA       0.0000   9999     0     0     0    
2019/07/24  11:21:00  BASE  3.78084  74   4.68636  82   -10.0 80    -12.9 0     0     1003.7   NA       0.0000   9999     0     0     0    
2019/07/24  11:22:00  BASE  4.19832  75   4.68636  82   -10.1 79    -13.0 0     0     1003.7   NA       0.0000   9999     0     0     0    
2019/07/24  11:23:00  BASE  3.86316  83   4.68636  82   -10.2 79    -13.2 0     0     1003.8   NA       0.0000   9999     0     0     0    
2019/07/24  11:24:00  BASE  3.93372  95   4.68636  82   -10.4 78    -13.4 0     0     1003.7   NA       0.0000   9999     0     0     0    
2019/07/24  11:25:00  BASE  4.25712  103  4.68636  82   -10.6 78    -13.6 0     0     1003.6   NA       0.0000   9999     0     0     0    
2019/07/24  11:26:00  BASE  4.2336   114  4.68636  82   -10.5 78    -13.6 0     0     1003.6   NA       0.0000   9999     0     0     0    
2019/07/24  11:27:00  BASE  3.84552  117  4.68636  82   -10.4 79    -13.4 0     0     1003.7   NA       0.0000   9999     0     0     0    
2019/07/24  11:28:00  BASE  3.4398   112  4.68636  82   -10.3 79    -13.3 0     0     1003.8   NA       0.0000   9999     0     0     0    
2019/07/24  11:29:00  BASE  3.19872  112  4.68636  82   -10.1 79    -13.1 0     0     1003.8   NA       0.0000   9999     0     0     0    
2019/07/24  11:30:00  BASE  3.06348  110  4.68636  82   -10.0 79    -12.9 0     0     1003.8   NA       0.0000   9999     2850  0     0    
2019/07/24  11:31:00  BASE  3.4398   103  4.50996  113  -9.9  78    -13.0 0     0     1003.8   NA       0.0000   9999     2990  0     0    
2019/07/24  11:32:00  BASE  3.89844  101  4.50996  113  -9.8  78    -13.0 0     0     1003.8   NA       0.0000   9999     2820  0     0    
2019/07/24  11:33:00  BASE  4.0278   103  4.50996  113  -9.8  77    -13.0 0     0     1003.8   NA       0.0000   9999     2760  0     0    
2019/07/24  11:34:00  BASE  4.06308  108  4.50996  113  -9.9  77    -13.3 0     0     1003.7   NA       0.0000   9999     2920  0     0    
2019/07/24  11:35:00  BASE  4.06308  112  4.47468  117  -10.1 76    -13.5 0     0     1003.6   NA       0.0000   9999     2920  0     0    
2019/07/24  11:36:00  BASE  4.08072  112  4.29828  105  -10.2 76    -13.5 0     0     1003.6   NA       0.0000   9999     3080  0     0    
2019/07/24  11:37:00  BASE  4.13952  107  4.44528  101  -10.3 76    -13.6 0     0     1003.6   NA       0.0000   9999     3120  0     0    
2019/07/24  11:38:00  BASE  4.15716  105  4.47468  106  -10.4 77    -13.7 0     0     1003.6   NA       0.0000   9999     3120  0     0    
2019/07/24  11:39:00  BASE  4.07484  107  4.47468  106  -10.5 77    -13.8 0     0     1003.6   NA       0.0000   9999     3150  0     0    
2019/07/24  11:40:00  BASE  3.96312  112  4.47468  106  -10.6 77    -13.9 0     0     1003.6   NA       0.0000   9999     3150  0     0    
2019/07/24  11:41:00  BASE  3.96312  117  4.47468  106  -10.7 77    -13.9 0     0     1003.6   NA       0.0000   9999     3080  0     0    
2019/07/24  11:42:00  BASE  4.116    117  4.62756  122  -10.6 77    -13.8 0     0     1003.6   NA       0.0000   9999     3080  0     0    
2019/07/24  11:43:00  BASE  4.01016  117  4.62756  122  -10.6 78    -13.8 0     0     1003.6   NA       0.0000   9999     3050  0     0    
2019/07/24  11:44:00  BASE  3.7338   116  4.62756  122  -10.6 78    -13.7 0     0     1003.6   NA       0.0000   9999     2890  0     0    
2019/07/24  11:45:00  BASE  3.56916  116  4.62756  122  -10.5 78    -13.7 0     0     1003.6   NA       0.0000   9999     3150  0     0    
2019/07/24  11:46:00  BASE  3.4692   116  4.62756  122  -10.5 78    -13.6 0     0     1003.6   NA       0.0000   9999     3180  0     0    
2019/07/24  11:47:00  BASE  3.39276  117  4.62756  122  -10.5 78    -13.7 0     0     1003.6   NA       0.0000   9999     3220  0     0    
2019/07/24  11:48:00  BASE  3.19284  118  4.62756  122  -10.5 78    -13.7 0     0     1003.6   NA       0.0000   9999     3050  0     0    
2019/07/24  11:49:00  BASE  3.03996  113  4.62756  122  -10.4 78    -13.5 0     0     1003.6   NA       0.0000   9999     3020  0     0    
2019/07/24  11:50:00  BASE  2.97528  109  4.62756  122  -10.2 78    -13.3 0     0     1003.6   NA       0.0000   9999     3050  0     0    
2019/07/24  11:51:00  BASE  2.8812   108  4.62756  122  -10.0 78    -13.1 0     0     1003.6   NA       0.0000   9999     3020  0     0    
2019/07/24  11:52:00  BASE  2.94588  108  3.99252  118  -9.8  78    -12.9 0     0     1003.6   NA       0.0000   9999     2990  0     0    
2019/07/24  11:53:00  BASE  2.98116  103  3.83964  116  -9.6  78    -12.8 0     0     1003.6   NA       0.0000   9999     3120  0     0    
2019/07/24  11:54:00  BASE  3.06936  97   3.72204  120  -9.7  77    -13.0 0     0     1003.6   NA       0.0000   9999     3080  0     0    
2019/07/24  11:55:00  BASE  3.381    81   3.78084  71   -9.8  77    -13.1 0     0     1003.6   NA       0.0000   9999     3220  0     0    
2019/07/24  11:56:00  BASE  3.51624  71   3.78084  71   -9.9  76    -13.2 0     0     1003.6   NA       0.0000   9999     0     0     0    
2019/07/24  11:57:00  BASE  3.35748  72   3.78084  71   -10.0 76    -13.3 0     0     1003.6   NA       0.0000   9999     0     0     0    
2019/07/24  11:58:00  BASE  3.53976  72   4.05132  73   -10.0 77    -13.3 0     0     1003.6   NA       0.0000   9999     0     0     0    
2019/07/24  11:59:00  BASE  3.77496  77   4.05132  73   -9.9  77    -13.2 0     0     1003.6   NA       0.0000   9999     0     0     0    
2019/07/24  12:00:00  BASE  3.53388  74   4.05132  73   -9.8  77    -13.1 0     0     1003.6   NA       0.0000   9999     0     0     0    
2019/07/24  12:01:00  BASE  3.3222   69   4.05132  73   -9.7  77    -12.9 0     0     1003.6   NA       0.0000   9999     0     0     0    
2019/07/24  12:02:00  BASE  3.05172  70   4.05132  73   -9.6  77    -12.9 0     0     1003.6   NA       0.0000   9999     0     0     0    
2019/07/24  12:03:00  BASE  2.82828  72   4.05132  73   -9.5  76    -12.8 0     0     1003.6   NA       0.0000   9999     0     0     0    
2019/07/24  12:04:00  BASE  3.1458   73   4.05132  73   -9.4  76    -12.9 0     0     1003.6   NA       0.0000   9999     0     0     0    
2019/07/24  12:05:00  BASE  3.38688  72   4.05132  73   -9.5  75    -13.0 0     0     1003.6   NA       0.0000   9999     0     0     0    
2019/07/24  12:06:00  BASE  3.46332  72   4.05132  73   -9.6  75    -13.2 0     0     1003.6   NA       0.0000   9999     0     0     0    
2019/07/24  12:07:00  BASE  3.8808   73   4.99212  68   -9.7  74    -13.4 0     0     1003.6   NA       0.0000   9999     0     0     0    
2019/07/24  12:08:00  BASE  3.9102   73   4.99212  68   -9.8  74    -13.5 0     0     1003.6   NA       0.0000   9999     0     0     0    
2019/07/24  12:09:00  BASE  3.42216  79   4.99212  68   -9.8  74    -13.5 0     0     1003.6   NA       0.0000   9999     0     0     0    
2019/07/24  12:10:00  BASE  3.10464  86   4.99212  68   -9.8  74    -13.5 0     0     1003.6   NA       0.0000   9999     0     0     0    
2019/07/24  12:11:00  BASE  3.16932  84   4.99212  68   -9.7  74    -13.5 0     0     1003.5   NA       0.0000   9999     0     0     0    
2019/07/24  12:12:00  BASE  3.29868  82   4.99212  68   -9.7  74    -13.5 0     0     1003.5   NA       0.0000   9999     0     0     0    
2019/07/24  12:13:00  BASE  3.40452  85   4.99212  68   -9.8  74    -13.6 0     0     1003.5   NA       0.0000   9999     0     0     0    
2019/07/24  12:14:00  BASE  3.8514   88   4.99212  68   -10.0 73    -13.9 0     0     1003.5   NA       0.0000   9999     0     0     0    
2019/07/24  12:15:00  BASE  4.18656  87   4.99212  68   -10.2 73    -14.1 0     0     1003.5   NA       0.0000   9999     3050  0     0    
2019/07/24  12:16:00  BASE  4.23948  84   4.99212  68   -10.4 73    -14.3 0     0     1003.5   NA       0.0000   9999     3180  0     0    
2019/07/24  12:17:00  BASE  4.03956  83   4.86864  86   -10.6 74    -14.4 0     0     1003.6   NA       0.0000   9999     3220  0     0    
2019/07/24  12:18:00  BASE  3.6162   93   4.86864  86   -10.7 74    -14.4 0     0     1003.6   NA       0.0000   9999     3280  0     0    
2019/07/24  12:19:00  BASE  3.3222   105  4.86864  86   -10.7 75    -14.4 0     0     1003.6   NA       0.0000   9999     3250  0     0    
2019/07/24  12:20:00  BASE  3.18696  114  4.86864  86   -10.6 75    -14.2 0     0     1003.6   NA       0.0000   9999     0     0     0    
2019/07/24  12:21:00  BASE  3.675    113  5.02152  107  -10.7 75    -14.3 0     0     1003.6   NA       0.0000   9999     0     0     0    
2019/07/24  12:22:00  BASE  3.9396   115  5.02152  107  -10.8 74    -14.4 0     0     1003.6   NA       0.0000   9999     0     0     0    
2019/07/24  12:23:00  BASE  3.9102   115  5.02152  107  -10.8 74    -14.5 0     0     1003.6   NA       0.0000   9999     0     0     0    
2019/07/24  12:24:00  BASE  4.2042   102  5.02152  107  -10.9 74    -14.7 0     0     1003.6   NA       0.0000   9999     0     0     0    
2019/07/24  12:25:00  BASE  4.06896  101  5.02152  107  -11.1 74    -14.8 0     0     1003.6   NA       0.0000   9999     0     0     0    
2019/07/24  12:26:00  BASE  3.84552  105  5.02152  107  -11.1 74    -14.7 0     0     1003.7   NA       0.0000   9999     0     0     0    
2019/07/24  12:27:00  BASE  3.8514   98   5.02152  107  -11.1 75    -14.7 0     0     1003.8   NA       0.0000   9999     0     0     0    
2019/07/24  12:28:00  BASE  3.63384  90   5.02152  107  -11.1 75    -14.6 0     0     1003.8   NA       0.0000   9999     0     0     0    
2019/07/24  12:29:00  BASE  3.09288  83   5.02152  107  -11.0 75    -14.5 0     0     1003.8   NA       0.0000   9999     0     0     0    
2019/07/24  12:30:00  BASE  2.9106   80   5.02152  107  -10.8 75    -14.3 1     0     1003.8   NA       0.0000   9999     0     0     0    
2019/07/24  12:31:00  BASE  3.33984  84   4.93332  100  -10.6 76    -14.1 1     0     1003.8   NA       0.0000   9999     0     0     0    
2019/07/24  12:32:00  BASE  3.71616  83   4.93332  100  -10.4 76    -13.9 1     0     1003.7   NA       0.0000   9999     0     0     0    
2019/07/24  12:33:00  BASE  3.56916  83   4.80984  97   -10.1 76    -13.6 1     0     1003.7   NA       0.0000   9999     0     0     0    
2019/07/24  12:34:00  BASE  3.528    84   4.44528  70   -9.9  75    -13.5 1     0     1003.7   NA       0.0000   9999     0     0     0    
2019/07/24  12:35:00  BASE  3.5868   77   4.44528  70   -9.9  75    -13.6 1     0     1003.6   NA       0.0000   9999     0     0     0    
2019/07/24  12:36:00  BASE  3.44568  83   4.44528  70   -9.9  74    -13.7 1     0     1003.6   NA       0.0000   9999     0     0     0    
2019/07/24  12:37:00  BASE  4.13952  90   5.53308  92   -10.0 74    -13.8 1     0     1003.6   NA       0.0000   9999     0     0     0    
2019/07/24  12:38:00  BASE  5.12148  97   6.41508  98   -10.2 73    -14.1 1     0     1003.6   NA       0.0000   9999     0     0     0    
2019/07/24  12:39:00  BASE  4.86864  115  6.41508  98   -10.2 73    -14.2 1     0     1003.5   NA       0.0000   9999     0     0     0    
2019/07/24  12:40:00  BASE  4.43352  121  6.41508  98   -10.1 73    -14.0 1     0     1003.5   NA       0.0000   9999     0     0     0    
2019/07/24  12:41:00  BASE  4.69812  118  6.41508  98   -10.1 73    -14.1 1     0     1003.5   NA       0.0000   9999     0     0     0    
2019/07/24  12:42:00  BASE  4.72752  116  6.41508  98   -10.0 73    -14.0 1     0     1003.5   NA       0.0000   9999     0     0     0    
2019/07/24  12:43:00  BASE  4.86276  109  6.41508  98   -9.9  72    -14.0 2     0     1003.5   NA       0.0000   9999     0     0     0    
2019/07/24  12:44:00  BASE  5.4978   101  6.65616  100  -9.9  72    -14.1 2     0     1003.5   NA       0.0000   9999     0     0     0    
2019/07/24  12:45:00  BASE  5.57424  105  6.65616  100  -10.0 71    -14.3 2     0     1003.5   NA       0.0000   9999     0     0     0    
2019/07/24  12:46:00  BASE  4.66872  104  6.65616  100  -10.0 71    -14.4 2     0     1003.5   NA       0.0000   9999     0     0     0    
2019/07/24  12:47:00  BASE  4.45704  98   6.65616  100  -10.2 70    -14.6 2     0     1003.5   NA       0.0000   9999     0     0     0    
2019/07/24  12:48:00  BASE  5.3802   91   6.86784  96   -10.4 70    -14.9 2     0     1003.5   NA       0.0000   9999     0     0     0    
2019/07/24  12:49:00  BASE  5.59776  88   6.86784  96   -10.6 70    -15.0 2     0     1003.6   NA       0.0000   9999     0     0     0    
2019/07/24  12:50:00  BASE  5.39196  86   6.86784  96   -10.8 70    -15.2 2     0     1003.6   NA       0.0000   9999     0     0     0    
2019/07/24  12:51:00  BASE  5.35668  79   6.86784  96   -10.9 70    -15.3 2     0     1003.6   NA       0.0000   9999     0     0     0    
2019/07/24  12:52:00  BASE  5.00976  77   6.86784  96   -11.0 71    -15.3 2     0     1003.6   NA       0.0000   9999     0     0     0    
2019/07/24  12:53:00  BASE  4.72752  80   6.86784  96   -11.0 71    -15.1 2     0     1003.6   NA       0.0000   9999     0     0     0    
2019/07/24  12:54:00  BASE  4.49232  82   6.86784  96   -11.0 72    -15.0 3     0     1003.6   NA       0.0000   9999     0     0     0    
2019/07/24  12:55:00  BASE  4.6746   86   6.86784  96   -11.0 72    -15.0 3     0     1003.6   NA       0.0000   9999     0     0     0    
2019/07/24  12:56:00  BASE  5.53896  88   6.86784  96   -11.1 73    -15.0 3     0     1003.5   NA       0.0000   9999     0     0     0    
2019/07/24  12:57:00  BASE  6.05052  90   6.86784  96   -11.1 73    -15.0 3     0     1003.5   NA       0.0000   9999     0     0     0    
2019/07/24  12:58:00  BASE  5.78592  93   6.71496  88   -11.2 74    -14.9 3     0     1003.6   NA       0.0000   9999     0     0     0    
2019/07/24  12:59:00  BASE  5.63304  92   6.71496  88   -11.2 75    -14.8 3     0     1003.6   NA       0.0000   9999     0     0     0    
2019/07/24  13:00:00  BASE  5.39784  92   6.71496  88   -11.2 75    -14.7 3     0     1003.7   NA       0.0000   9999     0     0     0    
2019/07/24  13:01:00  BASE  4.94508  90   6.71496  88   -11.2 76    -14.5 3     0     1003.8   NA       0.0000   9999     0     0     0    
2019/07/24  13:02:00  BASE  4.98036  89   6.71496  88   -11.1 77    -14.4 4     0     1003.8   NA       0.0000   9999     0     0     0    
2019/07/24  13:03:00  BASE  5.145    95   6.71496  88   -11.1 78    -14.1 4     0     1003.7   NA       0.0000   9999     0     0     0    
2019/07/24  13:04:00  BASE  4.8216   102  6.71496  88   -10.9 79    -13.9 4     0     1003.8   NA       0.0000   9999     0     0     0    
2019/07/24  13:05:00  BASE  4.53348  105  6.71496  88   -10.9 80    -13.7 4     0     1003.7   NA       0.0000   9999     0     0     0    
2019/07/24  13:06:00  BASE  4.48644  107  6.3504   93   -10.8 81    -13.4 4     0     1003.6   NA       0.0000   9999     0     0     0    
2019/07/24  13:07:00  BASE  4.33356  110  6.02112  94   -10.7 81    -13.3 4     0     1003.7   NA       0.0000   9999     0     0     0    
2019/07/24  13:08:00  BASE  4.41588  109  6.02112  94   -10.8 82    -13.3 4     0     1003.7   NA       0.0000   9999     0     0     0    
2019/07/24  13:09:00  BASE  4.557    108  5.50368  100  -10.9 82    -13.3 4     0     1003.7   NA       0.0000   9999     0     0     0    
2019/07/24  13:10:00  BASE  4.34532  111  5.50368  100  -10.9 83    -13.3 5     0     1003.7   NA       0.0000   9999     0     0     0    
2019/07/24  13:11:00  BASE  4.02192  114  5.50368  100  -11.0 83    -13.3 5     0     1003.7   NA       0.0000   9999     0     0     0    
2019/07/24  13:12:00  BASE  4.01016  114  5.50368  100  -10.9 84    -13.2 5     0     1003.8   NA       0.0000   9999     0     0     0    
2019/07/24  13:13:00  BASE  4.06896  111  5.02152  102  -10.8 84    -12.9 5     0     1003.8   NA       0.0000   9999     0     0     0    
2019/07/24  13:14:00  BASE  3.98664  108  5.02152  102  -10.7 85    -12.7 5     0     1003.8   NA       0.0000   9999     0     0     0    
2019/07/24  13:15:00  BASE  3.86904  109  4.93332  105  -10.6 85    -12.6 5     0     1003.7   NA       0.0000   9999     0     0     0    
2019/07/24  13:16:00  BASE  3.53976  110  4.93332  105  -10.5 86    -12.4 5     0     1003.8   NA       0.0000   9999     0     0     0    
2019/07/24  13:17:00  BASE  3.53388  104  4.93332  105  -10.5 86    -12.3 5     0     1003.7   NA       0.0000   9999     0     0     0    
2019/07/24  13:18:00  BASE  3.83964  101  4.89804  107  -10.5 87    -12.3 5     0     1003.6   NA       0.0000   9999     0     0     0    
2019/07/24  13:19:00  BASE  3.85728  106  4.47468  116  -10.5 87    -12.3 6     0     1003.6   NA       0.0000   9999     0     0     0    
2019/07/24  13:20:00  BASE  3.45744  111  4.47468  116  -10.4 87    -12.1 6     0     1003.6   NA       0.0000   9999     0     0     0    
2019/07/24  13:21:00  BASE  3.16344  102  4.47468  116  -10.4 87    -12.1 6     0     1003.6   NA       0.0000   9999     0     0     0    
2019/07/24  13:22:00  BASE  3.4986   86   4.41588  111  -10.4 88    -12.0 6     0     1003.6   NA       0.0000   9999     0     0     0    
2019/07/24  13:23:00  BASE  3.53388  82   4.29828  82   -10.3 88    -11.9 6     0     1003.6   NA       0.0000   9999     0     0     0    
2019/07/24  13:24:00  BASE  3.31044  90   4.29828  82   -10.3 88    -11.9 6     0     1003.6   NA       0.0000   9999     0     0     0    
2019/07/24  13:25:00  BASE  3.25752  95   4.29828  82   -10.4 88    -12.0 6     0     1003.7   NA       0.0000   9999     0     0     0    
2019/07/24  13:26:00  BASE  3.28104  92   4.29828  82   -10.5 88    -12.2 6     0     1003.7   NA       0.0000   9999     0     0     0    
2019/07/24  13:27:00  BASE  3.4104   84   4.29828  82   -10.6 88    -12.2 6     0     1003.8   NA       0.0000   9999     0     0     0    
2019/07/24  13:28:00  BASE  3.528    78   4.29828  82   -10.6 88    -12.2 7     0     1003.8   NA       0.0000   9999     0     0     0    
2019/07/24  13:29:00  BASE  3.33984  79   4.29828  82   -10.6 88    -12.1 7     0     1003.8   NA       0.0000   9999     0     0     0    
2019/07/24  13:30:00  BASE  3.12228  79   4.29828  82   -10.4 89    -11.9 7     0     1003.8   NA       0.0000   9999     0     0     0    
2019/07/24  13:31:00  BASE  3.04584  69   4.29828  82   -10.3 89    -11.8 7     0     1003.9   NA       0.0000   9999     0     0     0    
2019/07/24  13:32:00  BASE  2.85768  62   3.93372  76   -10.2 89    -11.7 7     0     1003.9   NA       0.0000   9999     0     0     0    
2019/07/24  13:33:00  BASE  2.4696   64   3.93372  76   -10.2 89    -11.7 7     0     1003.9   NA       0.0000   9999     0     0     0    
2019/07/24  13:34:00  BASE  2.3814   66   3.93372  76   -10.2 89    -11.7 8     0     1003.8   NA       0.0000   9999     0     0     0    
2019/07/24  13:35:00  BASE  2.45196  66   3.93372  76   -10.3 89    -11.7 8     0     1003.8   NA       0.0000   9999     0     0     0    
2019/07/24  13:36:00  BASE  2.22264  68   3.93372  76   -10.2 89    -11.7 8     0     1003.9   NA       0.0000   9999     0     0     0    
2019/07/24  13:37:00  BASE  2.12268  71   3.93372  76   -10.2 89    -11.7 8     0     1003.9   NA       0.0000   9999     0     0     0    
2019/07/24  13:38:00  BASE  1.89336  68   3.41628  76   -10.2 89    -11.7 8     0     1003.9   NA       0.0000   9999     0     0     0    
2019/07/24  13:39:00  BASE  1.6464   67   3.35748  74   -10.2 89    -11.7 8     0     1003.9   NA       0.0000   9999     0     0     0    
2019/07/24  13:40:00  BASE  1.65228  69   3.1458   75   -10.1 89    -11.6 9     0     1004.0   NA       0.0000   9999     0     0     0    
2019/07/24  13:41:00  BASE  1.51116  64   3.02232  65   -10.1 89    -11.6 9     0     1004.0   NA       0.0000   9999     0     0     0    
2019/07/24  13:42:00  BASE  1.16424  57   2.93412  68   -10.0 89    -11.5 9     0     1004.0   NA       0.0000   9999     0     0     0    
2019/07/24  13:43:00  BASE  1.18776  59   2.93412  68   -10.0 89    -11.5 9     0     1004.0   NA       0.0000   9999     0     0     0    
2019/07/24  13:44:00  BASE  1.28184  63   2.56956  61   -9.9  89    -11.4 9     0     1004.0   NA       0.0000   9999     0     0     0    
2019/07/24  13:45:00  BASE  1.53468  68   2.54016  66   -10.0 89    -11.5 9     0     1004.0   NA       0.0000   9999     0     0     0    
2019/07/24  13:46:00  BASE  1.75812  67   2.54016  66   -10.0 88    -11.6 10    0     1004.0   NA       0.0000   9999     0     0     0    
2019/07/24  13:47:00  BASE  1.84044  62   2.54016  66   -10.1 88    -11.7 10    0     1004.0   NA       0.0000   9999     0     0     0    
2019/07/24  13:48:00  BASE  1.99332  61   2.54016  66   -10.1 88    -11.7 10    0     1004.0   NA       0.0000   9999     0     0     0    
2019/07/24  13:49:00  BASE  1.74636  61   2.54016  66   -10.2 88    -11.8 10    0     1004.1   NA       0.0000   9999     0     0     0    
2019/07/24  13:50:00  BASE  1.75224  62   2.56956  68   -10.2 88    -11.8 10    0     1004.1   NA       0.0000   9999     0     0     0    
2019/07/24  13:51:00  BASE  2.16384  64   2.56956  70   -10.2 88    -11.9 10    0     1004.1   NA       0.0000   9999     0     0     0    
2019/07/24  13:52:00  BASE  2.03448  63   2.56956  70   -10.3 87    -12.0 11    0     1004.1   NA       0.0000   9999     0     0     0    
2019/07/24  13:53:00  BASE  1.48764  61   2.56956  70   -10.2 87    -11.9 11    0     1004.1   NA       0.0000   9999     0     0     0    
2019/07/24  13:54:00  BASE  1.27596  56   2.56956  70   -10.1 87    -11.8 11    0     1004.1   NA       0.0000   9999     0     0     0    
2019/07/24  13:55:00  BASE  1.53468  59   2.56956  70   -10.0 87    -11.8 11    0     1004.1   NA       0.0000   9999     0     0     0    
2019/07/24  13:56:00  BASE  1.7346   57   2.56956  70   -9.9  87    -11.7 11    0     1004.1   NA       0.0000   9999     0     0     0    
2019/07/24  13:57:00  BASE  1.59936  43   2.56956  70   -9.7  86    -11.5 11    0     1004.1   NA       0.0000   9999     0     0     0    
2019/07/24  13:58:00  BASE  1.37004  35   2.56956  70   -9.6  86    -11.5 12    0     1004.1   NA       0.0000   9999     0     0     0    
2019/07/24  13:59:00  BASE  1.33476  41   2.56956  70   -9.6  85    -11.6 12    0     1004.1   NA       0.0000   9999     0     0     0    
2019/07/24  14:00:00  BASE  1.51116  59   2.56956  70   -9.7  85    -11.7 12    0     1004.1   NA       0.0000   9999     0     0     0    
2019/07/24  14:01:00  BASE  1.51116  59   2.0286   76   -9.7  85    -11.8 12    0     1004.1   NA       0.0000   9999     0     0     0    
2019/07/24  14:02:00  BASE  1.28772  56   2.0286   76   -9.7  84    -11.9 12    0     1004.1   NA       0.0000   9999     0     0     0    
2019/07/24  14:03:00  BASE  1.22304  68   2.0286   76   -9.7  84    -11.9 12    0     1004.1   NA       0.0000   9999     0     0     0    
2019/07/24  14:04:00  BASE  1.38768  73   2.0286   76   -9.8  84    -12.0 12    0     1004.1   NA       0.0000   9999     0     0     0    
2019/07/24  14:05:00  BASE  1.4112   70   1.96392  46   -9.8  83    -12.1 13    0     1004.1   NA       0.0000   9999     0     0     0    
2019/07/24  14:06:00  BASE  1.3524   68   1.84632  54   -9.8  83    -12.1 13    0     1004.1   NA       0.0000   9999     0     0     0    
2019/07/24  14:07:00  BASE  1.45236  68   1.84632  54   -9.8  83    -12.2 13    0     1004.1   NA       0.0000   9999     0     0     0    
2019/07/24  14:08:00  BASE  1.40532  71   1.84632  54   -9.8  83    -12.2 13    0     1004.1   NA       0.0000   9999     0     0     0    
2019/07/24  14:09:00  BASE  1.36416  75   1.84632  54   -9.8  83    -12.2 13    0     1004.1   NA       0.0000   9999     0     0     0    
2019/07/24  14:10:00  BASE  1.55232  78   1.84632  85   -9.7  83    -12.1 13    0     1004.0   NA       0.0000   9999     0     0     0    
2019/07/24  14:11:00  BASE  1.69932  79   2.0286   81   -9.6  82    -12.1 14    0     1004.0   NA       0.0000   9999     0     0     0    
2019/07/24  14:12:00  BASE  1.68168  79   2.0874   87   -9.6  82    -12.1 14    0     1004.0   NA       0.0000   9999     0     0     0    
2019/07/24  14:13:00  BASE  1.87572  80   2.32848  81   -9.5  82    -12.1 14    0     1003.9   NA       0.0000   9999     0     0     0    
2019/07/24  14:14:00  BASE  1.9992   84   2.32848  81   -9.4  81    -12.1 14    0     1003.9   NA       0.0000   9999     0     0     0    
2019/07/24  14:15:00  BASE  1.84632  74   2.32848  81   -9.3  81    -12.0 14    0     1003.9   NA       0.0000   9999     0     0     0    
2019/07/24  14:16:00  BASE  1.84044  70   2.32848  81   -9.3  80    -12.1 14    0     1003.9   NA       0.0000   9999     0     0     0    
2019/07/24  14:17:00  BASE  2.00508  76   2.42256  79   -9.3  80    -12.2 14    0     1003.9   NA       0.0000   9999     0     0     0    
2019/07/24  14:18:00  BASE  2.11092  77   2.42256  79   -9.4  79    -12.3 15    0     1003.9   NA       0.0000   9999     0     0     0    
2019/07/24  14:19:00  BASE  2.11092  80   2.69304  88   -9.5  79    -12.5 15    0     1004.0   NA       0.0000   9999     0     0     0    
2019/07/24  14:20:00  BASE  2.12268  85   2.69304  88   -9.6  78    -12.7 15    0     1004.0   NA       0.0000   9999     0     0     0    
2019/07/24  14:21:00  BASE  1.911    88   2.69304  88   -9.7  78    -12.8 15    0     1004.0   NA       0.0000   9999     0     0     0    
2019/07/24  14:22:00  BASE  1.47     91   2.69304  88   -9.8  78    -12.9 15    0     1004.0   NA       0.0000   9999     0     0     0    
2019/07/24  14:23:00  BASE  0.735    123  2.69304  88   -9.8  78    -12.9 15    0     1004.0   NA       0.0000   9999     0     0     0    
2019/07/24  14:24:00  BASE  0.34692  159  2.69304  88   -9.7  78    -12.8 15    0     1004.1   NA       0.0000   9999     0     0     0    
2019/07/24  14:25:00  BASE  0.441    160  2.69304  88   -9.6  78    -12.8 15    0     1004.1   NA       0.0000   9999     0     0     0    
2019/07/24  14:26:00  BASE  0.35868  157  2.69304  88   -9.6  78    -12.7 15    0     1004.1   NA       0.0000   9999     0     0     0    
2019/07/24  14:27:00  BASE  0.13524  144  2.69304  88   -9.6  78    -12.7 16    0     1004.0   NA       0.0000   9999     0     0     0    
2019/07/24  14:28:00  BASE  0.18228  120  2.69304  88   -9.6  78    -12.7 16    0     1004.0   NA       0.0000   9999     0     0     0    
2019/07/24  14:29:00  BASE  0.5586   103  2.29908  90   -9.6  78    -12.7 16    0     1004.0   NA       0.0000   9999     0     0     0    
2019/07/24  14:30:00  BASE  0.77616  106  2.058    88   -9.6  78    -12.7 16    0     1004.0   NA       0.0000   9999     0     0     0    
2019/07/24  14:31:00  BASE  0.69972  108  1.60524  103  -9.6  78    -12.7 16    0     1004.0   NA       0.0000   9999     0     0     0    
2019/07/24  14:32:00  BASE  0.46452  98   1.029    102  -9.6  78    -12.7 16    0     1004.0   NA       0.0000   9999     0     0     0    
2019/07/24  14:33:00  BASE  0.6174   81   1.029    81   -9.6  78    -12.7 16    0     1004.0   NA       0.0000   9999     0     0     0    
2019/07/24  14:34:00  BASE  0.7644   62   1.029    81   -9.5  78    -12.7 16    0     1003.9   NA       0.0000   9999     0     0     0    
2019/07/24  14:35:00  BASE  0.45276  54   1.029    81   -9.5  78    -12.6 16    0     1003.9   NA       0.0000   9999     0     0     0    
2019/07/24  14:36:00  BASE  0.42336  62   1.029    81   -9.4  78    -12.6 16    0     1004.0   NA       0.0000   9999     0     0     0    
2019/07/24  14:37:00  BASE  0.28812  69   1.029    81   -9.3  78    -12.5 17    0     1004.0   NA       0.0000   9999     0     0     0    
2019/07/24  14:38:00  BASE  0        64   1.029    81   -9.3  77    -12.5 17    0     1004.0   NA       0.0000   9999     0     0     0    
2019/07/24  14:39:00  BASE  0        53   1.029    81   -9.2  77    -12.5 17    0     1004.0   NA       0.0000   9999     0     0     0    
2019/07/24  14:40:00  BASE  0        48   1.029    81   -9.2  77    -12.5 17    0     1004.0   NA       0.0000   9999     0     0     0    
2019/07/24  14:41:00  BASE  0        47   1.029    81   -9.2  76    -12.6 17    0     1004.0   NA       0.0000   9999     0     0     0    
2019/07/24  14:42:00  BASE  0        98   1.029    81   -9.2  76    -12.6 17    0     1004.0   NA       0.0000   9999     0     0     0    
2019/07/24  14:43:00  BASE  0.0294   152  0.75852  68   -9.3  76    -12.8 17    0     1004.1   NA       0.0000   9999     0     0     0    
2019/07/24  14:44:00  BASE  0.147    123  0.84672  62   -9.4  75    -13.0 17    0     1004.1   NA       0.0000   9999     0     0     0    
2019/07/24  14:45:00  BASE  0.6762   87   1.39356  76   -9.4  75    -13.0 17    0     1004.1   NA       0.0000   9999     0     0     0    
2019/07/24  14:46:00  BASE  1.30536  76   2.69304  69   -9.4  75    -12.9 17    0     1004.1   NA       0.0000   9999     0     0     0    
2019/07/24  14:47:00  BASE  2.05212  76   3.0576   65   -9.4  75    -13.0 17    0     1004.1   NA       0.0000   9999     0     0     0    
2019/07/24  14:48:00  BASE  2.68716  68   3.0576   65   -9.5  75    -13.0 18    0     1004.1   NA       0.0000   9999     0     0     0    
2019/07/24  14:49:00  BASE  2.646    73   3.1164   82   -9.5  75    -13.1 18    0     1004.1   NA       0.0000   9999     0     0     0    
2019/07/24  14:50:00  BASE  2.04624  96   3.1164   82   -9.7  75    -13.4 18    0     1004.1   NA       0.0000   9999     0     0     0    
2019/07/24  14:51:00  BASE  2.48724  105  4.1454   97   -10.0 74    -13.6 18    0     1004.1   NA       0.0000   9999     0     0     0    
2019/07/24  14:52:00  BASE  3.72792  97   4.50996  86   -10.3 74    -14.0 18    0     1004.1   NA       0.0000   9999     0     0     0    
2019/07/24  14:53:00  BASE  3.94548  92   4.50996  86   -10.5 74    -14.2 18    0     1004.1   NA       0.0000   9999     0     0     0    
2019/07/24  14:54:00  BASE  3.83376  92   4.50996  86   -10.5 74    -14.2 18    0     1004.1   NA       0.0000   9999     0     0     0    
2019/07/24  14:55:00  BASE  3.75732  94   4.50996  86   -10.5 75    -14.1 18    0     1004.1   NA       0.0000   9999     0     0     0    
2019/07/24  14:56:00  BASE  4.04544  91   4.68636  84   -10.5 75    -14.1 18    0     1004.1   NA       0.0000   9999     0     0     0    
2019/07/24  14:57:00  BASE  4.79808  86   5.65656  85   -10.3 75    -13.9 18    0     1004.1   NA       0.0000   9999     0     0     0    
2019/07/24  14:58:00  BASE  5.439    83   6.05052  83   -10.3 74    -14.0 19    0     1004.1   NA       0.0000   9999     0     0     0    
2019/07/24  14:59:00  BASE  5.51544  78   6.05052  83   -10.5 73    -14.3 19    0     1004.1   NA       0.0000   9999     0     0     0    
2019/07/24  15:00:00  BASE  5.53308  75   6.321    76   -10.6 73    -14.5 19    0     1004.1   NA       0.0000   9999     0     0     0    
2019/07/24  15:01:00  BASE  5.586    69   6.321    76   -10.6 73    -14.5 19    0     1004.1   NA       0.0000   9999     0     0     0    
2019/07/24  15:02:00  BASE  5.18028  66   6.321    76   -10.6 73    -14.5 19    0     1004.1   NA       0.0000   9999     0     0     0    
2019/07/24  15:03:00  BASE  4.851    69   6.321    76   -10.5 73    -14.4 20    0     1004.1   NA       0.0000   9999     0     0     0    
2019/07/24  15:04:00  BASE  4.58052  73   6.321    76   -10.4 73    -14.3 22    0     1004.1   NA       0.0000   9999     0     0     0    
2019/07/24  15:05:00  BASE  4.29828  74   6.321    76   -10.4 74    -14.1 25    0     1004.1   NA       0.0000   9999     0     0     0    
2019/07/24  15:06:00  BASE  4.2336   74   6.321    76   -10.3 74    -14.1 28    0     1004.1   NA       0.0000   9999     0     0     0    
2019/07/24  15:07:00  BASE  4.22772  74   6.321    76   -10.4 74    -14.1 31    0     1004.1   NA       0.0000   9999     0     0     0    
2019/07/24  15:08:00  BASE  4.42764  70   6.321    76   -10.4 74    -14.1 35    0     1004.1   NA       0.0000   9999     0     0     0    
2019/07/24  15:09:00  BASE  4.45116  68   6.321    76   -10.3 74    -14.1 39    0     1004.1   NA       0.0000   9999     0     0     0    
2019/07/24  15:10:00  BASE  4.2336   69   5.95644  67   -10.3 73    -14.2 43    0     1004.1   NA       0.0000   9999     0     0     0    
2019/07/24  15:11:00  BASE  4.08072  68   5.35668  66   -10.4 73    -14.3 47    0     1004.1   NA       0.0000   9999     0     0     0    
2019/07/24  15:12:00  BASE  3.68676  68   5.35668  66   -10.3 73    -14.2 51    0     1004.1   NA       0.0000   9999     0     0     0    
2019/07/24  15:13:00  BASE  3.24576  67   4.86864  69   -10.2 73    -14.1 54    0     1004.1   NA       0.0000   9999     0     0     0    
2019/07/24  15:14:00  BASE  3.12816  73   4.86864  69   -10.1 73    -14.0 57    0     1004.1   NA       0.0000   9999     0     0     0    
2019/07/24  15:15:00  BASE  2.4402   76   4.86864  69   -9.9  73    -13.8 58    0     1004.1   NA       0.0000   9999     0     0     0    
2019/07/24  15:16:00  BASE  1.68756  61   4.86864  69   -9.6  73    -13.5 59    0     1004.1   NA       0.0000   9999     0     0     0    
2019/07/24  15:17:00  BASE  2.9694   51   5.41548  53   -9.4  72    -13.4 59    0     1004.1   NA       0.0000   9999     0     0     0    
2019/07/24  15:18:00  BASE  3.97488  52   5.41548  53   -9.4  71    -13.6 60    0     1004.1   NA       0.0000   9999     0     0     0    
2019/07/24  15:19:00  BASE  3.52212  56   5.41548  53   -9.6  71    -13.9 61    0     1004.1   NA       0.0000   9999     0     0     0    
2019/07/24  15:20:00  BASE  3.05172  61   5.41548  53   -9.8  70    -14.1 61    0     1004.1   NA       0.0000   9999     0     0     0    
2019/07/24  15:21:00  BASE  2.42256  72   5.41548  53   -10.1 70    -14.5 61    0     1004.1   NA       0.0000   9999     0     0     0    
2019/07/24  15:22:00  BASE  2.29908  71   5.41548  53   -10.3 71    -14.6 62    0     1004.1   NA       0.0000   9999     0     0     0    
2019/07/24  15:23:00  BASE  2.71068  59   5.41548  53   -10.2 71    -14.4 63    0     1004.1   NA       0.0000   9999     0     0     0    
2019/07/24  15:24:00  BASE  2.58132  58   5.41548  53   -10.0 72    -14.1 63    0     1004.1   NA       0.0000   9999     0     0     0    
2019/07/24  15:25:00  BASE  2.25204  59   5.41548  53   -9.8  72    -13.9 64    0     1004.1   NA       0.0000   9999     0     0     0    
2019/07/24  15:26:00  BASE  2.37552  60   5.41548  53   -9.6  72    -13.7 65    0     1004.1   NA       0.0000   9999     0     0     0    
2019/07/24  15:27:00  BASE  2.25204  85   4.47468  55   -9.4  72    -13.6 65    0     1004.1   NA       0.0000   9999     0     0     0    
2019/07/24  15:28:00  BASE  1.617    122  3.56916  63   -9.4  71    -13.6 66    0     1004.1   NA       0.0000   9999     0     0     0    
2019/07/24  15:29:00  BASE  1.029    134  3.234    56   -9.4  71    -13.7 66    0     1004.1   NA       0.0000   9999     0     0     0    
2019/07/24  15:30:00  BASE  0.98196  121  3.234    56   -9.4  70    -13.8 66    0     1004.1   NA       0.0000   9999     0     0     0    
2019/07/24  15:31:00  BASE  0.99372  104  3.234    56   -9.4  70    -13.9 67    0     1004.1   NA       0.0000   9999     0     0     0    
2019/07/24  15:32:00  BASE  0.63504  88   3.234    56   -9.4  70    -13.9 67    0     1004.1   NA       0.0000   9999     0     0     0    
2019/07/24  15:33:00  BASE  0.4998   34   3.0576   51   -9.4  69    -14.0 68    0     1004.1   NA       0.0000   9999     0     0     0    
2019/07/24  15:34:00  BASE  1.10544  0    2.75184  56   -9.3  69    -14.0 68    0     1004.1   NA       0.0000   9999     0     0     0    
2019/07/24  15:35:00  BASE  1.62288  10   2.75184  56   -9.2  69    -13.9 69    0     1004.1   NA       0.0000   9999     0     0     0    
2019/07/24  15:36:00  BASE  1.7934   356  2.59896  325  -9.1  69    -13.9 69    0     1004.1   NA       0.0000   9999     0     0     0    
2019/07/24  15:37:00  BASE  1.90512  331  2.59896  325  -9.2  68    -14.0 70    0     1004.1   NA       0.0000   9999     0     0     0    
2019/07/24  15:38:00  BASE  1.65816  327  2.59896  325  -9.1  69    -13.9 70    0     1004.1   NA       0.0000   9999     0     0     0    
2019/07/24  15:39:00  BASE  1.176    314  2.59896  325  -9.1  69    -13.7 71    0     1004.1   NA       0.0000   9999     0     0     0    
2019/07/24  15:40:00  BASE  1.01724  295  2.59896  325  -9.0  70    -13.5 71    0     1004.1   NA       0.0000   9999     0     0     0    
2019/07/24  15:41:00  BASE  1.51704  288  2.59896  325  -8.9  70    -13.3 71    0     1004.1   NA       0.0000   9999     0     0     0    
2019/07/24  15:42:00  BASE  2.28732  295  2.93412  302  -8.8  71    -13.1 71    0     1004.1   NA       0.0000   9999     0     0     0    
2019/07/24  15:43:00  BASE  2.32848  297  2.93412  302  -8.7  71    -12.9 71    0     1004.1   NA       0.0000   9999     0     0     0    
2019/07/24  15:44:00  BASE  2.12268  301  2.93412  306  -8.6  71    -12.9 72    0     1004.1   NA       0.0000   9999     0     0     0    
2019/07/24  15:45:00  BASE  2.61072  309  3.48096  307  -8.6  71    -12.8 72    0     1004.1   NA       0.0000   9999     0     0     0    
2019/07/24  15:46:00  BASE  3.29868  317  3.86904  326  -8.6  71    -12.8 72    0     1004.1   NA       0.0000   9999     0     0     0    
2019/07/24  15:47:00  BASE  3.23988  319  3.86904  326  -8.6  71    -12.9 73    0     1004.1   NA       0.0000   9999     0     0     0    
2019/07/24  15:48:00  BASE  2.89884  312  3.86904  326  -8.7  71    -12.9 73    0     1004.1   NA       0.0000   9999     0     0     0    
2019/07/24  15:49:00  BASE  2.46372  303  3.86904  326  -8.7  72    -12.9 73    0     1004.1   NA       0.0000   9999     0     0     0    
2019/07/24  15:50:00  BASE  1.28772  283  3.86904  326  -8.9  72    -13.1 73    0     1004.1   NA       0.0000   9999     0     0     0    
2019/07/24  15:51:00  BASE  1.00548  159  3.86904  326  -9.1  72    -13.2 74    0     1004.1   NA       0.0000   9999     0     0     0    
2019/07/24  15:52:00  BASE  1.24068  155  3.86904  326  -9.2  72    -13.3 74    0     1004.1   NA       0.0000   9999     0     0     0    
2019/07/24  15:53:00  BASE  1.87572  151  3.86904  326  -9.5  72    -13.5 74    0     1004.1   NA       0.0000   9999     0     0     0    
2019/07/24  15:54:00  BASE  2.63424  145  3.86904  326  -9.7  72    -13.7 75    0     1004.1   NA       0.0000   9999     0     0     0    
2019/07/24  15:55:00  BASE  2.1462   147  3.86904  326  -9.7  73    -13.7 75    0     1004.2   NA       0.0000   9999     0     0     0    
2019/07/24  15:56:00  BASE  1.40532  155  3.83964  308  -9.6  73    -13.5 75    0     1004.2   NA       0.0000   9999     0     0     0    
2019/07/24  15:57:00  BASE  1.04664  160  3.83964  308  -9.5  73    -13.5 76    0     1004.2   NA       0.0000   9999     0     0     0    
2019/07/24  15:58:00  BASE  1.10544  151  2.96352  144  -9.3  73    -13.2 76    0     1004.2   NA       0.0000   9999     0     0     0    
2019/07/24  15:59:00  BASE  1.40532  146  2.96352  144  -9.0  72    -13.0 76    0     1004.2   NA       0.0000   9999     0     0     0    
2019/07/24  16:00:00  BASE  1.66404  149  2.96352  144  -8.9  72    -13.1 76    0     1004.2   NA       0.0000   9999     0     0     0    
2019/07/24  16:01:00  BASE  1.69932  146  2.96352  144  -8.9  71    -13.2 77    0     1004.2   NA       0.0000   9999     0     0     0    
2019/07/24  16:02:00  BASE  1.81104  144  2.96352  144  -8.9  70    -13.3 77    0     1004.2   NA       0.0000   9999     0     0     0    
2019/07/24  16:03:00  BASE  2.14032  147  2.75184  146  -9.0  70    -13.5 78    0     1004.2   NA       0.0000   9999     0     0     0    
2019/07/24  16:04:00  BASE  2.34612  149  2.96352  145  -9.3  70    -13.8 78    0     1004.2   NA       0.0000   9999     0     0     0    
2019/07/24  16:05:00  BASE  2.55192  147  3.41628  153  -9.5  70    -14.0 78    0     1004.2   NA       0.0000   9999     0     0     0    
2019/07/24  16:06:00  BASE  2.59896  137  3.41628  153  -9.7  70    -14.1 78    0     1004.2   NA       0.0000   9999     0     0     0    
2019/07/24  16:07:00  BASE  2.52252  131  3.41628  153  -9.8  70    -14.2 78    0     1004.2   NA       0.0000   9999     0     0     0    
2019/07/24  16:08:00  BASE  2.8518   130  3.56916  135  -9.8  71    -14.1 78    0     1004.2   NA       0.0000   9999     0     0     0    
2019/07/24  16:09:00  BASE  2.79888  115  3.56916  135  -9.7  71    -13.9 78    0     1004.2   NA       0.0000   9999     0     0     0    
2019/07/24  16:10:00  BASE  3.2046   107  5.38608  110  -9.6  72    -13.7 79    0     1004.3   NA       0.0000   9999     0     0     0    
2019/07/24  16:11:00  BASE  4.29828  108  5.44488  108  -9.5  72    -13.6 79    0     1004.3   NA       0.0000   9999     0     0     0    
2019/07/24  16:12:01  BASE  4.83336  101  5.44488  108  -9.5  72    -13.6 79    0     1004.3   NA       0.0000   9999     0     0     0    
2019/07/24  16:13:01  BASE  4.43352  104  5.44488  108  -9.5  71    -13.8 79    0     1004.2   NA       0.0000   9999     0     0     0    
2019/07/24  16:14:01  BASE  4.36884  104  5.44488  98   -9.6  71    -13.9 80    0     1004.2   NA       0.0000   9999     0     0     0    
2019/07/24  16:15:00  BASE  5.07444  99   5.74476  93   -9.7  71    -14.0 76    0     1004.2   NA       0.0000   9999     0     0     0    
2019/07/24  16:16:00  BASE  4.83924  97   5.74476  93   -9.8  71    -14.1 64    0     1004.3   NA       0.0000   9999     0     0     0    
2019/07/24  16:17:00  BASE  4.63932  98   5.74476  93   -9.7  71    -14.0 71    0     1004.2   NA       0.0000   9999     0     0     0    
2019/07/24  16:18:00  BASE  4.68636  98   5.74476  93   -9.7  71    -13.9 80    0     1004.2   NA       0.0000   9999     0     0     0    
2019/07/24  16:19:00  BASE  4.33944  96   5.74476  93   -9.6  71    -13.8 80    0     1004.2   NA       0.0000   9999     0     0     0    
2019/07/24  16:20:00  BASE  4.35708  95   5.74476  93   -9.5  71    -13.7 80    0     1004.2   NA       0.0000   9999     0     0     0    
2019/07/24  16:21:00  BASE  5.9388   93   8.98464  86   -9.5  71    -13.8 81    0     1004.2   NA       0.0000   9999     0     0     0    
2019/07/24  16:22:00  BASE  7.40292  88   8.98464  86   -9.6  70    -14.0 81    0     1004.2   NA       0.0000   9999     0     0     0    
2019/07/24  16:23:00  BASE  7.09128  85   8.98464  86   -9.7  70    -14.2 81    0     1004.2   NA       0.0000   9999     0     0     0    
2019/07/24  16:24:00  BASE  6.78552  86   8.98464  86   -9.9  69    -14.4 81    0     1004.2   NA       0.0000   9999     0     0     0    
2019/07/24  16:25:00  BASE  6.89724  86   8.98464  86   -10.0 69    -14.6 81    0     1004.1   NA       0.0000   9999     0     0     0    
2019/07/24  16:26:00  BASE  6.97368  85   8.98464  86   -10.1 69    -14.7 81    0     1004.1   NA       0.0000   9999     0     0     0    
2019/07/24  16:27:00  BASE  7.203    82   8.98464  86   -10.1 69    -14.7 82    0     1004.1   NA       0.0000   9999     0     0     0    
2019/07/24  16:28:00  BASE  7.51464  83   8.98464  86   -10.1 69    -14.7 82    0     1004.1   NA       0.0000   9999     0     0     0    
2019/07/24  16:29:00  BASE  7.88508  84   9.31392  89   -10.2 69    -14.8 81    0     1004.1   NA       0.0000   9999     0     0     0    
2019/07/24  16:30:00  BASE  8.23788  87   9.31392  89   -10.4 69    -15.0 82    0     1004.1   NA       0.0000   9999     0     0     0    
2019/07/24  16:31:00  BASE  8.085    89   9.31392  89   -10.5 69    -15.1 82    0     1004.1   NA       0.0000   9999     0     0     0    
2019/07/24  16:32:00  BASE  8.085    87   9.31392  89   -10.7 69    -15.3 81    0     1004.1   NA       0.0000   9999     0     0     0    
2019/07/24  16:33:00  BASE  8.28492  85   9.31392  89   -10.7 69    -15.2 82    0     1004.1   NA       0.0000   9999     0     0     0    
2019/07/24  16:34:00  BASE  8.12028  80   9.31392  89   -10.5 69    -15.1 83    0     1004.1   NA       0.0000   9999     0     0     0    
2019/07/24  16:35:00  BASE  7.62636  78   9.31392  89   -10.3 69    -14.8 82    0     1004.1   NA       0.0000   9999     0     0     0    
2019/07/24  16:36:00  BASE  6.95016  79   9.31392  89   -10.1 69    -14.7 82    0     1004.1   NA       0.0000   9999     0     0     0    
2019/07/24  16:37:00  BASE  6.8796   80   9.31392  89   -9.9  69    -14.5 83    0     1004.2   NA       0.0000   9999     0     0     0    
2019/07/24  16:38:00  BASE  6.96192  82   9.31392  89   -9.7  68    -14.5 82    0     1004.2   NA       0.0000   9999     0     0     0    
2019/07/24  16:39:00  BASE  6.56208  83   8.95524  91   -9.7  67    -14.6 82    0     1004.2   NA       0.0000   9999     0     0     0    
2019/07/24  16:40:00  BASE  6.13284  82   8.77296  88   -9.6  67    -14.7 82    0     1004.2   NA       0.0000   9999     0     0     0    
2019/07/24  16:41:00  BASE  5.96232  83   8.77296  88   -9.5  66    -14.6 81    0     1004.3   NA       0.0000   9999     0     0     0    
2019/07/24  16:42:00  BASE  5.95056  87   8.71416  83   -9.5  66    -14.7 80    0     1004.3   NA       0.0000   9999     0     0     0    
2019/07/24  16:43:00  BASE  5.6742   90   8.3496   80   -9.5  66    -14.7 86    0     1004.3   NA       0.0000   9999     0     0     0    
2019/07/24  16:44:00  BASE  5.33904  92   8.10852  77   -9.6  65    -14.9 86    0     1004.3   NA       0.0000   9999     0     0     0    
2019/07/24  16:45:00  BASE  5.25084  88   7.65576  85   -9.7  65    -15.0 86    0     1004.3   NA       0.0000   9999     0     0     0    
2019/07/24  16:46:00  BASE  5.0274   86   7.65576  85   -9.8  65    -15.2 86    0     1004.2   NA       0.0000   9999     0     0     0    
2019/07/24  16:47:00  BASE  5.19792  94   7.35     81   -10.0 65    -15.3 86    0     1004.2   NA       0.0000   9999     0     0     0    
2019/07/24  16:48:00  BASE  5.12736  96   6.71496  85   -10.0 65    -15.3 86    0     1004.2   NA       0.0000   9999     0     0     0    
2019/07/24  16:49:00  BASE  4.7334   96   6.62676  81   -9.9  65    -15.3 86    0     1004.2   NA       0.0000   9999     0     0     0    
2019/07/24  16:50:00  BASE  4.86864  98   6.62676  81   -9.9  65    -15.2 86    0     1004.2   NA       0.0000   9999     0     0     0    
2019/07/24  16:51:00  BASE  4.83924  102  6.53268  88   -9.9  66    -15.1 86    0     1004.2   NA       0.0000   9999     0     0     0    
2019/07/24  16:52:00  BASE  4.41588  111  6.07992  87   -9.9  66    -15.0 86    0     1004.2   NA       0.0000   9999     0     0     0    
2019/07/24  16:53:00  BASE  3.93372  118  6.07992  87   -9.9  67    -14.9 87    0     1004.2   NA       0.0000   9999     0     0     0    
2019/07/24  16:54:00  BASE  4.01016  113  6.02112  102  -9.9  67    -14.9 87    0     1004.2   NA       0.0000   9999     0     0     0    
2019/07/24  16:55:00  BASE  4.44528  108  6.02112  102  -10.0 67    -14.9 89    0     1004.2   NA       0.0000   9999     0     0     0    
2019/07/24  16:56:00  BASE  4.54524  107  6.02112  102  -10.1 68    -14.9 90    0     1004.2   NA       0.0000   9999     0     0     0    
2019/07/24  16:57:00  BASE  4.1454   107  5.41548  100  -10.1 68    -14.9 90    0     1004.2   NA       0.0000   9999     0     0     0    
2019/07/24  16:58:00  BASE  4.09248  102  5.41548  100  -10.2 68    -15.0 90    0     1004.3   NA       0.0000   9999     0     0     0    
2019/07/24  16:59:00  BASE  4.5864   96   5.41548  100  -10.3 68    -15.1 90    0     1004.4   NA       0.0000   9999     0     0     0    
2019/07/24  17:00:00  BASE  4.78044  95   5.41548  100  -10.3 68    -15.1 90    0     1004.4   NA       0.0000   9999     0     0     0    
2019/07/24  17:01:00  BASE  4.59816  94   5.2038   92   -10.3 69    -14.9 91    0     1004.4   NA       0.0000   9999     0     0     0    
2019/07/24  17:02:00  BASE  4.28652  95   5.2038   92   -10.2 69    -14.8 91    0     1004.4   NA       0.0000   9999     0     0     0    
2019/07/24  17:03:00  BASE  4.18068  98   5.2038   92   -10.1 69    -14.7 91    0     1004.4   NA       0.0000   9999     0     0     0    
2019/07/24  17:04:00  BASE  4.07484  104  5.2038   92   -10.0 69    -14.6 92    0     1004.4   NA       0.0000   9999     0     0     0    
2019/07/24  17:05:00  BASE  3.7338   108  5.2038   92   -9.9  69    -14.5 92    0     1004.4   NA       0.0000   9999     0     0     0    
2019/07/24  17:06:00  BASE  3.528    109  5.2038   92   -9.9  68    -14.6 92    0     1004.4   NA       0.0000   9999     0     0     0    
2019/07/24  17:07:00  BASE  3.4104   115  5.2038   92   -10.0 68    -14.7 92    0     1004.4   NA       0.0000   9999     0     0     0    
2019/07/24  17:08:00  BASE  3.39276  120  5.2038   92   -10.0 68    -14.8 92    0     1004.4   NA       0.0000   9999     0     0     0    
2019/07/24  17:09:00  BASE  3.45744  118  5.2038   92   -10.0 69    -14.7 92    0     1004.4   NA       0.0000   9999     0     0     0    
2019/07/24  17:10:00  BASE  3.34572  116  4.83924  86   -10.0 69    -14.7 92    0     1004.4   NA       0.0000   9999     0     0     0    
2019/07/24  17:11:00  BASE  3.21048  116  4.47468  100  -10.0 69    -14.7 92    0     1004.4   NA       0.0000   9999     0     0     0    
2019/07/24  17:12:00  BASE  3.09288  118  4.47468  100  -10.0 69    -14.5 92    0     1004.4   NA       0.0000   9999     0     0     0    
2019/07/24  17:13:00  BASE  2.89884  120  4.38648  113  -10.0 70    -14.5 92    0     1004.4   NA       0.0000   9999     0     0     0    
2019/07/24  17:14:00  BASE  2.65776  120  3.83964  111  -10.0 70    -14.5 93    0     1004.4   NA       0.0000   9999     0     0     0    
2019/07/24  17:15:00  BASE  2.4696   122  3.83964  111  -9.9  70    -14.4 93    0     1004.4   NA       0.0000   9999     0     0     0    
2019/07/24  17:16:00  BASE  2.34024  122  3.62796  124  -9.8  70    -14.2 93    0     1004.4   NA       0.0000   9999     0     0     0    
2019/07/24  17:17:00  BASE  2.16384  120  3.62796  124  -9.7  70    -14.2 94    0     1004.4   NA       0.0000   9999     0     0     0    
2019/07/24  17:18:00  BASE  2.00508  116  3.59856  117  -9.7  70    -14.2 94    0     1004.4   NA       0.0000   9999     0     0     0    
2019/07/24  17:19:00  BASE  1.97568  116  3.35748  120  -9.7  69    -14.3 93    0     1004.4   NA       0.0000   9999     0     0     0    
2019/07/24  17:20:00  BASE  1.8522   115  3.35748  120  -9.8  69    -14.5 92    0     1004.4   NA       0.0000   9999     0     0     0    
2019/07/24  17:21:00  BASE  1.51116  115  3.2046   116  -10.0 69    -14.7 92    0     1004.4   NA       0.0000   9999     0     0     0    
2019/07/24  17:22:00  BASE  1.0584   115  3.02232  125  -10.1 69    -14.8 91    0     1004.4   NA       0.0000   9999     0     0     0    
2019/07/24  17:23:00  BASE  1.00548  114  2.75184  125  -10.2 69    -14.9 90    0     1004.4   NA       0.0000   9999     0     0     0    
2019/07/24  17:24:00  BASE  1.29948  119  2.75184  125  -10.2 69    -14.7 89    0     1004.4   NA       0.0000   9999     0     0     0    
2019/07/24  17:25:00  BASE  1.07016  127  2.56956  119  -10.0 70    -14.4 88    0     1004.4   NA       0.0000   9999     0     0     0    
2019/07/24  17:26:00  BASE  0.96432  134  2.21088  112  -9.8  70    -14.2 88    0     1004.4   NA       0.0000   9999     0     0     0    
2019/07/24  17:27:01  BASE  0.9114   147  2.1462   120  -9.6  70    -14.1 88    0     1004.4   NA       0.0000   9999     0     0     0    
2019/07/24  17:28:01  BASE  0.59976  151  2.1462   120  -9.4  70    -13.9 88    0     1004.4   NA       0.0000   9999     0     0     0    
2019/07/24  17:29:01  BASE  0.29988  146  2.1168   136  -9.3  70    -13.8 87    0     1004.4   NA       0.0000   9999     0     0     0    
2019/07/24  17:30:01  BASE  0.0294   134  2.1168   136  -9.3  69    -13.9 87    0     1004.4   NA       0.0000   9999     0     0     0    
2019/07/24  17:31:00  BASE  0.03528  113  2.1168   136  -9.2  69    -13.9 87    0     1004.4   NA       0.0000   9999     0     0     0    
2019/07/24  17:32:00  BASE  0.52332  105  2.1168   136  -9.2  69    -13.8 87    0     1004.3   NA       0.0000   9999     0     0     0    
2019/07/24  17:33:00  BASE  0.51744  86   2.1168   136  -9.1  69    -13.8 87    0     1004.3   NA       0.0000   9999     0     0     0    
2019/07/24  17:34:00  BASE  0.05292  25   1.42296  141  -9.0  69    -13.7 86    0     1004.4   NA       0.0000   9999     0     0     0    
2019/07/24  17:35:00  BASE  0.28224  25   1.42296  141  -9.0  69    -13.7 86    0     1004.4   NA       0.0000   9999     0     0     0    
2019/07/24  17:36:00  BASE  0.5586   48   1.35828  102  -8.9  68    -13.7 85    0     1004.4   NA       0.0000   9999     0     0     0    
2019/07/24  17:37:00  BASE  0.63504  45   1.35828  102  -9.0  68    -13.8 84    0     1004.3   NA       0.0000   9999     0     0     0    
2019/07/24  17:38:00  BASE  1.06428  39   1.60524  29   -9.0  68    -13.9 83    0     1004.2   NA       0.0000   9999     0     0     0    
2019/07/24  17:39:00  BASE  1.69932  36   2.1462   36   -9.1  67    -14.0 83    0     1004.2   NA       0.0000   9999     0     0     0    
2019/07/24  17:40:00  BASE  1.9698   39   2.1462   42   -9.2  67    -14.1 82    0     1004.2   NA       0.0000   9999     0     0     0    
2019/07/24  17:41:00  BASE  1.89336  47   2.1462   42   -9.2  67    -14.2 82    0     1004.2   NA       0.0000   9999     0     0     0    
2019/07/24  17:42:00  BASE  1.59348  58   2.1462   42   -9.2  68    -14.1 82    0     1004.2   NA       0.0000   9999     0     0     0    
2019/07/24  17:43:00  BASE  1.42884  65   2.1462   42   -9.1  68    -14.0 81    0     1004.2   NA       0.0000   9999     0     0     0    
2019/07/24  17:44:00  BASE  1.37592  66   2.1462   42   -9.0  68    -13.8 81    0     1004.2   NA       0.0000   9999     0     0     0    
2019/07/24  17:45:00  BASE  1.12896  62   2.1462   42   -8.8  68    -13.7 80    0     1004.2   NA       0.0000   9999     0     0     0    
2019/07/24  17:46:00  BASE  0.91728  58   2.1462   42   -8.7  68    -13.6 79    0     1004.2   NA       0.0000   9999     0     0     0    
2019/07/24  17:47:00  BASE  0.94668  60   2.1462   42   -8.6  67    -13.6 78    0     1004.2   NA       0.0000   9999     0     0     0    
2019/07/24  17:48:00  BASE  1.16424  66   2.1462   42   -8.6  67    -13.7 77    0     1004.2   NA       0.0000   9999     0     0     0    
2019/07/24  17:49:00  BASE  1.45824  70   2.1462   42   -8.6  66    -13.8 76    0     1004.2   NA       0.0000   9999     0     0     0    
2019/07/24  17:50:00  BASE  1.6758   72   2.058    53   -8.6  65    -13.9 75    0     1004.2   NA       0.0000   9999     0     0     0    
2019/07/24  17:51:00  BASE  1.59348  72   1.87572  72   -8.6  65    -14.0 74    0     1004.2   NA       0.0000   9999     0     0     0    
2019/07/24  17:52:00  BASE  1.22892  69   1.87572  72   -8.5  64    -14.1 73    0     1004.2   NA       0.0000   9999     0     0     0    
2019/07/24  17:53:00  BASE  0.75852  58   1.87572  72   -8.5  63    -14.2 72    0     1004.2   NA       0.0000   9999     0     0     0    
2019/07/24  17:54:00  BASE  0.4998   25   1.87572  72   -8.4  63    -14.3 72    0     1004.2   NA       0.0000   9999     0     0     0    
2019/07/24  17:55:00  BASE  0.6468   356  1.87572  72   -8.4  62    -14.4 71    0     1004.2   NA       0.0000   9999     0     0     0    
2019/07/24  17:56:00  BASE  0.86436  356  1.87572  72   -8.4  61    -14.5 70    0     1004.2   NA       0.0000   9999     0     0     0    
2019/07/24  17:57:00  BASE  1.18776  7    1.87572  72   -8.5  61    -14.6 70    0     1004.2   NA       0.0000   9999     0     0     0    
2019/07/24  17:58:00  BASE  1.56408  21   1.90512  29   -8.6  61    -14.8 70    0     1004.2   NA       0.0000   9999     0     0     0    
2019/07/24  17:59:00  BASE  1.52292  30   1.90512  29   -8.8  62    -14.8 70    0     1004.2   NA       0.0000   9999     0     0     0    
2019/07/24  18:00:00  BASE  1.42296  33   1.90512  29   -8.9  63    -14.7 71    0     1004.3   NA       0.0000   9999     0     0     0    
2019/07/24  18:01:00  BASE  1.56996  32   1.93452  34   -8.9  63    -14.6 71    0     1004.3   NA       0.0000   9999     0     0     0    
2019/07/24  18:02:00  BASE  1.62876  26   1.93452  34   -9.0  64    -14.5 71    0     1004.3   NA       0.0000   9999     0     0     0    
2019/07/24  18:03:00  BASE  1.59936  20   1.93452  34   -8.9  65    -14.3 71    0     1004.3   NA       0.0000   9999     0     0     0    
2019/07/24  18:04:00  BASE  1.58172  13   1.93452  34   -8.9  65    -14.2 70    0     1004.4   NA       0.0000   9999     0     0     0    
2019/07/24  18:05:00  BASE  1.44648  9    1.93452  34   -8.9  66    -14.1 70    0     1004.3   NA       0.0000   9999     0     0     0    
2019/07/24  18:06:00  BASE  1.19364  11   1.93452  34   -8.9  66    -14.1 69    0     1004.3   NA       0.0000   9999     0     0     0    
2019/07/24  18:07:00  BASE  1.07604  19   1.93452  34   -8.9  66    -14.1 68    0     1004.3   NA       0.0000   9999     0     0     0    
2019/07/24  18:08:00  BASE  0.96432  24   1.93452  34   -8.9  66    -14.1 67    0     1004.2   NA       0.0000   9999     0     0     0    
2019/07/24  18:09:00  BASE  0.9114   19   1.93452  34   -8.8  66    -14.0 65    0     1004.2   NA       0.0000   9999     0     0     0    
2019/07/24  18:10:00  BASE  1.50528  24   2.1462   35   -8.8  66    -14.0 64    0     1004.2   NA       0.0000   9999     0     0     0    
2019/07/24  18:11:00  BASE  2.28144  33   3.29868  31   -8.9  66    -14.1 63    0     1004.3   NA       0.0000   9999     0     0     0    
2019/07/24  18:12:00  BASE  2.63424  30   3.29868  34   -9.0  66    -14.1 62    0     1004.3   NA       0.0000   9999     0     0     0    
2019/07/24  18:13:00  BASE  2.44608  32   3.29868  34   -9.0  66    -14.1 61    0     1004.4   NA       0.0000   9999     0     0     0    
2019/07/24  18:14:00  BASE  2.04036  28   3.29868  34   -9.0  66    -14.2 60    0     1004.4   NA       0.0000   9999     0     0     0    
2019/07/24  18:15:00  BASE  1.63464  15   3.29868  34   -9.0  66    -14.2 58    0     1004.3   NA       0.0000   9999     0     0     0    
2019/07/24  18:16:00  BASE  1.03488  6    3.29868  34   -8.9  66    -14.2 55    0     1004.2   NA       0.0000   9999     0     0     0    
2019/07/24  18:17:00  BASE  0.735    2    3.29868  34   -8.8  65    -14.2 53    0     1004.2   NA       0.0000   9999     0     0     0    
2019/07/24  18:18:00  BASE  1.28184  10   3.29868  34   -8.7  64    -14.3 49    0     1004.2   NA       0.0000   9999     0     0     0    
2019/07/24  18:19:00  BASE  2.36964  22   3.29868  34   -8.7  63    -14.4 42    0     1004.3   NA       0.0000   9999     0     0     0    
2019/07/24  18:20:00  BASE  3.08112  15   3.38688  6    -8.8  63    -14.6 30    0     1004.3   NA       0.0000   9999     0     0     0    
2019/07/24  18:21:00  BASE  2.92824  5    3.38688  6    -8.8  63    -14.6 26    0     1004.3   NA       0.0000   9999     0     0     0    
2019/07/24  18:22:00  BASE  2.59896  3    3.38688  6    -8.9  64    -14.5 23    0     1004.2   NA       0.0000   9999     0     0     0    
2019/07/24  18:23:00  BASE  1.97568  1    3.38688  6    -8.9  64    -14.4 23    0     1004.2   NA       0.0000   9999     0     0     0    
2019/07/24  18:24:00  BASE  1.323    5    3.38688  6    -8.9  65    -14.3 23    0     1004.2   NA       0.0000   9999     0     0     0    
2019/07/24  18:25:00  BASE  1.42296  4    3.38688  6    -8.8  66    -14.0 22    0     1004.2   NA       0.0000   9999     0     0     0    
2019/07/24  18:26:00  BASE  1.6758   15   3.38688  6    -8.7  65    -14.0 22    0     1004.2   NA       0.0000   9999     0     0     0    
2019/07/24  18:27:00  BASE  2.03448  44   3.38688  6    -8.7  65    -14.1 22    0     1004.2   NA       0.0000   9999     0     0     0    
2019/07/24  18:28:00  BASE  2.29908  57   3.38688  6    -8.7  64    -14.2 21    0     1004.2   NA       0.0000   9999     0     0     0    
2019/07/24  18:29:01  BASE  1.7934   50   3.38688  6    -8.7  64    -14.3 21    0     1004.2   NA       0.0000   9999     0     0     0    
2019/07/24  18:30:00  BASE  1.07016  42   3.1164   1    -8.7  64    -14.4 21    0     1004.1   NA       0.0000   9999     0     0     0    
2019/07/24  18:31:00  BASE  1.02312  51   2.96352  111  -8.8  63    -14.5 20    0     1004.1   NA       0.0000   9999     0     0     0    
2019/07/24  18:32:00  BASE  1.24068  60   2.56956  62   -8.7  63    -14.5 20    0     1004.1   NA       0.0000   9999     0     0     0    
2019/07/24  18:33:00  BASE  1.47588  59   2.56956  62   -8.7  62    -14.6 20    0     1004.1   NA       0.0000   9999     0     0     0    
2019/07/24  18:34:00  BASE  1.87572  63   2.56956  62   -8.7  62    -14.7 19    0     1004.1   NA       0.0000   9999     0     0     0    
2019/07/24  18:35:00  BASE  2.21088  63   2.56956  62   -8.7  61    -14.8 19    0     1004.1   NA       0.0000   9999     0     0     0    
2019/07/24  18:36:00  BASE  2.31672  64   2.56956  62   -8.7  61    -14.9 19    0     1004.1   NA       0.0000   9999     0     0     0    
2019/07/24  18:37:00  BASE  2.28144  72   2.56956  62   -8.6  61    -14.9 19    0     1004.1   NA       0.0000   9999     0     0     0    
2019/07/24  18:38:00  BASE  2.499    79   3.02232  82   -8.6  60    -14.9 18    0     1004.1   NA       0.0000   9999     0     0     0    
2019/07/24  18:39:00  BASE  2.55192  80   3.02232  82   -8.5  60    -14.9 18    0     1004.1   NA       0.0000   9999     0     0     0    
2019/07/24  18:40:00  BASE  2.30496  76   3.02232  82   -8.4  59    -15.0 18    0     1004.1   NA       0.0000   9999     0     0     0    
2019/07/24  18:41:00  BASE  2.19324  63   3.02232  82   -8.3  59    -15.0 17    0     1004.1   NA       0.0000   9999     0     0     0    
2019/07/24  18:42:00  BASE  2.02272  47   3.02232  82   -8.1  58    -15.0 17    0     1004.1   NA       0.0000   9999     0     0     0    
2019/07/24  18:43:00  BASE  1.48176  41   3.02232  82   -7.9  57    -14.9 17    0     1004.1   NA       0.0000   9999     0     0     0    
2019/07/24  18:44:00  BASE  0.65856  50   3.02232  82   -7.7  56    -14.9 17    0     1004.1   NA       0.0000   9999     0     0     0    
2019/07/24  18:45:00  BASE  0.2058   57   3.02232  82   -7.5  55    -15.0 16    0     1004.1   NA       0.0000   9999     0     0     0    
2019/07/24  18:46:00  BASE  1.01136  60   3.29868  55   -7.5  54    -15.2 16    0     1004.2   NA       0.0000   9999     0     0     0    
2019/07/24  18:47:00  BASE  2.60484  62   3.53976  64   -7.6  54    -15.4 16    0     1004.2   NA       0.0000   9999     0     0     0    
2019/07/24  18:48:00  BASE  3.04584  67   3.53976  64   -7.8  54    -15.5 16    0     1004.2   NA       0.0000   9999     0     0     0    
2019/07/24  18:49:00  BASE  2.69892  86   3.53976  64   -8.0  54    -15.6 15    0     1004.2   NA       0.0000   9999     0     0     0    
2019/07/24  18:50:00  BASE  2.66952  96   3.53976  64   -8.1  55    -15.6 15    0     1004.1   NA       0.0000   9999     0     0     0    
2019/07/24  18:51:00  BASE  2.48724  94   3.53976  64   -8.2  56    -15.5 15    0     1004.1   NA       0.0000   9999     0     0     0    
2019/07/24  18:52:00  BASE  2.45784  89   3.69264  80   -8.2  56    -15.4 14    0     1004.2   NA       0.0000   9999     0     0     0    
2019/07/24  18:53:00  BASE  2.7342   81   3.69264  80   -8.3  57    -15.3 14    0     1004.1   NA       0.0000   9999     0     0     0    
2019/07/24  18:54:00  BASE  2.92236  82   3.69264  80   -8.3  57    -15.3 14    0     1004.1   NA       0.0000   9999     0     0     0    
2019/07/24  18:55:00  BASE  3.30456  85   4.1454   88   -8.5  57    -15.4 14    0     1004.1   NA       0.0000   9999     0     0     0    
2019/07/24  18:56:00  BASE  3.72204  89   4.38648  95   -8.7  58    -15.5 13    0     1004.1   NA       0.0000   9999     0     0     0    
2019/07/24  18:57:00  BASE  4.46292  95   5.47428  102  -9.0  58    -15.7 13    0     1004.1   NA       0.0000   9999     0     0     0    
2019/07/24  18:58:00  BASE  4.80396  96   5.47428  102  -9.3  59    -15.8 13    0     1004.1   NA       0.0000   9999     0     0     0    
2019/07/24  18:59:00  BASE  4.44528  93   5.47428  102  -9.6  60    -15.9 12    0     1004.1   NA       0.0000   9999     0     0     0    
2019/07/24  19:00:00  BASE  4.32768  85   5.47428  102  -9.7  61    -15.8 12    0     1004.1   NA       0.0000   9999     0     0     0    
2019/07/24  19:01:00  BASE  4.72752  78   5.59776  80   -9.8  62    -15.7 12    0     1004.1   NA       0.0000   9999     0     0     0    
2019/07/24  19:02:00  BASE  4.94508  78   5.59776  80   -9.8  63    -15.6 12    0     1004.2   NA       0.0000   9999     0     0     0    
2019/07/24  19:03:00  BASE  4.83336  78   5.59776  80   -9.8  63    -15.4 11    0     1004.2   NA       0.0000   9999     0     0     0    
2019/07/24  19:04:00  BASE  5.23908  74   6.02112  62   -9.7  64    -15.2 11    0     1004.3   NA       0.0000   9999     0     0     0    
2019/07/24  19:05:00  BASE  5.39784  76   6.10932  77   -9.6  64    -15.1 11    0     1004.3   NA       0.0000   9999     0     0     0    
2019/07/24  19:06:00  BASE  4.91568  83   6.10932  77   -9.7  64    -15.2 10    0     1004.3   NA       0.0000   9999     0     0     0    
2019/07/24  19:07:00  BASE  4.94508  88   6.10932  77   -10.0 65    -15.4 10    0     1004.3   NA       0.0000   9999     0     0     0    
2019/07/24  19:08:00  BASE  5.52132  94   6.10932  77   -10.3 65    -15.7 10    0     1004.2   NA       0.0000   9999     0     0     0    
2019/07/24  19:09:00  BASE  5.84472  96   6.3504   96   -10.7 65    -15.9 9     0     1004.2   NA       0.0000   9999     0     0     0    
2019/07/24  19:10:00  BASE  6.00348  95   6.3504   91   -11.0 66    -16.1 9     0     1004.2   NA       0.0000   9999     0     0     0    
2019/07/24  19:11:00  BASE  6.10932  95   6.47388  96   -11.2 67    -16.2 9     0     1004.2   NA       0.0000   9999     0     0     0    
2019/07/24  19:12:00  BASE  6.25044  97   6.59148  95   -11.2 68    -16.0 9     0     1004.2   NA       0.0000   9999     0     0     0    
2019/07/24  19:13:00  BASE  6.15636  101  6.59148  95   -11.2 68    -15.8 8     0     1004.2   NA       0.0000   9999     0     0     0    
2019/07/24  19:14:00  BASE  5.73888  103  6.59148  95   -11.0 69    -15.6 8     0     1004.2   NA       0.0000   9999     0     0     0    
2019/07/24  19:15:00  BASE  5.53308  101  6.59148  95   -10.9 69    -15.5 8     0     1004.3   NA       0.0000   9999     0     0     0    
2019/07/24  19:16:00  BASE  5.25084  97   6.59148  95   -10.8 69    -15.5 8     0     1004.4   NA       0.0000   9999     0     0     0    
2019/07/24  19:17:00  BASE  5.16852  99   6.59148  95   -10.8 68    -15.5 7     0     1004.3   NA       0.0000   9999     0     0     0    
2019/07/24  19:18:00  BASE  5.47428  101  6.59148  95   -10.8 68    -15.5 7     0     1004.4   NA       0.0000   9999     0     0     0    
2019/07/24  19:19:00  BASE  5.2332   94   6.59148  95   -10.8 68    -15.6 7     0     1004.4   NA       0.0000   9999     0     0     0    
2019/07/24  19:20:00  BASE  4.62168  90   6.59148  95   -10.9 68    -15.7 7     0     1004.4   NA       0.0000   9999     0     0     0    
2019/07/24  19:21:00  BASE  4.08072  91   6.59148  95   -11.0 67    -15.8 6     0     1004.4   NA       0.0000   9999     0     0     0    
2019/07/24  19:22:00  BASE  3.9396   86   6.41508  101  -11.1 67    -16.0 6     0     1004.4   NA       0.0000   9999     0     0     0    
2019/07/24  19:23:00  BASE  4.21008  80   6.2034   110  -11.2 67    -16.1 6     0     1004.3   NA       0.0000   9999     0     0     0    
2019/07/24  19:24:00  BASE  4.86864  71   6.2034   61   -11.1 68    -15.9 6     0     1004.4   NA       0.0000   9999     0     0     0    
2019/07/24  19:25:00  BASE  5.03328  67   6.2034   61   -10.9 68    -15.5 6     0     1004.4   NA       0.0000   9999     0     0     0    
2019/07/24  19:26:00  BASE  4.4688   74   6.2034   61   -10.5 69    -15.1 6     0     1004.3   NA       0.0000   9999     0     0     0    
2019/07/24  19:27:00  BASE  4.1748   82   6.2034   61   -10.0 69    -14.6 6     0     1004.3   NA       0.0000   9999     0     0     0    
2019/07/24  19:28:00  BASE  4.12776  83   6.2034   61   -9.7  69    -14.4 6     0     1004.3   NA       0.0000   9999     0     0     0    
2019/07/24  19:29:00  BASE  4.48056  83   6.2034   61   -9.6  68    -14.5 6     0     1004.3   NA       0.0000   9999     0     0     0    
2019/07/24  19:30:00  BASE  4.95096  85   6.2034   61   -9.7  67    -14.8 6     0     1004.3   NA       0.0000   9999     0     0     0    
2019/07/24  19:31:00  BASE  4.9392   89   6.2034   61   -9.9  65    -15.2 6     0     1004.3   NA       0.0000   9999     0     0     0    
2019/07/24  19:32:00  BASE  4.74516  93   6.2034   61   -10.3 64    -15.7 6     0     1004.4   NA       0.0000   9999     0     0     0    
2019/07/24  19:33:00  BASE  4.93332  94   6.2034   61   -10.6 64    -16.1 6     0     1004.4   NA       0.0000   9999     0     0     0    
2019/07/24  19:34:01  BASE  5.22732  95   5.92704  55   -10.8 64    -16.3 6     0     1004.4   NA       0.0000   9999     0     0     0    
2019/07/24  19:35:00  BASE  5.13912  96   5.78004  73   -11.0 64    -16.5 6     0     1004.4   NA       0.0000   9999     0     0     0    
2019/07/24  19:36:00  BASE  5.04504  94   5.78004  73   -11.0 64    -16.4 6     0     1004.4   NA       0.0000   9999     0     0     0    
2019/07/24  19:37:00  BASE  5.0568   92   5.78004  73   -10.9 65    -16.2 6     0     1004.4   NA       0.0000   9999     0     0     0    
2019/07/24  19:38:00  BASE  4.90392  92   5.78004  73   -10.7 65    -16.1 6     0     1004.4   NA       0.0000   9999     0     0     0    
2019/07/24  19:39:00  BASE  4.95684  94   5.80944  104  -10.6 64    -16.1 6     0     1004.4   NA       0.0000   9999     0     0     0    
2019/07/24  19:40:00  BASE  5.3802   98   5.99172  105  -10.5 63    -16.1 6     0     1004.4   NA       0.0000   9999     0     0     0    
2019/07/24  19:41:00  BASE  5.20968  101  5.99172  105  -10.4 63    -16.2 6     0     1004.4   NA       0.0000   9999     0     0     0    
2019/07/24  19:42:00  BASE  4.62168  109  5.99172  105  -10.3 62    -16.2 6     0     1004.4   NA       0.0000   9999     0     0     0    
2019/07/24  19:43:00  BASE  4.63932  113  5.99172  105  -10.2 62    -16.1 5     0     1004.4   NA       0.0000   9999     0     0     0    
2019/07/24  19:44:01  BASE  5.25672  108  6.13872  100  -10.0 61    -16.0 5     0     1004.4   NA       0.0000   9999     0     0     0    
2019/07/24  19:45:00  BASE  5.439    99   6.13872  100  -9.8  61    -15.9 5     0     1004.5   NA       0.0000   9999     0     0     0    
2019/07/24  19:46:00  BASE  5.26848  93   6.13872  100  -9.8  60    -16.0 5     0     1004.5   NA       0.0000   9999     0     0     0    
2019/07/24  19:47:00  BASE  4.83336  94   6.13872  100  -9.8  59    -16.3 5     0     1004.5   NA       0.0000   9999     0     0     0    
2019/07/24  19:48:00  BASE  4.47468  95   6.13872  100  -9.8  59    -16.3 5     0     1004.6   NA       0.0000   9999     0     0     0    
2019/07/24  19:49:00  BASE  4.33356  93   6.13872  100  -9.7  58    -16.3 5     0     1004.6   NA       0.0000   9999     0     0     0    
2019/07/24  19:50:00  BASE  3.88668  95   6.13872  100  -9.6  58    -16.4 5     0     1004.6   NA       0.0000   9999     0     0     0    
2019/07/24  19:51:00  BASE  3.72792  103  6.13872  100  -9.4  57    -16.3 4     0     1004.6   NA       0.0000   9999     0     0     0    
2019/07/24  19:52:00  BASE  3.25752  119  6.13872  100  -9.2  57    -16.1 4     0     1004.6   NA       0.0000   9999     0     0     0    
2019/07/24  19:53:00  BASE  3.1164   131  6.13872  100  -9.0  57    -16.0 4     0     1004.6   NA       0.0000   9999     0     0     0    
2019/07/24  19:54:00  BASE  3.8808   136  5.83884  93   -8.8  57    -15.8 4     0     1004.5   NA       0.0000   9999     0     0     0    
2019/07/24  19:55:00  BASE  4.35708  133  5.83884  93   -8.7  57    -15.7 4     0     1004.5   NA       0.0000   9999     0     0     0    
2019/07/24  19:56:00  BASE  4.30416  129  5.80944  87   -8.5  57    -15.5 3     0     1004.5   NA       0.0000   9999     0     0     0    
2019/07/24  19:57:00  BASE  4.12776  128  5.80944  87   -8.4  57    -15.3 3     0     1004.5   NA       0.0000   9999     0     0     0    
2019/07/24  19:58:00  BASE  4.59228  128  5.59776  130  -8.3  57    -15.3 3     0     1004.4   NA       0.0000   9999     0     0     0    
2019/07/24  19:59:00  BASE  5.22732  134  5.68596  134  -8.2  58    -15.1 3     0     1004.4   NA       0.0000   9999     0     0     0    
2019/07/24  20:00:00  BASE  5.15088  140  5.68596  134  -8.1  58    -15.0 2     0     1004.4   NA       0.0000   9999     0     0     0    
2019/07/24  20:01:00  BASE  4.94508  145  5.68596  134  -8.1  59    -14.8 2     0     1004.4   NA       0.0000   9999     0     0     0    
2019/07/24  20:02:00  BASE  4.71576  145  5.68596  134  -8.1  59    -14.7 2     0     1004.4   NA       0.0000   9999     0     0     0    
2019/07/24  20:03:00  BASE  4.4688   142  5.68596  134  -8.1  60    -14.6 2     0     1004.4   NA       0.0000   9999     0     0     0    
2019/07/24  20:04:00  BASE  4.12188  132  5.68596  134  -8.3  60    -14.6 1     0     1004.5   NA       0.0000   9999     0     0     0    
2019/07/24  20:05:00  BASE  3.81024  120  5.68596  134  -8.4  61    -14.6 1     0     1004.5   NA       0.0000   9999     0     0     0    
2019/07/24  20:06:00  BASE  3.7632   115  5.68596  134  -8.6  61    -14.7 1     0     1004.5   NA       0.0000   9999     0     0     0    
2019/07/24  20:07:00  BASE  3.52212  114  5.68596  134  -8.8  62    -14.8 1     0     1004.5   NA       0.0000   9999     0     0     0    
2019/07/24  20:08:00  BASE  3.39864  114  5.68596  134  -9.1  62    -15.1 1     0     1004.5   NA       0.0000   9999     0     0     0    
2019/07/24  20:09:00  BASE  3.38688  118  5.3214   145  -9.2  62    -15.2 1     0     1004.5   NA       0.0000   9999     0     0     0    
2019/07/24  20:10:00  BASE  3.15756  117  5.1744   153  -9.3  62    -15.3 1     0     1004.5   NA       0.0000   9999     0     0     0    
2019/07/24  20:11:00  BASE  3.0282   107  4.96272  151  -9.4  62    -15.4 1     0     1004.4   NA       0.0000   9999     0     0     0    
2019/07/24  20:12:00  BASE  2.81064  113  4.89804  141  -9.4  62    -15.5 0     0     1004.4   NA       0.0000   9999     0     0     0    
2019/07/24  20:13:00  BASE  2.61072  123  4.2042   117  -9.4  62    -15.4 0     0     1004.4   NA       0.0000   9999     0     0     0    
2019/07/24  20:14:00  BASE  2.91648  119  4.2042   117  -9.6  61    -15.7 0     0     1004.4   NA       0.0000   9999     0     0     0    
2019/07/24  20:15:00  BASE  3.22224  119  4.05132  108  -9.7  61    -15.8 0     0     1004.4   NA       0.0000   9999     0     0     0    
2019/07/24  20:16:00  BASE  3.234    125  3.65736  111  -9.8  61    -15.8 0     0     1004.4   NA       0.0000   9999     0     0     0    
2019/07/24  20:17:00  BASE  3.15168  126  3.59856  113  -9.8  62    -15.8 0     0     1004.4   NA       0.0000   9999     0     0     0    
2019/07/24  20:18:00  BASE  3.12228  121  3.53976  109  -9.8  62    -15.7 0     0     1004.4   NA       0.0000   9999     0     0     0    
2019/07/24  20:19:00  BASE  2.95764  120  3.53976  109  -9.8  62    -15.7 0     0     1004.4   NA       0.0000   9999     0     0     0    
2019/07/24  20:20:00  BASE  2.62248  118  3.53976  109  -9.8  62    -15.7 0     0     1004.4   NA       0.0000   9999     0     0     0    
2019/07/24  20:21:00  BASE  2.352    117  3.53976  109  -9.7  62    -15.6 0     0     1004.4   NA       0.0000   9999     0     0     0    
2019/07/24  20:22:00  BASE  2.646    115  3.53976  109  -9.7  62    -15.7 0     0     1004.4   NA       0.0000   9999     0     0     0    
2019/07/24  20:23:00  BASE  3.25164  112  3.59856  116  -9.6  61    -15.7 0     0     1004.4   NA       0.0000   9999     0     0     0    
2019/07/24  20:24:00  BASE  3.4692   105  3.81024  92   -9.4  61    -15.5 0     0     1004.5   NA       0.0000   9999     0     0     0    
2019/07/24  20:25:00  BASE  3.4986   96   3.81024  92   -9.4  61    -15.5 0     0     1004.4   NA       0.0000   9999     0     0     0    
2019/07/24  20:26:00  BASE  3.38688  102  3.81024  92   -9.4  61    -15.6 0     0     1004.4   NA       0.0000   9999     0     0     0    
2019/07/24  20:27:00  BASE  3.3516   111  4.02192  105  -9.5  61    -15.7 0     0     1004.4   NA       0.0000   9999     0     0     0    
2019/07/24  20:28:00  BASE  3.54564  111  4.02192  105  -9.6  61    -15.8 0     0     1004.4   NA       0.0000   9999     0     0     0    
2019/07/24  20:29:00  BASE  3.55152  111  4.02192  105  -9.7  61    -15.9 0     0     1004.4   NA       0.0000   9999     0     0     0    
2019/07/24  20:30:00  BASE  3.56328  108  4.02192  105  -9.8  61    -15.8 0     0     1004.4   NA       0.0000   9999     0     0     0    
2019/07/24  20:31:00  BASE  3.63384  104  4.02192  105  -9.7  62    -15.6 0     0     1004.4   NA       0.0000   9999     0     0     0    
2019/07/24  20:32:00  BASE  3.39864  102  4.02192  105  -9.5  62    -15.4 0     0     1004.4   NA       0.0000   9999     0     0     0    
2019/07/24  20:33:00  BASE  3.07524  97   4.02192  105  -9.2  62    -15.1 0     0     1004.4   NA       0.0000   9999     0     0     0    
2019/07/24  20:34:00  BASE  2.84592  91   4.02192  105  -9.0  62    -14.9 0     0     1004.5   NA       0.0000   9999     0     0     0    
2019/07/24  20:35:00  BASE  2.85768  87   4.02192  105  -8.8  61    -14.8 0     0     1004.5   NA       0.0000   9999     0     0     0    
2019/07/24  20:36:00  BASE  2.89296  85   4.02192  105  -8.7  61    -14.9 0     0     1004.5   NA       0.0000   9999     0     0     0    
2019/07/24  20:37:00  BASE  2.95764  82   3.90432  108  -8.7  60    -15.1 0     0     1004.5   NA       0.0000   9999     0     0     0    
2019/07/24  20:38:00  BASE  3.09288  80   3.90432  108  -8.8  60    -15.2 0     0     1004.5   NA       0.0000   9999     0     0     0    
2019/07/24  20:39:00  BASE  3.03408  75   3.90432  108  -8.7  60    -15.1 0     0     1004.5   NA       0.0000   9999     0     0     0    
2019/07/24  20:40:00  BASE  2.99292  66   3.72204  106  -8.7  60    -15.1 0     0     1004.5   NA       0.0000   9999     0     0     0    
2019/07/24  20:41:00  BASE  2.9694   61   3.65736  104  -8.7  59    -15.2 0     0     1004.5   NA       0.0000   9999     0     0     0    
2019/07/24  20:42:00  BASE  2.80476  58   3.29868  78   -8.6  59    -15.1 0     0     1004.5   NA       0.0000   9999     0     0     0    
2019/07/24  20:43:00  BASE  2.56368  48   3.29868  78   -8.6  59    -15.1 0     0     1004.5   NA       0.0000   9999     0     0     0    
2019/07/24  20:44:00  BASE  2.37552  35   3.29868  78   -8.6  60    -15.1 0     0     1004.4   NA       0.0000   9999     0     0     0    
2019/07/24  20:45:01  BASE  2.19912  24   3.29868  78   -8.7  60    -15.0 0     0     1004.4   NA       0.0000   9999     0     0     0    
2019/07/24  20:46:01  BASE  1.8522   17   3.29868  78   -8.7  61    -14.9 0     0     1004.4   NA       0.0000   9999     0     0     0    
2019/07/24  20:47:00  BASE  1.64052  15   3.29868  78   -8.8  62    -14.8 0     0     1004.4   NA       0.0000   9999     0     0     0    
2019/07/24  20:48:00  BASE  1.617    18   3.2046   60   -8.9  62    -14.8 0     0     1004.4   NA       0.0000   9999     0     0     0    
2019/07/24  20:49:00  BASE  1.5876   12   3.2046   60   -8.9  63    -14.7 0     0     1004.4   NA       0.0000   9999     0     0     0    
2019/07/24  20:50:00  BASE  1.51704  6    3.087    68   -9.0  63    -14.6 0     0     1004.3   NA       0.0000   9999     0     0     0    
2019/07/24  20:51:00  BASE  1.59936  355  2.96352  70   -9.0  64    -14.6 0     0     1004.4   NA       0.0000   9999     0     0     0    
2019/07/24  20:52:00  BASE  1.8816   341  2.59896  43   -9.0  64    -14.6 0     0     1004.4   NA       0.0000   9999     0     0     0    
2019/07/24  20:53:00  BASE  2.45784  337  3.1164   338  -9.0  64    -14.6 0     0     1004.4   NA       0.0000   9999     0     0     0    
2019/07/24  20:54:00  BASE  2.7342   334  3.1164   338  -9.1  65    -14.5 0     0     1004.4   NA       0.0000   9999     0     0     0    
2019/07/24  20:55:00  BASE  2.5872   345  3.1164   338  -9.1  65    -14.5 0     0     1004.4   NA       0.0000   9999     0     0     0    
2019/07/24  20:56:00  BASE  2.39904  350  3.1164   338  -9.2  65    -14.5 0     0     1004.4   NA       0.0000   9999     0     0     0    
2019/07/24  20:57:00  BASE  2.00508  349  3.1164   338  -9.2  66    -14.5 0     0     1004.4   NA       0.0000   9999     0     0     0    
2019/07/24  20:58:00  BASE  1.83456  359  3.1164   338  -9.2  66    -14.4 0     0     1004.4   NA       0.0000   9999     0     0     0    
2019/07/24  20:59:00  BASE  1.86984  6    3.1164   338  -9.2  66    -14.4 0     0     1004.4   NA       0.0000   9999     0     0     0    
2019/07/24  21:00:00  BASE  1.89924  11   3.1164   338  -9.2  66    -14.4 0     0     1004.4   NA       0.0000   9999     0     0     0    
2019/07/24  21:01:00  BASE  2.02272  15   3.1164   338  -9.2  65    -14.5 0     0     1004.4   NA       0.0000   9999     0     0     0    
2019/07/24  21:02:00  BASE  2.10504  18   3.1164   338  -9.2  65    -14.5 0     0     1004.4   NA       0.0000   9999     0     0     0    
2019/07/24  21:03:00  BASE  2.0286   20   2.87532  351  -9.3  65    -14.6 0     0     1004.4   NA       0.0000   9999     0     0     0    
2019/07/24  21:04:00  BASE  2.3226   20   3.0576   20   -9.4  66    -14.6 0     0     1004.4   NA       0.0000   9999     0     0     0    
2019/07/24  21:05:00  BASE  2.4696   19   3.0576   20   -9.5  66    -14.7 0     0     1004.4   NA       0.0000   9999     0     0     0    
2019/07/24  21:06:00  BASE  2.34024  19   3.0576   20   -9.6  67    -14.6 0     0     1004.4   NA       0.0000   9999     0     0     0    
2019/07/24  21:07:00  BASE  2.352    18   3.0576   20   -9.6  67    -14.6 0     0     1004.4   NA       0.0000   9999     0     0     0    
2019/07/24  21:08:00  BASE  2.06388  16   3.0576   20   -9.7  67    -14.6 0     0     1004.3   NA       0.0000   9999     0     0     0    
2019/07/24  21:09:00  BASE  1.69344  17   3.0576   20   -9.6  68    -14.5 0     0     1004.2   NA       0.0000   9999     0     0     0    
2019/07/24  21:10:00  BASE  1.54644  20   3.0576   20   -9.5  68    -14.3 0     0     1004.2   NA       0.0000   9999     0     0     0    
2019/07/24  21:11:00  BASE  1.45824  23   3.0576   20   -9.4  69    -14.1 0     0     1004.2   NA       0.0000   9999     0     0     0    
2019/07/24  21:12:00  BASE  1.33476  23   3.0576   20   -9.3  69    -14.0 0     0     1004.2   NA       0.0000   9999     0     0     0    
2019/07/24  21:13:00  BASE  1.21128  25   3.0576   20   -9.1  69    -13.8 0     0     1004.2   NA       0.0000   9999     0     0     0    
2019/07/24  21:14:00  BASE  1.2348   30   2.63424  17   -8.9  68    -13.7 0     0     1004.2   NA       0.0000   9999     0     0     0    
2019/07/24  21:15:00  BASE  1.38768  35   2.63424  17   -8.7  67    -13.7 0     0     1004.2   NA       0.0000   9999     0     0     0    
2019/07/24  21:16:00  BASE  1.59936  44   2.51076  22   -8.6  66    -13.8 0     0     1004.1   NA       0.0000   9999     0     0     0    
2019/07/24  21:17:00  BASE  1.8228   45   2.24028  16   -8.6  64    -14.1 0     0     1004.2   NA       0.0000   9999     0     0     0    
2019/07/24  21:18:00  BASE  1.95216  42   2.0874   42   -8.7  63    -14.5 0     0     1004.2   NA       0.0000   9999     0     0     0    
2019/07/24  21:19:00  BASE  2.03448  41   2.26968  34   -8.8  62    -14.7 0     0     1004.1   NA       0.0000   9999     0     0     0    
2019/07/24  21:20:00  BASE  2.06388  37   2.26968  34   -9.0  62    -14.9 0     0     1004.1   NA       0.0000   9999     0     0     0    
2019/07/24  21:21:00  BASE  1.93452  35   2.26968  34   -9.2  62    -15.0 0     0     1004.1   NA       0.0000   9999     0     0     0    
2019/07/24  21:22:00  BASE  1.80516  39   2.26968  34   -9.2  63    -15.0 0     0     1004.1   NA       0.0000   9999     0     0     0    
2019/07/24  21:23:00  BASE  1.7346   45   2.26968  34   -9.2  63    -14.9 0     0     1004.1   NA       0.0000   9999     0     0     0    
2019/07/24  21:24:00  BASE  1.66404  46   2.26968  34   -9.2  63    -14.9 0     0     1004.1   NA       0.0000   9999     0     0     0    
2019/07/24  21:25:00  BASE  1.62876  51   2.26968  34   -9.2  64    -14.8 0     0     1004.1   NA       0.0000   9999     0     0     0    
2019/07/24  21:26:00  BASE  1.58172  61   2.26968  34   -9.2  64    -14.8 0     0     1004.2   NA       0.0000   9999     0     0     0    
2019/07/24  21:27:00  BASE  1.617    69   2.26968  34   -9.1  64    -14.7 0     0     1004.2   NA       0.0000   9999     0     0     0    
2019/07/24  21:28:00  BASE  1.62876  69   2.26968  34   -9.0  64    -14.6 0     0     1004.2   NA       0.0000   9999     0     0     0    
2019/07/24  21:29:00  BASE  1.51704  67   2.26968  34   -9.0  64    -14.5 0     0     1004.2   NA       0.0000   9999     0     0     0    
2019/07/24  21:30:00  BASE  1.15836  71   2.0286   35   -8.9  64    -14.5 0     0     1004.1   NA       0.0000   9999     0     0     0    
2019/07/24  21:31:00  BASE  1.01136  81   1.93452  32   -8.8  63    -14.5 0     0     1004.1   NA       0.0000   9999     0     0     0    
2019/07/24  21:32:00  BASE  1.2054   92   1.78752  67   -8.7  63    -14.5 0     0     1004.1   NA       0.0000   9999     0     0     0    
2019/07/24  21:33:00  BASE  1.24068  101  1.78752  67   -8.7  62    -14.6 0     0     1004.1   NA       0.0000   9999     0     0     0    
2019/07/24  21:34:00  BASE  0.75264  113  1.78752  67   -8.6  61    -14.8 0     0     1004.1   NA       0.0000   9999     0     0     0    
2019/07/24  21:35:00  BASE  0.39984  122  1.78752  67   -8.5  61    -14.8 0     0     1004.1   NA       0.0000   9999     0     0     0    
2019/07/24  21:36:00  BASE  0.45864  126  1.78752  67   -8.5  60    -14.9 0     0     1004.1   NA       0.0000   9999     0     0     0    
2019/07/24  21:37:00  BASE  0.50568  134  1.75224  65   -8.5  60    -15.0 0     0     1004.1   NA       0.0000   9999     0     0     0    
2019/07/24  21:38:00  BASE  0.48216  139  1.60524  69   -8.5  60    -15.0 0     0     1004.1   NA       0.0000   9999     0     0     0    
2019/07/24  21:39:00  BASE  0.1764   143  1.42296  94   -8.5  59    -15.0 0     0     1004.1   NA       0.0000   9999     0     0     0    
2019/07/24  21:40:00  BASE  0        148  1.42296  94   -8.5  59    -15.1 0     0     1004.1   NA       0.0000   9999     0     0     0    
2019/07/24  21:41:00  BASE  0        166  1.42296  94   -8.4  59    -15.0 0     0     1004.1   NA       0.0000   9999     0     0     0    
2019/07/24  21:42:00  BASE  0        179  1.35828  103  -8.3  59    -14.9 0     0     1004.1   NA       0.0000   9999     0     0     0    
2019/07/24  21:43:00  BASE  0        170  1.029    112  -8.2  58    -14.9 0     0     1004.1   NA       0.0000   9999     0     0     0    
2019/07/24  21:44:00  BASE  0        148  0.90552  117  -8.1  58    -14.9 0     0     1004.1   NA       0.0000   9999     0     0     0    
2019/07/24  21:45:00  BASE  0        121  0.81732  150  -8.0  58    -14.9 0     0     1004.1   NA       0.0000   9999     0     0     0    
2019/07/24  21:46:00  BASE  0        105  0.81732  150  -8.1  57    -15.1 0     0     1004.1   NA       0.0000   9999     0     0     0    
2019/07/24  21:47:00  BASE  0        103  0.75852  134  -8.2  57    -15.2 0     0     1004.1   NA       0.0000   9999     0     0     0    
2019/07/24  21:48:00  BASE  0        114  0        M    -8.3  57    -15.2 0     0     1004.1   NA       0.0000   9999     0     0     0    
2019/07/24  21:49:00  BASE  0.05292  140  0.63504  152  -8.3  58    -15.2 0     0     1004.1   NA       0.0000   9999     0     0     0    
2019/07/24  21:50:00  BASE  0.07644  157  0.63504  152  -8.4  58    -15.2 0     0     1004.1   NA       0.0000   9999     0     0     0    
2019/07/24  21:51:00  BASE  0.02352  163  0.63504  152  -8.4  58    -15.2 0     0     1004.0   NA       0.0000   9999     0     0     0    
2019/07/24  21:52:00  BASE  0        163  0.63504  152  -8.3  58    -15.1 0     0     1004.0   NA       0.0000   9999     0     0     0    
2019/07/24  21:53:00  BASE  0        150  0.63504  152  -8.3  58    -15.1 0     0     1004.0   NA       0.0000   9999     0     0     0    
2019/07/24  21:54:00  BASE  0        122  0.63504  152  -8.2  58    -15.0 0     0     1004.0   NA       0.0000   9999     0     0     0    
2019/07/24  21:55:00  BASE  0        101  0.63504  152  -8.2  58    -15.0 0     0     1004.0   NA       0.0000   9999     0     0     0    
2019/07/24  21:56:00  BASE  0        99   0.63504  152  -8.1  58    -14.9 0     0     1004.0   NA       0.0000   9999     0     0     0    
2019/07/24  21:57:00  BASE  0.2352   103  0.84672  116  -8.1  58    -14.9 0     0     1004.0   NA       0.0000   9999     0     0     0    
2019/07/24  21:58:00  BASE  0.79968  115  1.29948  132  -8.1  58    -14.9 0     0     1004.0   NA       0.0000   9999     0     0     0    
2019/07/24  21:59:00  BASE  1.2642   129  1.69344  132  -8.2  58    -15.0 0     0     1004.0   NA       0.0000   9999     0     0     0    
2019/07/24  22:00:00  BASE  1.47588  135  1.69344  132  -8.3  58    -15.1 0     0     1003.9   NA       0.0000   9999     0     0     0    
2019/07/24  22:01:00  BASE  1.58172  131  1.81692  123  -8.4  58    -15.2 0     0     1003.9   NA       0.0000   9999     0     0     0    
2019/07/24  22:02:00  BASE  1.51704  120  1.81692  123  -8.6  59    -15.3 0     0     1003.9   NA       0.0000   9999     0     0     0    
2019/07/24  22:03:00  BASE  1.4406   116  1.81692  123  -8.8  59    -15.3 0     0     1003.8   NA       0.0000   9999     0     0     0    
2019/07/24  22:04:00  BASE  1.51704  116  1.81692  123  -8.9  60    -15.2 0     0     1003.8   NA       0.0000   9999     0     0     0    
2019/07/24  22:05:00  BASE  1.57584  111  1.81692  123  -8.9  61    -15.0 0     0     1003.8   NA       0.0000   9999     0     0     0    
2019/07/24  22:06:00  BASE  1.72872  104  2.42256  96   -8.9  62    -14.9 0     0     1003.8   NA       0.0000   9999     0     0     0    
2019/07/24  22:07:00  BASE  2.24028  97   2.84592  92   -8.9  62    -14.8 0     0     1003.8   NA       0.0000   9999     0     0     0    
2019/07/24  22:08:00  BASE  2.5578   93   2.84592  88   -8.9  62    -14.7 0     0     1003.8   NA       0.0000   9999     0     0     0    
2019/07/24  22:09:00  BASE  2.34612  94   2.84592  88   -8.8  62    -14.7 0     0     1003.9   NA       0.0000   9999     0     0     0    
2019/07/24  22:10:00  BASE  2.11092  100  2.84592  88   -8.8  62    -14.8 0     0     1003.9   NA       0.0000   9999     0     0     0    
2019/07/24  22:11:00  BASE  1.8228   103  2.84592  88   -8.7  62    -14.7 0     0     1003.9   NA       0.0000   9999     0     0     0    
2019/07/24  22:12:00  BASE  1.82868  92   2.84592  88   -8.6  61    -14.8 0     0     1003.9   NA       0.0000   9999     0     0     0    
2019/07/24  22:13:00  BASE  2.06976  80   2.84592  88   -8.5  60    -14.9 0     0     1003.9   NA       0.0000   9999     0     0     0    
2019/07/24  22:14:00  BASE  2.16972  69   2.84592  88   -8.5  59    -15.0 0     0     1003.9   NA       0.0000   9999     0     0     0    
2019/07/24  22:15:00  BASE  2.39316  58   2.84592  88   -8.5  58    -15.2 0     0     1003.9   NA       0.0000   9999     0     0     0    
2019/07/24  22:16:00  BASE  2.57544  59   2.87532  62   -8.6  58    -15.4 0     0     1003.9   NA       0.0000   9999     0     0     0    
2019/07/24  22:17:00  BASE  2.60484  60   2.87532  62   -8.7  58    -15.5 0     0     1003.9   NA       0.0000   9999     0     0     0    
2019/07/24  22:18:00  BASE  2.63424  63   3.1458   73   -8.8  58    -15.6 0     0     1003.8   NA       0.0000   9999     0     0     0    
2019/07/24  22:19:00  BASE  2.74008  73   3.1458   73   -8.9  58    -15.8 0     0     1003.8   NA       0.0000   9999     0     0     0    
2019/07/24  22:20:00  BASE  2.62248  82   3.1458   73   -9.0  58    -15.8 0     0     1003.8   NA       0.0000   9999     0     0     0    
2019/07/24  22:21:00  BASE  2.48136  89   3.1458   73   -9.0  58    -15.7 0     0     1003.7   NA       0.0000   9999     0     0     0    
2019/07/24  22:22:00  BASE  2.54016  89   3.1458   73   -8.9  58    -15.7 0     0     1003.6   NA       0.0000   9999     0     0     0    
2019/07/24  22:23:00  BASE  2.39904  89   3.1458   73   -8.8  57    -15.7 0     0     1003.6   NA       0.0000   9999     0     0     0    
2019/07/24  22:24:00  BASE  2.18148  89   3.1458   73   -8.6  57    -15.7 0     0     1003.6   NA       0.0000   9999     0     0     0    
2019/07/24  22:25:00  BASE  2.15796  86   3.1458   73   -8.5  56    -15.7 0     0     1003.6   NA       0.0000   9999     0     0     0    
2019/07/24  22:26:00  BASE  2.2344   81   3.1458   73   -8.4  55    -15.8 0     0     1003.6   NA       0.0000   9999     0     0     0    
2019/07/24  22:27:00  BASE  2.29908  78   3.1458   73   -8.3  55    -15.8 0     0     1003.6   NA       0.0000   9999     0     0     0    
2019/07/24  22:28:00  BASE  2.36964  81   3.0576   71   -8.4  54    -16.0 0     0     1003.6   NA       0.0000   9999     0     0     0    
2019/07/24  22:29:00  BASE  2.28732  89   2.78124  87   -8.5  54    -16.0 0     0     1003.6   NA       0.0000   9999     0     0     0    
2019/07/24  22:30:00  BASE  1.94628  97   2.78124  87   -8.5  55    -16.0 0     0     1003.6   NA       0.0000   9999     0     0     0    
2019/07/24  22:31:00  BASE  1.81692  101  2.78124  87   -8.5  55    -15.9 0     0     1003.6   NA       0.0000   9999     0     0     0    
2019/07/24  22:32:00  BASE  1.8816   94   2.63424  88   -8.4  55    -15.8 0     0     1003.5   NA       0.0000   9999     0     0     0    
2019/07/24  22:33:00  BASE  1.8816   89   2.63424  88   -8.4  55    -15.8 0     0     1003.5   NA       0.0000   9999     0     0     0    
2019/07/24  22:34:00  BASE  2.29908  94   3.1458   101  -8.4  55    -15.9 0     0     1003.5   NA       0.0000   9999     0     0     0    
2019/07/24  22:35:00  BASE  2.6754   92   3.1458   101  -8.6  55    -16.0 0     0     1003.5   NA       0.0000   9999     0     0     0    
2019/07/24  22:36:00  BASE  2.793    81   3.2046   70   -8.6  55    -16.0 0     0     1003.5   NA       0.0000   9999     0     0     0    
2019/07/24  22:37:00  BASE  3.01056  76   3.48096  71   -8.6  55    -16.1 0     0     1003.5   NA       0.0000   9999     0     0     0    
2019/07/24  22:38:00  BASE  3.0282   76   3.48096  71   -8.7  55    -16.2 0     0     1003.5   NA       0.0000   9999     0     0     0    
2019/07/24  22:39:00  BASE  2.86356  79   3.48096  71   -8.6  54    -16.2 0     0     1003.5   NA       0.0000   9999     0     0     0    
2019/07/24  22:40:00  BASE  2.5578   81   3.48096  71   -8.6  54    -16.2 0     0     1003.5   NA       0.0000   9999     0     0     0    
2019/07/24  22:41:00  BASE  2.63424  70   3.48096  71   -8.6  54    -16.3 0     0     1003.4   NA       0.0000   9999     0     0     0    
2019/07/24  22:42:00  BASE  2.48136  57   3.48096  71   -8.8  54    -16.5 0     0     1003.4   NA       0.0000   9999     0     0     0    
2019/07/24  22:43:00  BASE  2.0286   54   3.48096  71   -8.9  55    -16.4 0     0     1003.4   NA       0.0000   9999     0     0     0    
2019/07/24  22:44:00  BASE  1.99332  74   3.48096  71   -8.9  55    -16.2 0     0     1003.4   NA       0.0000   9999     0     0     0    
2019/07/24  22:45:00  BASE  1.47588  87   3.48096  71   -8.9  56    -16.1 0     0     1003.4   NA       0.0000   9999     0     0     0    
2019/07/24  22:46:00  BASE  1.25832  67   3.48096  71   -8.8  56    -15.9 0     0     1003.4   NA       0.0000   9999     0     0     0    
2019/07/24  22:47:00  BASE  1.86984  70   3.32808  71   -8.7  56    -15.8 0     0     1003.4   NA       0.0000   9999     0     0     0    
2019/07/24  22:48:00  BASE  2.33436  90   3.2046   80   -8.7  55    -16.1 0     0     1003.4   NA       0.0000   9999     0     0     0    
2019/07/24  22:49:00  BASE  2.54604  94   3.26928  94   -8.8  55    -16.2 0     0     1003.4   NA       0.0000   9999     0     0     0    
2019/07/24  22:50:00  BASE  2.77536  90   3.26928  94   -8.9  55    -16.4 0     0     1003.4   NA       0.0000   9999     0     0     0    
2019/07/24  22:51:00  BASE  2.8812   86   3.26928  94   -9.0  54    -16.5 0     0     1003.4   NA       0.0000   9999     0     0     0    
2019/07/24  22:52:00  BASE  2.7342   80   3.26928  94   -9.1  54    -16.6 0     0     1003.4   NA       0.0000   9999     0     0     0    
2019/07/24  22:53:00  BASE  2.51664  70   3.26928  94   -9.0  54    -16.5 0     0     1003.4   NA       0.0000   9999     0     0     0    
2019/07/24  22:54:00  BASE  2.2638   61   3.26928  94   -8.8  54    -16.5 0     0     1003.4   NA       0.0000   9999     0     0     0    
2019/07/24  22:55:00  BASE  1.89924  55   3.26928  94   -8.7  53    -16.6 0     0     1003.4   NA       0.0000   9999     0     0     0    
2019/07/24  22:56:00  BASE  1.33476  36   3.26928  94   -8.6  53    -16.6 0     0     1003.4   NA       0.0000   9999     0     0     0    
2019/07/24  22:57:00  BASE  1.31712  45   3.26928  94   -8.6  53    -16.6 0     0     1003.4   NA       0.0000   9999     0     0     0    
2019/07/24  22:58:00  BASE  1.65816  66   3.26928  94   -8.7  53    -16.6 0     0     1003.4   NA       0.0000   9999     0     0     0    
2019/07/24  22:59:00  BASE  1.92864  59   3.2046   90   -8.7  53    -16.5 0     0     1003.4   NA       0.0000   9999     0     0     0    
2019/07/24  23:00:00  BASE  2.15208  57   2.96352  80   -8.7  54    -16.3 0     0     1003.4   NA       0.0000   9999     0     0     0    
2019/07/24  23:01:00  BASE  2.0874   60   2.93412  79   -8.8  55    -16.3 0     0     1003.4   NA       0.0000   9999     0     0     0    
2019/07/24  23:02:00  BASE  2.22264  63   2.87532  79   -8.8  54    -16.3 0     0     1003.4   NA       0.0000   9999     0     0     0    
2019/07/24  23:03:00  BASE  2.25792  64   2.87532  79   -8.8  54    -16.4 0     0     1003.4   NA       0.0000   9999     0     0     0    
2019/07/24  23:04:00  BASE  2.16384  67   2.87532  79   -8.8  54    -16.5 0     0     1003.4   NA       0.0000   9999     0     0     0    
2019/07/24  23:05:00  BASE  2.27556  72   2.87532  79   -8.7  53    -16.6 0     0     1003.4   NA       0.0000   9999     0     0     0    
2019/07/24  23:06:00  BASE  2.07564  73   2.87532  79   -8.6  52    -16.7 0     0     1003.4   NA       0.0000   9999     0     0     0    
2019/07/24  23:07:00  BASE  2.16384  74   2.87532  79   -8.6  52    -16.8 0     0     1003.4   NA       0.0000   9999     0     0     0    
2019/07/24  23:08:00  BASE  2.19324  66   2.87532  79   -8.5  51    -16.8 0     0     1003.4   NA       0.0000   9999     0     0     0    
2019/07/24  23:09:00  BASE  1.89336  65   2.87532  79   -8.5  51    -16.9 0     0     1003.4   NA       0.0000   9999     0     0     0    
2019/07/24  23:10:00  BASE  1.65816  71   2.87532  79   -8.5  51    -16.9 0     0     1003.3   NA       0.0000   9999     0     0     0    
2019/07/24  23:11:00  BASE  1.51116  80   2.87532  79   -8.6  51    -17.0 0     0     1003.3   NA       0.0000   9999     0     0     0    
2019/07/24  23:12:00  BASE  1.28184  84   2.63424  71   -8.7  51    -17.0 0     0     1003.3   NA       0.0000   9999     0     0     0    
2019/07/24  23:13:00  BASE  0.75852  88   2.63424  71   -8.8  51    -17.0 0     0     1003.3   NA       0.0000   9999     0     0     0    
2019/07/24  23:14:00  BASE  0.25872  86   2.63424  71   -8.9  52    -17.0 0     0     1003.3   NA       0.0000   9999     0     0     0    
2019/07/24  23:15:00  BASE  0        119  2.63424  71   -8.9  52    -16.9 0     0     1003.3   NA       0.0000   9999     0     0     0    
2019/07/24  23:16:00  BASE  0.32928  140  2.63424  71   -8.9  53    -16.8 0     0     1003.3   NA       0.0000   9999     0     0     0    
2019/07/24  23:17:00  BASE  0.47628  106  2.21088  47   -9.0  54    -16.7 0     0     1003.4   NA       0.0000   9999     0     0     0    
2019/07/24  23:18:00  BASE  0.69384  86   2.1756   83   -9.0  54    -16.6 0     0     1003.4   NA       0.0000   9999     0     0     0    
2019/07/24  23:19:01  BASE  1.10544  100  2.1462   103  -9.1  55    -16.5 0     0     1003.4   NA       0.0000   9999     0     0     0    
2019/07/24  23:20:00  BASE  1.35828  113  2.45196  123  -9.2  55    -16.6 0     0     1003.4   NA       0.0000   9999     0     0     0    
2019/07/24  23:21:00  BASE  1.45824  133  2.45196  123  -9.4  55    -16.8 0     0     1003.3   NA       0.0000   9999     0     0     0    
2019/07/24  23:22:00  BASE  0.94668  163  2.45196  123  -9.7  55    -17.0 0     0     1003.3   NA       0.0000   9999     0     0     0    
2019/07/24  23:23:00  BASE  0.74676  153  2.45196  123  -9.8  56    -17.0 0     0     1003.3   NA       0.0000   9999     0     0     0    
2019/07/24  23:24:00  BASE  1.56408  124  4.29828  116  -9.9  57    -16.9 0     0     1003.2   NA       0.0000   9999     0     0     0    
2019/07/24  23:25:00  BASE  3.44568  114  5.145    117  -9.9  57    -16.8 0     0     1003.2   NA       0.0000   9999     0     0     0    
2019/07/24  23:26:00  BASE  4.58052  112  5.145    117  -9.7  58    -16.4 0     0     1003.2   NA       0.0000   9999     0     0     0    
2019/07/24  23:27:00  BASE  4.48056  112  5.145    117  -9.3  58    -16.0 0     0     1003.2   NA       0.0000   9999     0     0     0    
2019/07/24  23:28:00  BASE  4.66872  110  5.145    117  -9.2  58    -15.9 0     0     1003.1   NA       0.0000   9999     0     0     0    
2019/07/24  23:29:00  BASE  4.75104  105  5.145    117  -9.0  58    -15.7 0     0     1003.0   NA       0.0000   9999     0     0     0    
2019/07/24  23:30:00  BASE  4.8216   102  5.38608  96   -8.9  58    -15.6 0     0     1003.0   NA       0.0000   9999     0     0     0    
2019/07/24  23:31:00  BASE  4.80396  99   5.38608  96   -8.9  58    -15.6 0     0     1003.0   NA       0.0000   9999     0     0     0    
2019/07/24  23:32:00  BASE  4.80396  92   5.38608  96   -9.0  58    -15.8 0     0     1003.0   NA       0.0000   9999     0     0     0    
2019/07/24  23:33:00  BASE  5.12736  90   5.92704  98   -9.1  57    -16.0 0     0     1003.0   NA       0.0000   9999     0     0     0    
2019/07/24  23:34:00  BASE  5.39784  93   5.99172  99   -9.2  57    -16.2 0     0     1003.0   NA       0.0000   9999     0     0     0    
2019/07/24  23:35:00  BASE  5.39784  94   5.99172  99   -9.4  57    -16.5 0     0     1003.0   NA       0.0000   9999     0     0     0    
2019/07/24  23:36:00  BASE  5.25084  92   5.99172  99   -9.7  57    -16.7 0     0     1002.9   NA       0.0000   9999     0     0     0    
2019/07/24  23:37:00  BASE  5.40372  90   6.41508  95   -9.9  57    -16.8 0     0     1002.9   NA       0.0000   9999     0     0     0    
2019/07/24  23:38:00  BASE  5.71536  95   6.41508  95   -10.0 58    -16.7 0     0     1002.9   NA       0.0000   9999     0     0     0    
2019/07/24  23:39:00  BASE  5.93292  99   6.41508  95   -10.0 59    -16.5 0     0     1002.9   NA       0.0000   9999     0     0     0    
2019/07/24  23:40:00  BASE  5.89764  100  6.41508  95   -10.0 59    -16.4 0     0     1002.9   NA       0.0000   9999     0     0     0    
2019/07/24  23:41:00  BASE  5.8506   100  6.59148  101  -10.0 60    -16.3 0     0     1002.9   NA       0.0000   9999     0     0     0    
2019/07/24  23:42:00  BASE  5.92704  99   6.59148  101  -9.9  61    -16.1 0     0     1002.9   NA       0.0000   9999     0     0     0    
2019/07/24  23:43:00  BASE  5.93292  100  6.59148  101  -9.8  61    -15.9 0     0     1002.9   NA       0.0000   9999     0     0     0    
2019/07/24  23:44:00  BASE  5.68596  99   6.59148  101  -9.6  61    -15.8 0     0     1002.9   NA       0.0000   9999     0     0     0    
2019/07/24  23:45:00  BASE  5.5272   98   6.59148  101  -9.4  61    -15.5 0     0     1002.9   NA       0.0000   9999     0     0     0    
2019/07/24  23:46:00  BASE  5.56248  94   6.59148  101  -9.1  61    -15.3 0     0     1002.9   NA       0.0000   9999     0     0     0    
2019/07/24  23:47:00  BASE  5.5272   92   6.59148  101  -9.1  60    -15.4 0     0     1002.9   NA       0.0000   9999     0     0     0    
2019/07/24  23:48:00  BASE  5.60952  90   6.59148  101  -9.2  60    -15.5 0     0     1002.9   NA       0.0000   9999     0     0     0    
2019/07/24  23:49:00  BASE  5.53308  85   6.59148  101  -9.3  60    -15.7 0     0     1002.9   NA       0.0000   9999     0     0     0    
2019/07/24  23:50:00  BASE  5.45076  84   6.59148  101  -9.4  59    -15.9 0     0     1002.9   NA       0.0000   9999     0     0     0    
2019/07/24  23:51:00  BASE  5.75064  85   6.53268  90   -9.6  60    -16.0 0     0     1002.9   NA       0.0000   9999     0     0     0    
2019/07/24  23:52:00  BASE  5.81532  84   6.53268  90   -9.5  60    -15.8 0     0     1002.9   NA       0.0000   9999     0     0     0    
2019/07/24  23:53:00  BASE  5.2038   83   6.53268  90   -9.4  60    -15.7 0     0     1002.9   NA       0.0000   9999     0     0     0    
2019/07/24  23:54:00  BASE  5.03328  83   6.53268  90   -9.4  60    -15.7 0     0     1002.9   NA       0.0000   9999     0     0     0    
2019/07/24  23:55:00  BASE  5.50956  81   6.53268  90   -9.3  61    -15.5 0     0     1002.9   NA       0.0000   9999     0     0     0    
2019/07/24  23:56:00  BASE  5.47428  78   6.53268  90   -9.1  60    -15.4 0     0     1002.9   NA       0.0000   9999     0     0     0    
2019/07/24  23:57:00  BASE  5.03916  78   6.53268  90   -9.0  60    -15.3 0     0     1002.9   NA       0.0000   9999     0     0     0    
2019/07/24  23:58:00  BASE  4.90392  77   6.53268  90   -8.9  60    -15.3 0     0     1002.9   NA       0.0000   9999     0     0     0    
2019/07/24  23:59:00  BASE  4.7922   76   6.53268  90   -8.7  59    -15.2 0     0     1002.9   NA       0.0000   9999     0     0     0